[[{"header":{"parameterUnit":"m.s-1","parameterCategory":1,"la1":30.6,"la2":28.766,"lo1":-90.7593,"lo2":-88.6598,"dy":0.0162,"dx":0.0183,"nx":116,"ny":114,"refTime":"2024-05-08T00:00:00:Z","depth":0,"parameterNumber":2,"parameterNumberName":"U-component_of_WINDS"},"data":[0.0,0.0,0.0,0.0,0.0,0.0,0.0,0.0,0.0,0.0,0.0,0.0,0.0,0.0,0.0,0.0,0.0,0.0,0.0,0.0,0.0,0.0,0.0,0.0,0.0,0.0,0.0,0.0,0.0,0.0,0.0,0.0,0.0,0.0,0.0,0.0,0.0,0.0,0.0,0.0,0.0,0.0,0.0,0.0,0.0,0.0,0.0,0.0,0.0,0.0,0.0,0.0,0.0,0.0,0.0,0.0,0.0,0.0,0.0,0.0,0.0,0.0,0.0,0.0,0.0,0.0,0.0,0.0,0.0,0.0,0.0,0.0,0.0,0.0,0.0,0.0,0.0,0.0,0.0,0.0,0.0,0.0,0.0,0.0,0.0,0.0,0.0,0.0,0.0,0.0,0.0,0.0,0.0,0.0,0.0,0.0,0.0,0.0,0.0,0.0,0.0,0.0,0.0,0.0,0.0,0.0,0.0,0.0,0.0,0.0,0.0,0.0,0.0,0.0,0.0,0.0,0.0,0.0,0.0,0.0,0.0,0.0,0.0,0.0,0.0,0.0,0.0,0.0,0.0,0.0,0.0,0.0,0.0,0.0,0.0,0.0,0.0,0.0,0.0,0.0,0.0,0.0,0.0,0.0,0.0,0.0,0.0,0.0,0.0,0.0,0.0,0.0,0.0,0.0,0.0,0.0,0.0,0.0,0.0,0.0,0.0,0.0,0.0,0.0,0.0,0.0,0.0,0.0,0.0,0.0,0.0,0.0,0.0,0.0,0.0,0.0,0.0,0.0,0.0,0.0,0.0,0.0,0.0,0.0,0.0,0.0,0.0,0.0,0.0,0.0,0.0,0.0,0.0,0.0,0.0,0.0,0.0,0.0,0.0,0.0,0.0,0.0,0.0,0.0,0.0,0.0,0.0,0.0,0.0,0.0,0.0,0.0,0.0,0.0,0.0,0.0,0.0,0.0,0.0,0.0,0.0,0.0,0.0,0.0,0.0,0.0,0.0,0.0,0.0,0.0,0.0,0.0,0.0,0.0,0.0,0.0,0.0,0.0,0.0,0.0,0.0,0.0,0.0,0.0,0.0,0.0,0.0,0.0,0.0,0.0,0.0,0.0,0.0,0.0,0.0,0.0,0.0,0.0,0.0,0.0,0.0,0.0,0.0,0.0,0.0,0.0,0.0,0.0,0.0,0.0,0.0,0.0,0.0,0.0,0.0,0.0,0.0,0.0,0.0,0.0,0.0,0.0,0.0,0.0,0.0,0.0,0.0,0.0,0.0,0.0,0.0,0.0,0.0,0.0,0.0,0.0,0.0,0.0,0.0,0.0,0.0,0.0,0.0,0.0,0.0,0.0,0.0,0.0,0.0,0.0,0.0,0.0,0.0,0.0,0.0,0.0,0.0,0.0,0.0,0.0,0.0,0.0,0.0,0.0,0.0,0.0,0.0,0.0,0.0,0.0,0.0,0.0,0.0,0.0,0.0,0.0,0.0,0.0,0.0,0.0,0.0,0.0,0.0,0.0,0.0,0.0,0.0,0.0,0.0,0.0,0.0,0.0,0.0,0.0,0.0,0.0,0.0,0.0,0.0,0.0,0.0,0.0,0.0,0.0,0.0,0.0,0.0,0.0,0.0,0.0,0.0,0.0,0.0,0.0,0.0,0.0,0.0,0.0,0.0,0.0,0.0,0.0,0.0,0.0,0.0,0.0,0.0,0.0,0.0,0.0,0.0,0.0,0.0,0.0,0.0,0.0,0.0,0.0,0.0,0.0,0.0,0.0,0.0,0.0,0.0,0.0,0.0,0.0,0.0,0.0,0.0,0.0,0.0,0.0,0.0,0.0,0.0,0.0,0.0,0.0,0.0,0.0,0.0,0.0,0.0,0.0,0.0,0.0,0.0,0.0,0.0,0.0,0.0,0.0,0.0,0.0,0.0,0.0,0.0,0.0,0.0,0.0,0.0,0.0,0.0,0.0,0.0,0.0,0.0,0.0,0.0,0.0,0.0,0.0,0.0,0.0,0.0,0.0,0.0,0.0,0.0,0.0,0.0,0.0,0.0,0.0,0.0,0.0,0.0,0.0,0.0,0.0,0.0,0.0,0.0,0.0,0.0,0.0,0.0,0.0,0.0,0.0,0.0,0.0,0.0,0.0,0.0,0.0,0.0,0.0,0.0,0.0,0.0,0.0,0.0,0.0,0.0,0.0,0.0,0.0,0.0,0.0,0.0,0.0,0.0,0.0,0.0,0.0,0.0,0.0,0.0,0.0,0.0,0.0,0.0,0.0,0.0,0.0,0.0,0.0,0.0,0.0,0.0,0.0,0.0,0.0,0.0,0.0,0.0,0.0,0.0,0.0,0.0,0.0,0.0,0.0,0.0,0.0,0.0,0.0,0.0,0.0,0.0,0.0,0.0,0.0,0.0,0.0,0.0,0.0,0.0,0.0,0.0,0.0,0.0,0.0,0.0,0.0,0.0,0.0,0.0,0.0,0.0,0.0,0.0,0.0,0.0,0.0,0.0,0.0,0.0,0.0,0.0,0.0,0.0,0.0,0.0,0.0,0.0,0.0,0.0,0.0,0.0,0.0,0.0,0.0,0.0,0.0,0.0,0.0,0.0,0.0,0.0,0.0,0.0,0.0,0.0,0.0,0.0,0.0,0.0,0.0,0.0,0.0,0.0,0.0,0.0,0.0,0.0,0.0,0.0,0.0,0.0,0.0,0.0,0.0,0.0,0.0,0.0,0.0,0.0,0.0,0.0,0.0,0.0,0.0,0.0,0.0,0.0,0.0,0.0,0.0,0.0,0.0,0.0,0.0,0.0,0.0,0.0,0.0,0.0,0.0,0.0,0.0,0.0,0.0,0.0,0.0,0.0,0.0,0.0,0.0,0.0,0.0,0.0,0.0,0.0,0.0,0.0,0.0,0.0,0.0,0.0,0.0,0.0,0.0,0.0,0.0,0.0,0.0,0.0,0.0,0.0,0.0,0.0,0.0,0.0,0.0,0.0,0.0,0.0,0.0,0.0,0.0,0.0,0.0,0.0,0.0,0.0,0.0,0.0,0.0,0.0,0.0,0.0,0.0,0.0,0.0,0.0,0.0,0.0,0.0,0.0,0.0,0.0,0.0,0.0,0.0,0.0,0.0,0.0,0.0,0.0,0.0,0.0,0.0,0.0,0.0,0.0,0.0,0.0,0.0,0.0,0.0,0.0,0.0,0.0,0.0,0.0,0.0,0.0,0.0,0.0,0.0,0.0,0.0,0.0,0.0,0.0,0.0,0.0,0.0,0.0,0.0,0.0,0.0,0.0,0.0,0.0,0.0,0.0,0.0,0.0,0.0,0.0,0.0,0.0,0.0,0.0,0.0,0.0,0.0,0.0,0.0,0.0,0.0,0.0,0.0,0.0,0.0,0.0,0.0,0.0,0.0,0.0,0.0,0.0,0.0,0.0,0.0,0.0,0.0,0.0,0.0,0.0,0.0,0.0,0.0,0.0,0.0,0.0,0.0,0.0,0.0,0.0,0.0,0.0,0.0,0.0,0.0,0.0,0.0,0.0,0.0,0.0,0.0,0.0,0.0,0.0,0.0,0.0,0.0,0.0,0.0,0.0,0.0,0.0,0.0,0.0,0.0,0.0,0.0,0.0,0.0,0.0,0.0,0.0,0.0,0.0,0.0,0.0,0.0,0.0,0.0,0.0,0.0,0.0,0.0,0.0,0.0,0.0,0.0,0.0,0.0,0.0,0.0,0.0,0.0,0.0,0.0,0.0,0.0,0.0,0.0,0.0,0.0,0.0,0.0,0.0,0.0,0.0,0.0,0.0,0.0,0.0,0.0,0.0,0.0,0.0,0.0,0.0,0.0,0.0,0.0,0.0,0.0,0.0,0.0,0.0,0.0,0.0,0.0,0.0,0.0,0.0,0.0,0.0,0.0,0.0,0.0,0.0,0.0,0.0,0.0,0.0,0.0,0.0,0.0,0.0,0.0,0.0,0.0,0.0,0.0,0.0,0.0,0.0,0.0,0.0,0.0,0.0,0.0,0.0,0.0,0.0,0.0,0.0,0.0,0.0,0.0,0.0,0.0,0.0,0.0,0.0,0.0,0.0,0.0,0.0,0.0,0.0,0.0,0.0,0.0,0.0,0.0,0.0,0.0,0.0,0.0,0.0,0.0,0.0,0.0,0.0,0.0,0.0,0.0,0.0,0.0,0.0,0.0,0.0,0.0,0.0,0.0,0.0,0.0,0.0,0.0,0.0,0.0,0.0,0.0,0.0,0.0,0.0,0.0,0.0,0.0,0.0,0.0,0.0,0.0,0.0,0.0,0.0,0.0,0.0,0.0,0.0,0.0,0.0,0.0,0.0,0.0,0.0,0.0,0.0,0.0,0.0,0.0,0.0,0.0,0.0,0.0,0.0,0.0,0.0,0.0,0.0,0.0,0.0,0.0,0.0,0.0,0.0,0.0,0.0,0.0,0.0,0.0,0.0,0.0,0.0,0.0,0.0,0.0,0.0,0.0,0.0,0.0,0.0,0.0,0.0,0.0,0.0,0.0,0.0,0.0,0.0,0.0,0.0,0.0,0.0,0.0,0.0,0.0,0.0,0.0,0.0,0.0,0.0,0.0,0.0,0.0,0.0,0.0,0.0,0.0,0.0,0.0,0.0,0.0,0.0,0.0,0.0,0.0,0.0,0.0,0.0,0.0,0.0,0.0,0.0,0.0,0.0,0.0,0.0,0.0,0.0,0.0,0.0,0.0,0.0,0.0,0.0,0.0,0.0,0.0,0.0,0.0,0.0,0.0,0.0,0.0,0.0,0.0,0.0,0.0,0.0,0.0,0.0,0.0,0.0,0.0,0.0,0.0,0.0,0.0,0.0,0.0,0.0,0.0,0.0,0.0,0.0,0.0,0.0,0.0,0.0,0.0,0.0,0.0,0.0,0.0,0.0,0.0,0.0,0.0,0.0,0.0,0.0,0.0,0.0,0.0,0.0,0.0,0.0,0.0,0.0,0.0,0.0,0.0,0.0,0.0,0.0,0.0,0.0,0.0,0.0,0.0,0.0,0.0,0.0,0.0,0.0,0.0,0.0,0.0,0.0,0.0,0.0,0.0,0.0,0.0,0.0,0.0,0.0,0.0,0.0,0.0,0.0,0.0,0.0,0.0,0.0,0.0,0.0,0.0,0.0,0.0,0.0,0.0,0.0,0.0,0.0,0.0,0.0,0.0,0.0,0.0,0.0,0.0,0.0,0.0,0.0,0.0,0.0,0.0,0.0,0.0,0.0,0.0,0.0,0.0,0.0,0.0,0.0,0.0,0.0,0.0,0.0,0.0,0.0,0.0,0.0,0.0,0.0,0.0,0.0,0.0,0.0,0.0,0.0,0.0,0.0,0.0,0.0,0.0,0.0,0.0,0.0,0.0,0.0,0.0,0.0,0.0,0.0,0.0,0.0,0.0,0.0,0.0,0.0,0.0,0.0,0.0,0.0,0.0,0.0,0.0,0.0,0.0,0.0,0.0,0.0,0.0,0.0,0.0,0.0,0.0,0.0,0.0,0.0,0.0,0.0,0.0,0.0,0.0,0.0,0.0,0.0,0.0,0.0,0.0,0.0,0.0,0.0,0.0,0.0,0.0,0.0,0.0,0.0,0.0,0.0,0.0,0.0,0.0,0.0,0.0,0.0,0.0,0.0,0.0,0.0,0.0,0.0,0.0,0.0,0.0,0.0,0.0,0.0,0.0,0.0,0.0,0.0,0.0,0.0,0.0,0.0,0.0,0.0,0.0,0.0,0.0,0.0,0.0,0.0,0.0,0.0,0.0,0.0,0.0,0.0,0.0,0.0,0.0,0.0,0.0,0.0,0.0,0.0,0.0,0.0,0.0,0.0,0.0,0.0,0.0,0.0,0.0,0.0,0.0,0.0,0.0,0.0,0.0,0.0,0.0,0.0,0.0,0.0,0.0,0.0,0.0,0.0,0.0,0.0,0.0,0.0,0.0,0.0,0.0,0.0,0.0,0.0,0.0,0.0,0.0,0.0,0.0,0.0,0.0,0.0,0.0,0.0,0.0,0.0,0.0,0.0,0.0,0.0,0.0,0.0,0.0,0.0,0.0,2.3959,0.0,0.0,0.0,0.0,0.0,0.0,0.0,0.0,0.0,0.0,0.0,0.0,0.0,0.0,0.0,0.0,0.0,0.0,0.0,0.0,0.0,0.0,0.0,0.0,1.7337,1.7502,1.7679,1.7801,1.7882,1.7882,0.0,0.0,0.0,0.0,0.0,1.8344,1.8344,1.8452,1.875,1.9062,1.9062,1.875,1.875,1.8452,1.7882,0.0,0.0,0.0,0.0,0.0,0.0,0.0,0.0,0.0,0.0,0.0,0.0,0.0,0.0,0.0,0.0,0.0,0.0,0.0,0.0,0.0,0.0,0.0,0.0,0.0,0.0,0.0,0.0,0.0,0.0,0.0,0.0,0.0,0.0,0.0,0.0,0.0,0.0,0.0,0.0,0.0,0.0,0.0,0.0,0.0,0.0,0.0,0.0,0.0,0.0,0.0,0.0,0.0,0.0,0.0,0.0,0.0,0.0,0.0,0.0,0.0,0.0,0.0,0.0,0.0,0.0,0.0,0.0,0.0,0.0,0.0,2.3522,0.0,0.0,0.0,0.0,0.0,0.0,0.0,0.0,0.0,0.0,0.0,0.0,0.0,0.0,0.0,0.0,0.0,0.0,0.0,0.0,0.0,1.6448,1.6905,1.7073,1.7323,1.772,1.7842,1.7882,1.7882,1.7882,0.0,0.0,0.0,1.8303,1.8793,1.8915,1.9184,1.97,1.9597,1.9651,1.9746,1.9548,1.8926,1.7974,1.8057,0.0,0.0,0.0,0.0,0.0,0.0,0.0,0.0,0.0,0.0,0.0,0.0,0.0,0.0,0.0,0.0,0.0,0.0,0.0,0.0,0.0,0.0,0.0,0.0,0.0,0.0,0.0,0.0,0.0,0.0,0.0,0.0,0.0,0.0,0.0,0.0,0.0,0.0,0.0,0.0,0.0,0.0,0.0,0.0,0.0,0.0,0.0,0.0,0.0,0.0,0.0,0.0,0.0,0.0,0.0,0.0,0.0,0.0,0.0,0.0,0.0,0.0,0.0,0.0,0.0,2.6632,2.6049,2.5612,2.5296,2.4131,2.3661,2.3679,0.0,0.0,0.0,0.0,0.0,0.0,0.0,0.0,0.0,0.0,0.0,0.0,0.0,0.0,0.0,0.0,0.0,0.0,0.0,0.0,1.668,1.6795,1.6964,1.7269,1.7842,1.7882,1.7882,1.7882,1.7882,1.7882,1.7882,1.8412,1.8725,1.8806,1.9293,1.9619,1.97,1.9288,1.9344,1.9866,1.8993,1.8498,1.8344,1.8721,1.8753,1.8578,0.0,0.0,0.0,0.0,0.0,0.0,0.0,0.0,0.0,0.0,0.0,0.0,0.0,0.0,0.0,0.0,0.0,0.0,0.0,0.0,0.0,0.0,0.0,0.0,0.0,0.0,0.0,0.0,0.0,0.0,0.0,0.0,0.0,0.0,0.0,0.0,0.0,0.0,0.0,0.0,0.0,2.5672,2.5949,0.0,0.0,0.0,0.0,0.0,0.0,0.0,0.0,0.0,0.0,0.0,0.0,0.0,0.0,2.8967,2.8986,2.8427,2.7263,2.7182,2.6895,2.6426,2.6159,2.5864,2.5535,2.4882,0.0,2.4791,2.4752,0.0,0.0,0.0,0.0,0.0,0.0,0.0,0.0,0.0,0.0,0.0,0.0,0.0,0.0,0.0,0.0,0.0,0.0,0.0,0.0,0.0,1.6964,1.7393,1.776,1.7842,1.7882,1.7882,1.7882,1.8072,1.8398,1.867,1.9076,1.9741,2.0026,2.0338,2.0663,2.0199,2.0127,2.0413,1.9969,1.9513,1.9083,1.928,1.9022,1.8536,1.8487,0.0,0.0,0.0,0.0,0.0,0.0,0.0,0.0,0.0,0.0,0.0,0.0,0.0,0.0,0.0,0.0,0.0,0.0,0.0,0.0,0.0,0.0,0.0,0.0,0.0,0.0,0.0,0.0,0.0,0.0,0.0,0.0,0.0,0.0,0.0,0.0,0.0,0.0,0.0,2.5774,2.6256,2.6879,2.7809,2.849,0.0,0.0,0.0,0.0,0.0,0.0,0.0,0.0,0.0,3.06,3.056,3.0336,2.989,2.9704,2.9289,2.8663,2.8278,2.792,2.7573,2.7197,2.6916,2.6757,2.6333,2.6169,2.6103,2.5002,2.4478,2.4385,0.0,0.0,0.0,0.0,0.0,0.0,0.0,0.0,0.0,0.0,0.0,0.0,0.0,0.0,0.0,0.0,0.0,0.0,1.6225,1.6795,1.731,1.7584,1.7801,1.7882,1.7882,1.8058,1.8344,1.8793,1.9105,1.9632,2.0468,2.063,2.0928,2.1423,2.1006,2.0759,2.066,2.056,2.0105,1.946,1.946,1.9094,1.8555,1.8643,1.8627,1.8528,0.0,0.0,0.0,0.0,0.0,0.0,0.0,0.0,0.0,0.0,0.0,0.0,0.0,0.0,0.0,0.0,0.0,0.0,0.0,0.0,0.0,0.0,0.0,0.0,0.0,0.0,0.0,0.0,0.0,0.0,0.0,0.0,0.0,0.0,0.0,0.0,0.0,2.6583,2.7159,2.7854,2.8783,2.9438,0.0,0.0,0.0,0.0,0.0,0.0,3.0747,3.0747,3.0697,3.06,3.0516,3.0453,3.0402,3.0157,2.9908,2.9603,2.9082,2.8693,2.8394,2.8,2.7806,2.776,2.7413,2.7164,2.6903,2.5427,2.4762,2.4663,2.4663,2.4413,0.0,2.3542,2.3211,2.2871,0.0,0.0,0.0,0.0,0.0,0.0,0.0,0.0,0.0,0.0,0.0,1.5647,1.5988,1.6312,1.6782,1.7352,1.7706,1.7882,1.7882,1.8453,1.8779,1.8806,1.9849,2.0427,2.0495,2.1036,2.1396,2.1423,2.1006,2.061,2.0233,1.9823,1.9448,1.904,1.904,1.9016,1.8984,1.8781,1.851,1.821,1.8102,0.0,0.0,0.0,0.0,0.0,0.0,0.0,0.0,0.0,0.0,0.0,0.0,0.0,0.0,0.0,0.0,0.0,0.0,0.0,0.0,0.0,0.0,0.0,0.0,0.0,0.0,0.0,0.0,0.0,0.0,0.0,0.0,0.0,0.0,0.0,0.0,0.0,0.0,2.8804,2.9721,0.0,0.0,0.0,0.0,3.0792,3.0857,3.0899,3.0897,3.0897,3.081,3.062,3.0468,3.0304,3.0117,2.9977,2.9624,2.9037,2.9012,2.873,2.8209,2.8182,2.8099,2.7968,2.7619,2.7206,2.6808,2.659,2.6248,2.5911,2.5911,2.573,2.5373,2.4561,2.4236,2.407,0.0,0.0,0.0,0.0,0.0,1.4373,1.4373,1.4558,1.4651,1.4708,1.5187,1.568,1.5988,1.6667,1.7173,1.7393,1.7706,1.7882,1.7882,1.848,1.8983,1.9347,2.0121,2.0671,2.105,2.1059,2.1006,2.1006,2.061,2.022,1.9811,1.9668,1.9408,1.8987,1.8987,1.8987,1.8987,1.8939,1.8594,1.8166,1.826,1.8004,0.0,0.0,0.0,0.0,0.0,0.0,0.0,0.0,0.0,0.0,0.0,0.0,0.0,0.0,0.0,0.0,0.0,0.0,0.0,0.0,0.0,0.0,0.0,0.0,0.0,0.0,0.0,0.0,0.0,0.0,0.0,0.0,0.0,0.0,0.0,0.0,0.0,2.9723,3.0171,0.0,0.0,3.0637,3.073,3.0791,3.0827,3.0858,3.0891,3.139,3.1538,3.1261,3.1699,3.1821,3.1507,3.1372,3.1066,3.054,3.0448,3.0158,2.969,2.969,2.9661,2.9603,2.9251,2.8658,2.7956,2.7664,2.6742,2.54,2.5346,2.5091,2.467,2.4078,2.3893,2.388,0.0,0.0,0.0,1.4093,1.4186,1.4233,1.4373,1.4466,1.4569,1.48,1.5232,1.5647,1.5913,1.6582,1.7102,1.724,1.7529,1.78,1.8002,1.8708,1.9304,1.9763,2.0281,2.0764,2.1202,2.0809,2.066,2.0795,2.0422,1.9965,1.9617,1.9617,1.9408,1.8987,1.8987,1.8987,1.8987,1.8762,1.8483,1.8112,1.8043,1.781,1.75,0.0,0.0,0.0,0.0,0.0,0.0,0.0,0.0,0.0,0.0,0.0,0.0,0.0,0.0,0.0,0.0,0.0,0.0,0.0,0.0,0.0,0.0,0.0,0.0,0.0,0.0,0.0,0.0,0.0,0.0,0.0,0.0,0.0,0.0,0.0,2.9615,3.0321,3.046,3.054,3.0598,3.068,3.0749,3.0792,3.1064,3.123,3.1242,3.1981,3.2258,3.1954,3.2378,3.2489,3.2222,3.2084,3.1771,3.1342,3.0921,3.0653,3.0481,2.9895,2.9782,3.0039,2.952,2.8863,2.8158,2.7919,2.684,2.5383,2.5409,2.5217,2.4851,2.4194,2.3992,2.3966,0.0,1.2511,1.2996,1.3668,1.3763,1.3905,1.4326,1.4558,1.4789,1.5062,1.5334,1.5558,1.5792,1.612,1.6454,1.6833,1.7199,1.7615,1.8135,1.9128,1.9718,1.989,2.0456,2.0746,2.0746,2.0372,2.0372,2.0746,2.0372,1.9978,1.9565,1.9552,1.9356,1.8934,1.8987,1.8987,1.8934,1.8321,1.8038,1.7984,1.7424,1.7268,1.7379,0.0,0.0,0.0,0.0,0.0,0.0,0.0,0.0,0.0,0.0,0.0,0.0,0.0,0.0,0.0,0.0,0.0,0.0,0.0,0.0,0.0,0.0,0.0,0.0,0.0,0.0,0.0,0.0,0.0,0.0,0.0,0.0,0.0,2.9091,2.9717,3.0309,3.0569,3.0653,3.0681,3.0607,3.0748,3.0833,3.0828,3.1651,3.209,3.1942,3.2648,3.2923,3.2651,3.2397,3.2241,3.2158,3.1968,3.1647,3.1219,3.0344,3.0123,3.0427,2.8772,2.8461,2.9197,2.8348,2.7776,2.7444,2.7304,2.6757,2.597,2.6273,2.6303,2.6077,2.4974,2.4586,2.4404,1.1393,1.2129,1.2799,1.3263,1.3621,1.3821,1.3962,1.3999,1.428,1.5017,1.5153,1.5379,1.5748,1.612,1.6355,1.6454,1.682,1.7235,1.7746,1.8449,1.9154,1.9787,1.98,1.9773,1.9773,1.9683,1.9527,1.9282,1.9423,1.9133,1.8506,1.8987,1.8762,1.8104,1.8721,1.8483,1.7699,1.7534,1.7202,1.681,1.7213,1.7045,1.6687,0.0,0.0,0.0,0.0,0.0,0.0,0.0,0.0,0.0,0.0,0.0,0.0,0.0,0.0,0.0,0.0,0.0,0.0,0.0,0.0,0.0,0.0,0.0,0.0,0.0,0.0,0.0,0.0,0.0,0.0,0.0,0.0,2.9845,2.9803,2.9983,3.0259,3.0548,3.0658,3.0717,3.0736,3.1339,3.1763,3.1814,3.2493,3.289,3.2844,3.3455,3.3658,3.3412,3.3847,3.3915,3.3552,3.3408,3.2775,3.1721,3.2076,3.1557,3.0315,3.0479,3.0349,2.9895,2.9672,2.9153,2.8481,2.8465,2.786,2.6897,2.618,2.5787,2.554,2.4503,2.4133,2.4133,1.06,1.1426,1.2146,1.2604,1.306,1.3392,1.3515,1.381,1.414,1.464,1.5051,1.5379,1.5659,1.5901,1.6151,1.6269,1.6497,1.6865,1.7365,1.8053,1.8671,1.9168,1.9144,1.9097,1.9097,1.8951,1.8792,1.8715,1.875,1.8506,1.8084,1.8278,1.8104,1.7722,1.7995,1.782,1.7202,1.6922,1.6472,1.5958,1.613,1.6073,1.6026,1.7024,1.7213,1.6968,1.7168,1.7272,1.7151,1.6606,0.0,0.0,0.0,0.0,0.0,0.0,0.0,0.0,0.0,0.0,0.0,0.0,0.0,0.0,0.0,0.0,0.0,0.0,0.0,0.0,0.0,0.0,0.0,0.0,2.9476,2.9953,3.008,3.0144,3.029,3.0568,3.0626,3.0813,3.1214,3.1699,3.2146,3.2549,3.3225,3.3579,3.3488,3.4017,3.4201,3.3995,3.4226,3.4208,3.3947,3.3834,3.3135,3.1899,3.2055,3.1438,3.0212,2.9995,2.9825,0.0,2.9275,2.8654,2.8003,2.8003,2.7339,0.0,0.0,0.0,0.0,0.0,2.4068,2.366,0.9759,1.0527,1.1221,1.1798,1.2282,1.2754,1.3074,1.3647,1.4082,1.4129,1.4858,1.5379,1.5424,1.5614,1.5869,1.6194,1.6225,1.646,1.6958,1.7776,1.8222,1.8232,1.8394,1.8496,1.8555,1.817,1.817,1.8566,1.8224,1.803,1.792,1.7567,1.7435,1.7435,1.7112,1.6944,1.6922,1.6415,1.5833,1.5196,1.4638,1.4706,1.5284,1.613,1.6151,1.5778,1.6585,1.6856,1.6858,1.6417,0.0,0.0,0.0,0.0,0.0,0.0,0.0,0.0,0.0,0.0,0.0,0.0,0.0,0.0,0.0,0.0,0.0,0.0,0.0,0.0,0.0,0.0,0.0,0.0,2.938,2.995,3.0047,3.0227,3.0394,3.0585,3.0699,3.1049,3.1843,3.202,3.2416,3.3177,3.3873,3.4191,3.4018,0.0,0.0,0.0,0.0,3.368,3.3532,3.3465,3.2782,3.1546,3.0883,3.0309,2.975,2.8307,2.7951,2.8529,2.7735,2.7086,2.6616,2.6616,2.5932,2.5022,2.6254,2.6669,2.6351,2.5217,2.3975,0.0,0.9183,1.0082,1.077,1.1185,1.1743,1.229,1.2716,1.292,1.319,1.3779,1.4212,1.4536,1.4846,1.5096,1.5334,1.5635,1.5635,1.5861,1.6431,1.676,1.7046,1.7254,1.7028,1.7113,1.7579,1.749,1.749,1.759,1.77,1.7479,1.6909,1.7224,1.6821,1.5864,1.6472,1.6255,1.542,1.5371,1.5002,1.4382,1.3914,1.3743,1.3923,1.4186,1.4314,1.4392,1.4669,1.4855,1.5089,1.5476,1.5676,1.5879,1.6396,1.6662,0.0,0.0,0.0,0.0,0.0,0.0,0.0,0.0,0.0,0.0,0.0,0.0,0.0,0.0,0.0,0.0,0.0,0.0,0.0,2.8435,2.9363,3.0018,2.9958,3.0289,3.056,3.0601,3.1229,3.173,3.1961,3.3149,3.3961,3.4137,3.4472,3.4674,3.4639,3.4414,0.0,3.4245,3.4049,3.3451,3.2495,3.2353,3.1349,2.9491,0.0,0.0,2.739,2.7731,2.7385,2.6371,2.6201,2.6054,2.596,2.596,2.555,2.4854,2.4332,2.3787,2.3403,2.3382,2.2567,2.1628,0.8165,0.913,0.9925,1.0428,1.1086,1.1555,1.1679,1.2018,1.2384,1.2745,1.3226,1.3663,1.4107,1.4398,1.4582,1.472,1.4892,1.5188,1.5649,1.5717,1.5914,1.6236,1.6234,1.6493,1.6909,1.7155,1.7155,1.6931,1.7088,1.6853,1.6228,1.6255,1.5979,1.541,1.5264,1.4914,1.4469,1.4195,1.3768,1.3174,1.2634,1.2458,1.265,1.3416,1.3837,1.4025,1.4145,1.4341,1.4529,1.4824,1.5059,1.5196,1.5592,1.6134,1.6596,0.0,0.0,0.0,0.0,0.0,0.0,0.0,0.0,0.0,0.0,0.0,0.0,0.0,0.0,2.6377,2.6819,0.0,2.8234,2.8139,2.9189,2.9973,2.9912,3.0618,3.115,3.1152,3.148,3.1977,3.2685,3.3427,3.397,3.4273,3.4416,3.4489,3.4489,3.3776,3.335,3.335,3.2657,3.2002,3.1403,3.1219,3.0194,2.8451,2.9198,2.8389,2.6283,2.7004,2.6799,2.5783,2.5783,2.5301,2.4446,2.3929,2.3285,2.2566,2.2274,2.2274,2.2506,2.253,2.1892,2.1187,0.6943,0.7717,0.8598,0.9435,1.0219,1.0638,1.0525,1.1034,1.1516,1.1516,1.2092,1.2638,1.3218,1.3542,1.3732,1.3931,1.4236,1.4525,1.4777,1.4733,1.4814,1.5171,1.5553,1.5917,1.6254,1.6698,1.6684,1.6275,1.6275,1.6036,1.5575,1.5167,1.4991,1.4864,1.3983,1.3614,1.3666,1.307,1.2512,1.202,1.1524,1.1351,1.149,1.2626,1.3295,1.3674,1.3734,1.3923,1.4172,1.4291,1.4469,1.4775,1.4893,1.5602,1.6332,1.6386,1.7208,0.0,0.0,0.0,0.0,0.0,0.0,0.0,0.0,0.0,2.4301,2.4756,2.5657,2.6454,2.6624,2.7447,2.8085,2.8031,2.9031,2.9823,2.9924,3.0969,3.1736,3.1838,3.1921,3.2382,3.3422,3.3544,3.3738,3.4203,3.3994,3.3854,3.388,3.2793,3.2168,3.2168,3.1179,3.0416,2.9863,2.9662,2.8677,2.6991,2.7538,2.685,2.5159,2.5647,2.5577,2.501,2.5024,2.423,2.2813,2.1942,2.1096,2.0402,2.0599,2.1081,2.1702,2.1631,2.1255,2.0741,0.5432,0.5626,0.631,0.8165,0.8913,0.9346,0.9665,1.01,1.0415,1.0517,1.0914,1.1458,1.212,1.2404,1.2861,1.3563,1.3884,1.3978,1.38,1.3757,1.3841,1.4094,1.4499,1.4827,1.4972,1.5377,1.5459,1.5089,1.5089,1.4855,1.4392,1.4332,1.3965,1.3252,1.313,1.294,1.2634,1.2282,1.1717,1.1142,1.1421,1.1178,1.0611,1.0793,1.1483,1.2305,1.2305,1.2552,1.292,1.345,1.3812,1.424,1.4942,1.5671,1.6373,1.6781,1.7326,1.7792,1.8015,1.8535,1.8942,1.8597,1.9469,2.0458,0.0,0.0,2.3522,2.4166,2.4987,2.5819,2.6488,2.6852,2.7385,2.8354,2.9037,2.959,3.0013,3.1012,3.1854,3.2266,3.3156,3.37,3.3591,3.4112,3.4423,3.4308,3.3231,3.2639,3.2683,3.1672,3.1083,3.1083,3.0946,2.9707,2.7263,2.7182,2.5885,2.336,2.3633,2.3379,2.2706,2.2922,2.2744,2.216,2.2183,2.2049,2.1834,2.1574,2.1116,2.0603,2.0091,1.9515,1.9081,1.9965,1.9901,1.9518,0.4874,0.4874,0.5159,0.599,0.7052,0.7788,0.7852,0.8184,0.8633,0.9134,0.9311,0.9776,1.0712,1.0965,1.1208,1.1787,1.2043,1.2297,1.2764,1.2511,1.2613,1.3314,1.3384,1.3509,1.3677,1.4459,1.4427,1.3622,1.3939,1.3708,1.2923,1.2923,1.281,1.2573,1.1764,1.1392,1.1267,1.0325,0.9818,0.9621,0.9576,0.9646,0.9767,0.9448,1.0021,1.1038,1.1038,1.1296,0.0,1.229,1.2842,1.339,1.4043,1.4628,1.5216,1.5843,1.665,1.7404,1.8172,1.8534,1.8639,1.8459,1.943,2.0593,2.0973,2.2466,2.3937,2.4427,2.5227,2.6052,2.6657,2.697,2.7437,0.0,2.8938,2.9444,2.9756,3.1133,3.2108,3.2119,3.2845,3.3245,3.2941,3.2697,3.2491,3.2293,3.1812,3.1546,3.1565,2.9716,2.8637,2.8637,2.7119,2.5767,2.4614,2.4734,2.406,2.2541,2.3203,2.2958,2.1957,2.2428,2.2274,2.1625,2.0941,2.0589,2.0438,2.0367,1.99,1.9146,1.9603,1.9308,1.8586,1.9142,1.9022,1.8741,0.4089,0.4092,0.4089,0.418,0.5149,0.5949,0.6155,0.6536,0.7053,0.7611,0.7759,0.8224,0.9214,0.9422,0.9725,1.0163,1.0281,1.0695,1.1566,1.1216,1.1345,1.2059,1.2,1.1976,1.1996,1.2831,1.2772,1.1897,1.2432,1.2243,1.1454,1.1447,1.1447,1.1322,1.0255,0.9818,0.9812,0.8871,0.835,0.8151,0.8296,0.8479,0.872,0.8549,0.9064,0.9824,1.0212,1.0598,1.1052,1.1428,1.1981,1.2589,1.2895,1.3433,1.4076,1.4805,1.5813,1.6925,1.7907,1.8113,1.8108,1.8274,1.9245,2.0289,2.0779,2.2454,2.3926,2.4117,2.5217,2.628,2.659,2.7109,2.7703,2.8456,2.8951,2.9332,2.9671,3.0503,3.0982,3.0678,3.0586,3.0432,3.0176,3.0721,3.1014,3.0842,3.0194,2.9807,2.9832,2.7374,2.5973,2.5973,2.4059,2.2871,2.242,2.1922,2.1221,2.0272,2.0345,1.9848,1.8909,1.939,1.9387,1.8902,1.8063,1.7734,1.7769,1.761,1.752,1.7541,1.8302,1.8424,1.8313,1.8604,1.8508,1.8488,0.2729,0.2773,0.2862,0.317,0.3262,0.3708,0.4877,0.5628,0.6047,0.6056,0.64,0.6902,0.7522,0.8022,0.8586,0.9075,0.9134,0.9408,1.0012,1.0064,1.0072,1.0079,1.0212,1.0122,0.9776,1.0124,1.0127,0.9778,1.0312,1.0388,1.0078,1.0059,0.9742,0.9052,0.8726,0.8463,0.8275,0.8415,0.7767,0.6846,0.8533,0.8458,0.7353,0.8156,0.8554,0.8678,0.9888,1.0598,1.0982,1.1045,1.1358,1.1802,1.1864,1.2512,1.3339,1.3897,1.5138,1.6472,1.709,1.7246,1.7401,1.7961,1.8447,1.898,1.9658,2.1492,2.2937,2.2565,2.4571,2.6333,2.6064,2.7031,2.8178,2.9119,2.9118,2.924,2.9902,2.8738,2.7736,2.7483,2.5728,2.4526,0.0,2.849,3.1059,3.0908,2.8503,2.7052,2.7119,2.4723,2.3309,2.3309,2.3264,2.2493,2.0973,1.8569,1.6625,1.5109,1.2949,1.1873,1.1804,1.2064,1.2099,1.2105,1.2021,1.2469,1.3104,1.2596,1.3874,1.6016,1.5606,1.6332,1.7605,1.8139,1.8421,1.8663,0.1611,0.1655,0.1655,0.1789,0.1787,0.1928,0.2359,0.323,0.4048,0.4773,0.5045,0.0,0.0,0.0,0.0,0.0,0.6367,0.6679,0.7248,0.7588,0.7917,0.8285,0.8553,0.8371,0.7773,0.8211,0.7993,0.7097,0.7845,0.7964,0.7613,0.7812,0.7678,0.7274,0.6628,0.6302,0.6106,0.572,0.5335,0.514,0.5851,0.5986,0.5866,0.626,0.6384,0.6441,0.0,0.7812,0.8672,0.9052,0.9488,0.999,1.0299,1.0864,1.168,1.2882,1.4022,1.4925,1.5274,1.5332,1.5438,1.5904,1.686,1.787,1.879,2.0973,2.276,2.264,2.4436,2.6054,2.6007,2.7083,2.8127,2.8612,2.8932,2.8729,2.7577,2.7428,2.685,2.5325,2.4457,0.0,0.0,0.0,0.0,2.5767,2.494,2.4422,2.4477,2.2543,2.0811,1.9336,1.9879,1.8438,1.4848,1.5922,1.5325,1.2836,1.2046,1.1672,1.1672,1.1763,1.1803,1.1803,1.1803,1.1905,1.2018,1.2367,1.289,1.3503,1.3613,1.4407,1.5413,1.6064,1.6733,1.7465,0.0,0.0714,0.067,0.0579,0.0535,0.0,0.0,0.0,0.0,0.0,0.0,0.0,0.0,0.0,0.0,0.0,0.0,0.3436,0.4126,0.4456,0.4892,0.5436,0.5556,0.5408,0.5035,0.5253,0.5049,0.4305,0.5078,0.531,0.5032,0.5294,0.5325,0.5107,0.4593,0.44,0.44,0.4013,0.3685,0.3549,0.3944,0.4077,0.401,0.4472,0.4599,0.0,0.48,0.5332,0.6056,0.6963,0.7538,0.7981,0.8617,0.9527,1.0557,1.1643,1.2485,1.3159,1.3485,1.3673,1.3972,1.4517,1.5676,1.6881,1.7804,2.0174,2.2161,2.1848,2.4051,2.5971,2.5878,2.7214,2.8484,2.8843,2.9247,2.8762,2.6571,2.6023,2.47,2.1665,2.0632,2.0257,0.0,0.0,0.0,2.285,2.1861,2.1124,2.1124,1.8731,1.6691,1.5249,1.5848,1.4704,1.1845,1.2903,1.2044,0.9349,0.9307,0.928,0.928,0.8837,0.8656,0.857,0.8209,0.839,0.8849,0.9461,1.0424,1.1395,1.1753,1.2868,1.4316,1.4726,1.5418,1.6472,0.0,0.0,-0.0222,0.0,0.0,0.0,0.0,0.0,0.0,0.0,0.0,0.0,0.0,0.0,0.0,0.0,0.0,0.0,0.0809,0.0917,0.1189,0.174,0.1475,0.1424,0.1589,0.1474,0.1386,0.1388,0.208,0.2393,0.2411,0.2538,0.2647,0.2664,0.2538,0.2609,0.2878,0.308,0.2679,0.1942,0.2874,0.2604,0.1871,0.2867,0.3133,0.3006,0.3207,0.3145,0.328,0.4926,0.5574,0.5898,0.6824,0.8382,0.9857,1.004,1.058,1.1312,1.172,1.2158,1.2769,1.3673,1.4817,1.5823,1.6588,1.9064,2.1023,2.0293,2.3293,2.5961,0.0,0.0,2.8868,2.9295,2.9435,2.8625,2.619,2.3968,2.0988,0.0,0.0,0.0,0.0,0.0,0.0,2.168,0.0,1.7119,1.7119,1.3527,1.143,1.1357,1.1652,1.1775,1.1648,0.9403,0.7107,0.4921,0.4746,0.4572,0.448,0.3315,0.2867,0.2777,0.179,0.2324,0.3838,0.437,0.6562,0.9616,0.9889,1.1599,1.3975,1.3898,1.4427,1.5636,0.0,0.0,0.0,0.0,0.0,0.0,0.0,0.0,0.0,0.0,0.0,0.0,0.0,0.0,0.0,0.0,0.0,0.0,-0.2338,-0.1898,-0.1571,-0.141,-0.1083,-0.1084,-0.1467,-0.1536,-0.1621,-0.1842,-0.1333,-0.0889,-0.043,-0.0251,-0.0191,-0.0258,-0.0855,-0.1128,-0.1196,-0.1263,-0.133,-0.1397,-0.0799,-0.0532,-0.04,0.0067,0.0133,-0.0067,0.0334,0.0469,0.0804,0.3074,0.4209,0.4872,0.5917,0.6706,0.7428,0.813,0.8506,0.882,0.966,0.9983,1.0299,1.1267,1.2448,1.3714,1.4723,1.7016,1.9154,2.018,2.2283,2.4343,0.0,0.0,0.0,2.3645,2.2172,0.0,1.6103,1.5143,0.0,1.2006,0.0,1.1138,1.1211,1.0985,0.0,0.0,1.323,1.2849,1.2991,1.2044,1.0771,0.9165,1.2171,1.1611,0.7073,0.6602,0.5518,0.3762,0.3494,0.2955,0.2237,0.1879,0.179,0.179,0.1522,0.161,0.2146,0.3482,0.4368,0.5068,0.6943,0.8345,0.9447,1.1343,1.2559,1.3691,0.0,0.0,0.0,0.0,0.0,0.0,0.0,0.0,0.0,0.0,0.0,0.0,0.0,0.0,0.0,0.0,0.0,0.0,0.0,-0.4861,-0.453,-0.4263,-0.3923,-0.392,-0.4152,-0.4206,-0.4252,-0.4406,-0.4333,-0.4008,-0.3382,-0.3425,-0.3297,-0.2927,-0.3266,-0.3443,-0.3387,-0.3368,-0.3321,0.0,0.0,-0.2466,-0.2203,-0.1805,-0.1871,-0.2135,-0.1272,-0.0872,-0.0538,0.1139,0.2277,0.328,0.427,0.4797,0.5127,0.5774,0.6171,0.6567,0.7279,0.7867,0.8522,0.9238,1.058,1.1959,1.2687,1.5345,1.7966,1.9101,2.1882,2.4553,2.6069,2.4492,2.2734,0.0,0.0,0.0,1.2498,1.2159,1.1359,0.0,0.8489,0.0,0.9265,0.7961,0.812,0.0,1.0576,1.0387,1.0535,0.934,0.8116,0.6924,0.9105,0.8379,0.4323,0.3984,0.3403,0.2415,0.1605,0.1338,0.1522,0.0178,-0.0,0.0806,0.0,0.0448,0.0895,0.2144,0.3035,0.3662,0.5001,0.6239,0.7376,0.8935,1.0317,1.1701,0.0,0.0,0.0,0.0,0.0,0.0,0.0,0.0,0.0,0.0,-0.5901,-0.6597,0.0,0.0,0.0,0.0,0.0,0.0,0.0,0.0,-0.754,-0.6993,-0.694,-0.6886,-0.6666,-0.6714,-0.6714,-0.6612,-0.702,-0.6895,-0.6196,-0.6585,-0.6226,-0.5288,-0.5384,-0.5282,-0.4938,-0.4874,-0.4813,-0.4776,-0.438,-0.4196,-0.4079,0.0,-0.3542,-0.3796,-0.2473,-0.181,-0.1477,-0.0671,0.0403,0.1608,0.2412,0.2876,0.3074,0.3403,0.3936,0.4532,0.4926,0.5909,0.6954,0.7474,0.8862,1.0177,1.076,1.365,1.6414,1.7306,2.0885,2.4405,2.6058,2.3743,2.1604,2.1721,0.0,1.3216,1.1047,1.0684,0.9538,0.6523,0.5601,0.5784,0.7206,0.4208,0.43,0.9402,0.7451,0.6784,0.833,0.6009,0.4775,0.4986,0.3066,0.0492,-0.2749,-0.1915,-0.1718,-0.2285,-0.3737,-0.2887,-0.0341,-0.3533,-0.3878,-0.1794,0.0,0.0,-0.1286,0.0265,0.1875,0.3304,0.3482,0.4634,0.6228,0.675,0.8142,0.9966,0.0,0.0,0.0,0.0,0.0,0.0,0.0,0.0,0.0,0.0,-0.8714,-0.8989,0.0,0.0,0.0,0.0,0.0,0.0,0.0,0.0,0.0,-0.9879,-0.9879,-0.9577,-0.902,-0.9422,-0.9363,-0.8698,-0.9214,-0.9072,-0.8368,-0.8597,-0.8231,-0.7435,-0.8363,-0.8664,-0.8449,-0.8845,-0.8998,-0.8896,-0.8302,-0.7792,-0.7293,-0.6645,0.0,0.0,-0.453,-0.4071,-0.3811,-0.1674,-0.0268,0.067,0.1343,0.1812,0.2144,0.2345,0.2479,0.2744,0.36,0.4392,0.5183,0.5963,0.6412,0.7242,0.9554,1.0568,1.1773,1.462,1.6211,1.8611,2.3211,2.1747,1.9027,1.6568,1.2531,0.792,0.2865,0.12,0.0974,0.0,0.2126,0.2341,0.3047,0.2741,0.0,0.0,0.0,0.0,0.3163,0.3203,0.3601,0.4946,-0.7061,-1.9673,-3.2354,-2.1691,-1.811,-2.1654,-2.1925,-1.8105,-1.0892,-1.4926,-1.4664,-1.0912,0.0,0.0,-0.8197,-0.2228,-0.0,-0.009,0.1519,0.2411,0.2946,0.5326,0.726,0.9022,0.0,0.0,0.0,0.0,0.0,0.0,0.0,-1.014,-1.0922,-1.163,-1.1978,-1.1773,-1.0671,-1.0906,-1.1197,0.0,0.0,0.0,0.0,0.0,0.0,-1.114,-1.104,-1.0754,-1.0115,-1.0312,-1.021,-0.985,0.0,-1.0372,-0.9791,-1.0366,-1.0219,-0.9525,-1.0228,-1.0465,-1.0294,-1.0799,-1.0852,-1.0574,-1.0325,-0.9693,-0.8826,0.0,0.0,0.0,-0.682,-0.611,-0.5266,-0.3732,-0.2603,-0.1672,-0.0268,0.0134,0.0067,-0.0067,0.0402,0.1138,0.167,0.2336,0.3137,0.4466,0.4524,0.4835,0.6928,0.7843,0.8696,1.0573,1.303,1.5706,1.8533,1.4841,1.0842,0.9369,0.3722,-0.1297,-0.3737,-0.3636,-0.2443,-0.0217,-0.113,-0.1551,0.0,-0.3313,0.0,0.0,0.0,0.0,-0.6974,-0.7427,-0.7784,-0.7577,-1.4562,-2.5144,-3.9284,-2.8557,-2.4107,-2.6155,-2.5011,-2.1738,-1.6828,-1.9862,-1.9557,-1.6625,0.0,0.0,-1.4769,-0.8156,-0.5396,-0.4861,-0.1108,0.0626,0.1253,0.3118,0.4617,0.6107,0.0,0.0,0.0,0.0,0.0,0.0,-1.1346,-1.2451,-1.3496,-1.4251,-1.478,-1.4461,-1.2752,-1.2809,-1.2914,0.0,0.0,0.0,0.0,0.0,0.0,0.0,0.0,0.0,0.0,0.0,0.0,0.0,-1.1543,0.0,0.0,0.0,0.0,0.0,-1.1764,-1.1887,-1.179,-1.2103,-1.2077,0.0,0.0,-1.1178,0.0,0.0,0.0,0.0,0.0,-0.7947,-0.6645,-0.5782,-0.5061,-0.4273,-0.2474,-0.1878,-0.1882,-0.2082,-0.134,-0.0402,-0.0268,0.0201,0.0936,0.241,0.2335,0.2326,0.4196,0.5223,0.5939,0.6701,0.9638,1.2278,1.3047,0.8422,0.4121,0.3012,-0.3064,-0.796,-0.8881,-0.7824,-0.6237,0.0,-0.6045,0.0,-0.5789,0.0,0.0,0.0,0.0,0.0,0.0,-2.0422,-2.1622,-2.2811,-2.2937,-2.813,-3.8855,-3.2145,-2.8679,-2.8597,-2.6862,-2.4737,-2.2467,-2.4816,-2.4582,-2.2267,0.0,0.0,0.0,-1.4955,-1.1469,-0.9524,-0.4994,-0.2056,-0.0358,0.0894,0.2228,0.3726,0.0,0.0,0.0,0.0,0.0,0.0,-1.3162,-1.4325,-1.5296,-1.5414,-1.6217,-1.6699,-1.6507,-1.5719,-1.5004,0.0,0.0,0.0,0.0,0.0,0.0,0.0,0.0,0.0,0.0,0.0,0.0,0.0,0.0,0.0,0.0,0.0,0.0,0.0,0.0,0.0,-1.3651,-1.37,0.0,0.0,0.0,0.0,0.0,0.0,0.0,0.0,0.0,-0.939,-0.8742,-0.7228,-0.6567,-0.6237,-0.565,-0.414,-0.2552,-0.2417,-0.2147,-0.1878,-0.1878,-0.1803,-0.153,-0.0602,-0.0935,-0.0665,0.2394,0.2652,0.2706,0.4208,0.4819,0.5571,0.708,0.6815,0.4807,0.0123,-0.2469,-0.6022,-1.2118,-1.4004,-1.4695,-1.4565,0.0,0.0,-1.4672,0.0,0.0,0.0,0.0,0.0,0.0,-3.281,-3.3377,-3.4929,-3.5353,-3.6591,-3.8807,-3.8147,-3.7662,-3.7436,-3.7224,-3.4876,-3.0831,-3.479,-3.4321,-3.0335,0.0,0.0,0.0,-2.1191,-1.653,-1.3024,-1.0816,-0.7271,-0.3201,-0.0713,0.1602,0.3728,0.0,0.0,0.0,0.0,0.0,0.0,-1.5057,-1.5892,-1.6637,-1.7207,-1.7818,-1.8218,-1.826,-1.8087,-1.7571,-1.6625,-1.6777,0.0,0.0,0.0,0.0,0.0,0.0,0.0,0.0,0.0,-1.3815,-1.3616,0.0,0.0,0.0,0.0,0.0,0.0,0.0,0.0,0.0,0.0,0.0,0.0,0.0,0.0,0.0,0.0,0.0,0.0,0.0,0.0,-0.9888,-0.9151,-0.8506,-0.7926,-0.7418,-0.6628,-0.5709,-0.4998,-0.4535,-0.4066,-0.3407,-0.3272,-0.2933,-0.1733,-0.1936,-0.1938,-0.0199,0.0067,0.0,0.0266,0.1392,0.2138,0.1566,-0.0571,-0.3219,-0.5984,-0.899,-1.2238,-1.5823,-1.5777,-1.562,-1.6238,-1.744,0.0,0.0,0.0,0.0,0.0,0.0,0.0,0.0,-3.4008,-3.4379,-3.501,-3.5592,-3.6255,-3.7039,-3.7503,-3.7789,-3.7911,-3.7344,-3.6443,-3.5254,-3.5936,-3.5473,-3.411,0.0,0.0,0.0,-2.7231,-2.4068,-2.1994,-1.5177,-1.0732,-0.7588,-0.3718,-0.089,0.1516,0.0,0.0,0.0,0.0,0.0,-1.5716,-1.6899,-1.7492,-1.8101,-1.8979,-1.9259,-1.9456,-1.9588,-1.9823,-1.9636,-1.8783,-1.8405,0.0,0.0,0.0,0.0,0.0,0.0,0.0,0.0,0.0,-1.4617,-1.4698,-1.4549,-1.4538,0.0,0.0,0.0,0.0,0.0,0.0,0.0,0.0,0.0,0.0,0.0,0.0,0.0,0.0,0.0,0.0,0.0,0.0,0.0,0.0,0.0,-0.9539,-0.9041,-0.8715,-0.8264,-0.7042,-0.6318,-0.5654,-0.4929,-0.474,-0.4472,-0.3392,-0.3403,-0.3478,-0.2462,-0.2134,-0.2075,-0.2281,-0.1399,-0.1189,-0.3142,-0.6258,-0.921,-1.1492,-1.4255,-1.6897,-1.9153,-1.8225,-1.7912,0.0,0.0,0.0,0.0,0.0,0.0,0.0,0.0,0.0,0.0,-3.3071,-3.3517,-3.4028,-3.4454,-3.5084,-3.5966,-3.64,-3.6864,-3.7358,-3.6499,-3.6458,-3.7061,-3.5754,-3.5362,0.0,0.0,0.0,0.0,-3.2177,-3.01,-2.8264,-2.0972,-1.5777,-1.1874,-0.7529,-0.4032,-0.0893,0.0,0.0,0.0,0.0,0.0,-1.8282,-1.8597,-1.9246,-1.996,-2.0695,-2.0481,-2.0398,-2.0761,-2.0844,-2.0893,-2.0861,-1.9788,0.0,0.0,0.0,0.0,0.0,0.0,0.0,-1.6786,-1.6269,-1.6076,-1.6269,-1.6157,-1.6318,-1.6744,-1.6582,-1.6595,0.0,0.0,0.0,0.0,0.0,0.0,0.0,0.0,0.0,0.0,0.0,0.0,0.0,0.0,0.0,0.0,0.0,0.0,0.0,0.0,-1.0281,-0.9652,-0.7887,-0.6911,-0.6396,-0.6396,-0.6396,-0.6334,-0.6141,-0.6075,-0.5672,-0.4066,-0.3666,-0.3471,-0.2817,-0.3602,-0.5038,-0.7006,-0.8361,-1.0739,-1.5369,-1.6284,-1.7781,-2.1863,-2.2498,-2.3643,0.0,0.0,0.0,0.0,0.0,0.0,0.0,0.0,0.0,0.0,0.0,-3.2354,-3.4128,-3.3942,-3.457,-3.6075,-3.5984,-3.6297,-3.7108,-3.6411,-3.6111,-3.6094,-3.5555,0.0,0.0,0.0,0.0,0.0,-3.5677,-3.3592,-2.9781,-2.8825,-2.3345,-1.5578,-1.2068,-0.7833,-0.3377,0.0,0.0,0.0,0.0,0.0,0.0,-1.9306,-1.9773,-2.012,-2.0361,-2.073,-2.0942,-2.0827,-2.1023,-2.1087,-2.0844,-2.0462,0.0,0.0,0.0,0.0,0.0,0.0,0.0,-1.749,-1.734,-1.7175,-1.7133,-1.7008,-1.6925,-1.6938,-1.7034,-1.7076,-1.7146,0.0,0.0,0.0,0.0,0.0,0.0,0.0,0.0,0.0,0.0,0.0,0.0,0.0,0.0,0.0,0.0,0.0,0.0,0.0,0.0,0.0,-0.9824,-0.9058,-0.8409,-0.7822,-0.7627,-0.7627,-0.7562,-0.7177,-0.6785,-0.6702,-0.5832,-0.4976,-0.4276,-0.4979,-0.6193,-0.7812,-0.9529,-1.1584,-1.4381,-1.5331,-1.6584,-1.9013,0.0,0.0,-2.4912,0.0,0.0,0.0,0.0,0.0,0.0,0.0,0.0,0.0,0.0,-3.1257,-3.1798,-3.2134,-3.2547,-3.3162,-3.3871,-3.4462,-3.4968,-3.4388,-3.4477,-3.5103,-3.379,0.0,0.0,0.0,0.0,0.0,-3.4742,-3.4697,-3.3821,-3.0712,-2.7499,-2.3803,-1.6934,-1.179,-0.7521,0.0,0.0,0.0,0.0,0.0,0.0,-2.023,-2.0361,-2.053,-2.0764,-2.1119,-2.1309,-2.1198,-2.1386,-2.1448,-2.1214,-2.1198,0.0,0.0,0.0,0.0,0.0,0.0,0.0,-1.8299,-1.8157,-1.7973,-1.7747,-1.7733,-1.7706,-1.7625,-1.7625,-1.7625,-1.7625,-1.7639,-1.7352,0.0,0.0,0.0,0.0,0.0,0.0,-1.6255,0.0,0.0,0.0,0.0,0.0,0.0,0.0,0.0,0.0,0.0,0.0,0.0,0.0,-1.0534,-1.0015,-0.8924,-0.8409,-0.8275,-0.8538,-0.8086,-0.7692,-0.8021,-0.7538,-0.6746,-0.5858,-0.6681,-0.7881,-0.8717,-1.0434,-1.2257,-1.4049,-1.507,-1.6306,0.0,0.0,0.0,0.0,0.0,0.0,0.0,0.0,0.0,0.0,0.0,0.0,0.0,0.0,-2.9978,-2.9968,-3.0839,-3.1474,-3.1884,-3.2779,-3.3491,-3.3963,-3.3448,-3.3633,-3.4431,0.0,0.0,0.0,0.0,0.0,0.0,-3.3641,-3.4378,-3.4806,-3.2625,-2.9692,-2.6001,-2.0042,-1.463,-0.9509,0.0,0.0,0.0,0.0,0.0,0.0,0.0,-2.1023,-2.1071,-2.1661,-2.157,-2.1509,-2.1751,-2.1869,-2.1882,-2.1882,-2.184,0.0,0.0,0.0,0.0,0.0,0.0,-1.9528,-1.9214,-1.8844,-1.8493,-1.8224,-1.8454,-1.8612,-1.8673,-1.84,-1.8268,-1.8228,-1.8069,-1.7625,0.0,0.0,0.0,0.0,-1.7709,-1.7698,0.0,0.0,0.0,0.0,0.0,0.0,0.0,0.0,0.0,0.0,0.0,0.0,0.0,0.0,0.0,0.0,0.0,-0.893,-0.8533,-0.9204,-0.8871,-0.8404,-0.8339,-0.8726,0.0,-0.7567,-0.865,-0.9799,-0.9793,-1.1142,-1.2765,-1.4378,-1.5418,-1.6736,0.0,-1.9799,0.0,0.0,0.0,0.0,0.0,0.0,0.0,0.0,0.0,0.0,0.0,0.0,0.0,-2.8685,-2.9962,-3.0999,-3.1759,-3.2353,-3.2994,-3.3707,-3.3249,-3.3323,-3.3882,0.0,0.0,0.0,0.0,0.0,0.0,-3.2517,-3.2882,-3.3367,-3.4315,-3.046,-2.4133,-2.209,-1.7003,-1.0439,0.0,0.0,0.0,0.0,0.0,0.0,0.0,0.0,0.0,0.0,-2.1587,-2.1738,-2.1781,-2.1811,-2.1811,0.0,0.0,0.0,0.0,0.0,0.0,0.0,-2.0745,-2.0413,-2.0246,-2.0128,-1.9864,-1.9332,-1.9406,-1.9161,-1.8711,-1.8851,-1.8836,-1.876,-1.8798,-1.8753,0.0,0.0,0.0,0.0,-1.9397,-1.912,0.0,0.0,0.0,0.0,-1.5918,-1.54,0.0,0.0,0.0,0.0,0.0,0.0,0.0,0.0,-1.2642,-1.2642,-1.164,0.0,-1.0155,-1.0104,-1.0351,-1.0471,0.0,-0.9958,-0.9875,-0.8796,-0.9633,-1.0584,-1.0836,-1.2212,-1.3717,-1.4855,-1.5575,-1.6322,-1.7368,0.0,0.0,0.0,0.0,0.0,0.0,0.0,0.0,0.0,0.0,0.0,0.0,0.0,0.0,-2.8685,-2.9042,-2.9289,-2.9464,-2.9863,-3.0373,-3.1013,-3.1183,-3.1506,-3.2074,0.0,0.0,0.0,0.0,0.0,-3.1306,-3.1564,-3.2109,-3.2829,-3.3403,-3.2966,-3.1583,-2.7889,-2.3184,-1.8016,0.0,0.0,0.0,0.0,0.0,0.0,0.0,0.0,0.0,0.0,-2.1708,-2.1797,-2.1797,-2.1797,-2.1797,0.0,0.0,0.0,0.0,0.0,0.0,-2.1526,-2.1055,-2.0712,-2.0548,-2.041,-2.003,-1.942,-1.9711,-1.9603,-1.9064,-1.9332,-1.9391,-1.9221,-1.9315,-1.9421,0.0,0.0,0.0,-2.01,-2.0367,0.0,0.0,0.0,0.0,0.0,-1.6946,-1.6213,0.0,-1.4709,-1.4305,-1.4007,0.0,0.0,0.0,0.0,-1.3017,-1.3329,-1.2451,-1.1655,-1.1052,-1.0975,-1.117,-1.124,-1.1045,-1.1226,-1.1212,-1.0445,-1.0968,-1.16,-1.1742,-1.2976,-1.4195,-1.4923,-1.5911,0.0,0.0,0.0,0.0,0.0,0.0,0.0,0.0,0.0,0.0,0.0,0.0,0.0,0.0,0.0,0.0,0.0,-2.7369,-2.7819,-2.8685,-2.9224,-2.9651,-2.9955,-3.0123,-3.0657,-3.1536,0.0,0.0,0.0,0.0,0.0,-3.1087,-3.0911,-3.0999,-3.127,-3.1468,-3.1021,-3.0019,-2.7651,-2.4598,-2.098,0.0,0.0,0.0,0.0,0.0,0.0,0.0,0.0,0.0,0.0,0.0,0.0,0.0,0.0,0.0,0.0,0.0,0.0,0.0,0.0,-2.1781,-2.1781,-2.123,-2.0811,-2.0581,-2.0342,-1.9889,-1.9273,-1.9889,-1.9995,-1.9551,-1.9808,-1.9889,-1.9809,-1.9854,-2.0076,-2.047,-2.0955,-2.1156,-2.114,-2.0944,0.0,0.0,0.0,0.0,0.0,0.0,0.0,0.0,-1.5921,-1.54,-1.4638,-1.4332,0.0,0.0,0.0,0.0,0.0,-1.3009,-1.2212,-1.167,-1.1834,-1.1717,-1.167,-1.1834,-1.2158,-1.2351,-1.1965,-1.2158,-1.2474,-1.2605,-1.3554,-1.4501,0.0,0.0,0.0,0.0,0.0,0.0,0.0,0.0,0.0,0.0,0.0,0.0,0.0,0.0,0.0,0.0,0.0,0.0,0.0,-2.5946,-2.6701,-2.8225,-2.8873,-2.9227,-2.93,-2.9182,-2.9817,-3.1013,-2.9705,0.0,0.0,0.0,0.0,-3.0406,-3.0072,-2.9676,-2.9247,-2.942,-2.7913,-2.5774,-2.576,-2.4407,-2.1801,0.0,0.0,0.0,0.0,0.0,0.0,0.0,0.0,0.0,0.0,0.0,0.0,0.0,0.0,0.0,0.0,0.0,0.0,0.0,-2.1738,-2.1724,-2.1724,-2.1634,-2.1324,-2.0861,-2.1071,-2.0812,-2.0035,-2.0478,-2.0361,-1.9752,-2.0035,-2.0411,-2.0877,-2.1007,-2.1542,-2.2337,-2.2126,-2.2211,-2.2512,-2.1636,0.0,0.0,0.0,0.0,0.0,0.0,0.0,0.0,-1.5718,-1.5497,-1.5323,-1.4638,0.0,0.0,0.0,0.0,0.0,-1.407,-1.358,-1.3017,-1.2512,-1.2704,-1.2834,-1.2336,-1.2266,-1.2336,-1.2351,-1.2212,-1.2328,-1.3017,-1.4154,-1.5089,0.0,0.0,0.0,0.0,0.0,0.0,0.0,0.0,0.0,0.0,0.0,0.0,0.0,0.0,0.0,0.0,0.0,0.0,0.0,0.0,-2.6573,-2.624,-2.6233,-2.6505,-2.7059,-2.6762,-2.7273,-2.8442,-2.8112,-2.8039,0.0,0.0,-2.6943,-2.6582,-2.7929,-2.7956,-2.738,-2.9032,-2.8941,-2.8009,-2.8937,-2.7356,-2.355,0.0,0.0,0.0,0.0,0.0,0.0,0.0,0.0,0.0,0.0,0.0,0.0,0.0,0.0,0.0,0.0,0.0,0.0,0.0,-2.1811,-2.1634,-2.1495,-2.145,-2.1277,-2.0893,-2.0763,-2.0496,-2.008,-2.0308,-2.0189,-1.9803,-2.0077,-2.0444,-2.0843,-2.1294,-2.1845,-2.2416,-2.2419,-2.231,-2.2063,0.0,0.0,0.0,0.0,0.0,0.0,0.0,0.0,0.0,0.0,-1.6425,-1.6104,-1.5362,0.0,0.0,0.0,0.0,0.0,-1.4547,-1.4359,-1.4043,-1.3795,-1.3563,-1.339,-1.326,-1.3199,-1.326,-1.3277,-1.3208,-1.3199,-1.358,0.0,-1.5439,-1.6404,0.0,0.0,0.0,0.0,0.0,0.0,0.0,0.0,0.0,0.0,0.0,0.0,0.0,0.0,0.0,0.0,0.0,0.0,0.0,0.0,-2.537,-2.5314,-2.5564,-2.6176,-2.5656,-2.6045,-2.7179,-2.6966,-2.7125,0.0,0.0,-2.6481,-2.6282,-2.6527,-2.6133,-2.5411,-2.6633,-2.7048,-2.7022,-2.7967,-2.6723,-2.3741,0.0,0.0,0.0,0.0,0.0,0.0,0.0,0.0,0.0,0.0,0.0,0.0,0.0,0.0,0.0,0.0,0.0,0.0,0.0,-2.1751,-2.1495,-2.1214,-2.1135,-2.099,-2.073,-2.0444,-2.0135,-1.9869,-2.0015,-2.0056,-1.9993,-2.0162,-2.0583,-2.1126,-2.1556,-2.1989,-2.2381,-2.2386,-2.2137,-2.1664,0.0,0.0,0.0,0.0,0.0,0.0,0.0,0.0,0.0,0.0,0.0,0.0,0.0,0.0,0.0,-1.5313,-1.5069,-1.4942,-1.4834,-1.4775,-1.4775,-1.4775,-1.4291,-1.3872,-1.4121,-1.413,-1.413,-1.413,-1.413,-1.4189,-1.4189,-1.4942,0.0,-1.7268,0.0,0.0,0.0,0.0,0.0,0.0,0.0,0.0,0.0,0.0,0.0,0.0,0.0,0.0,0.0,0.0,0.0,0.0,0.0,0.0,-2.5005,-2.4878,-2.5034,-2.5398,-2.4792,-2.4965,-2.5887,-2.551,-2.5833,-2.6628,-2.5832,-2.5497,-2.5424,-2.4989,-2.4352,-2.3543,-2.4339,-2.485,-2.5117,-2.5965,-2.5259,-2.3542,0.0,0.0,0.0,0.0,0.0,0.0,0.0,0.0,0.0,0.0,0.0,0.0,0.0,0.0,0.0,0.0,0.0,0.0,-2.1493,-2.1371,-2.1214,-2.0926,-2.0844,-2.0646,-2.0243,-2.0579,-2.0361,-1.9558,-1.9849,-2.0188,-2.0557,-2.0431,-2.1191,-2.26,-2.2064,-2.2331,-2.3157,-2.2235,-2.2137,-2.2463,-2.1996,0.0,0.0,0.0,0.0,0.0,0.0,0.0,0.0,0.0,0.0,0.0,0.0,0.0,-1.6171,-1.5931,-1.5816,-1.57,-1.5147,-1.497,-1.497,-1.497,-1.4784,-1.4588,-1.4647,-1.4529,-1.4469,-1.4469,-1.4529,-1.4656,-1.4656,-1.5738,-1.6877,0.0,0.0,0.0,0.0,0.0,0.0,0.0,0.0,0.0,0.0,0.0,0.0,0.0,0.0,0.0,0.0,0.0,0.0,0.0,0.0,0.0,-2.5005,-2.4593,-2.4292,-2.4234,-2.3852,-2.373,-2.3679,-2.3399,-2.3108,-2.298,-2.2852,-2.228,-2.1502,-2.2747,-2.2733,-2.2124,-2.3543,-2.3636,-2.3201,-2.4082,-2.4234,-2.3513,0.0,0.0,0.0,0.0,0.0,0.0,0.0,0.0,0.0,0.0,0.0,0.0,0.0,0.0,0.0,0.0,0.0,0.0,-2.146,-2.1214,-2.0974,-2.0761,-2.0662,-2.0494,-2.0289,-2.0478,-2.0444,-2.012,-2.0339,-2.0213,-1.9778,-2.0243,-2.0709,-2.1094,-2.0885,-2.1188,-2.1846,-2.1286,-2.1006,-2.0832,-2.0809,-2.0723,0.0,0.0,0.0,0.0,0.0,0.0,0.0,0.0,-1.8527,-1.8447,-1.8247,-1.8013,-1.7777,-1.7469,-1.735,-1.7191,-1.6698,-1.6769,-1.683,-1.6363,-1.6333,-1.6186,-1.5134,-1.4843,-1.4843,-1.4902,-1.4961,-1.502,-1.5128,0.0,-1.7246,0.0,0.0,0.0,0.0,0.0,0.0,0.0,0.0,0.0,0.0,0.0,0.0,0.0,0.0,0.0,0.0,0.0,0.0,0.0,0.0,0.0,0.0,-2.4408,-2.4047,-2.3458,-2.3446,-2.356,-2.385,-2.3592,-2.3347,-2.3114,-2.2889,-2.2118,-2.115,-2.0866,-2.0302,-1.9841,-2.1277,-2.1146,-2.0303,-2.1116,-2.1775,-2.1923,0.0,0.0,0.0,0.0,0.0,0.0,0.0,0.0,0.0,0.0,0.0,0.0,0.0,0.0,0.0,0.0,0.0,0.0,-2.1491,-2.1039,-2.0745,-2.0744,-2.0543,-2.0392,-2.0304,-2.0357,-2.0308,-2.017,-2.0078,-1.9979,-1.9809,-2.0198,-2.0395,-2.0489,-2.0476,-2.066,-2.1042,-2.0759,-2.0513,-2.0373,-2.0476,-2.0527,0.0,0.0,0.0,0.0,0.0,0.0,0.0,0.0,-1.9936,-1.9913,-1.9502,-1.9216,-1.8977,-1.8665,-1.8544,-1.8373,-1.7863,-1.7996,-1.8129,-1.7523,-1.7513,-1.7287,-1.6147,-1.5613,-1.5428,-1.5352,-1.5439,-1.5604,-1.5816,-1.6845,0.0,0.0,0.0,0.0,0.0,0.0,0.0,0.0,0.0,0.0,0.0,0.0,0.0,0.0,0.0,0.0,0.0,0.0,0.0,0.0,0.0,0.0,0.0,-2.42,-2.3989,-2.3374,-2.3255,-2.3327,-2.3424,-2.3121,-2.2793,-2.25,-2.2223,-2.1481,-2.0453,-1.9551,-1.8843,-1.8455,-1.9392,-1.8656,-1.7221,-1.8617,-1.8921,-1.8641,0.0,0.0,0.0,0.0,0.0,0.0,0.0,0.0,-2.2579,-2.2579,-2.2764,0.0,0.0,0.0,0.0,0.0,0.0,0.0,-2.1477,-2.0861,-2.0595,-2.0794,-2.046,-2.0304,-2.0304,-2.0166,-1.9854,-1.942,-1.8958,-1.9464,-2.09,-2.0361,-2.0515,-2.128,-2.1064,-2.1042,-2.1175,-2.0759,-2.1,-2.1563,-2.1237,-2.1199,-2.1238,0.0,0.0,0.0,0.0,0.0,0.0,0.0,-2.0815,-2.0286,-2.0517,-2.0135,-1.9499,-1.9287,-1.9216,-1.9097,-1.8484,-1.8484,-1.8605,-1.8362,-1.8078,-1.7853,-1.7853,-1.7002,-1.6198,-1.5771,-1.6019,-1.641,-1.6719,-1.7633,0.0,0.0,0.0,0.0,0.0,0.0,0.0,0.0,0.0,0.0,0.0,0.0,0.0,0.0,0.0,0.0,0.0,0.0,0.0,0.0,0.0,0.0,0.0,-2.3989,-2.415,-2.3962,-2.3374,-2.2677,-2.1925,-2.1588,-2.1071,-2.0388,-2.0331,-1.9785,-1.8863,-1.8812,-1.8554,-1.8175,-1.8175,-1.6494,-1.4306,-1.6843,-1.5844,-1.362,0.0,0.0,0.0,0.0,0.0,0.0,0.0,0.0,-2.2169,-2.2169,-2.2226,0.0,0.0,0.0,0.0,0.0,0.0,0.0,-2.0795,-2.0613,-2.0426,-2.0235,-2.0131,-2.0111,-2.0111,-2.0102,-2.0024,-1.987,-2.072,-2.0908,-2.0547,-2.0588,-2.0539,-2.0359,-2.0003,-1.9862,-1.9797,-2.0079,-2.0234,-2.034,-2.0637,-2.0927,-2.1131,0.0,0.0,0.0,0.0,0.0,0.0,0.0,0.0,0.0,-2.1632,-2.1595,-2.1351,-2.1032,-2.0981,-2.0846,-2.0375,-2.0512,-2.0648,-1.9935,-1.9745,-1.9604,-1.8953,-1.7833,-1.689,-1.6566,-1.6652,-1.6794,-1.6804,-1.76,0.0,0.0,0.0,0.0,0.0,0.0,0.0,0.0,0.0,0.0,0.0,0.0,0.0,0.0,0.0,0.0,0.0,0.0,0.0,0.0,0.0,0.0,0.0,0.0,-2.1967,-2.1728,-2.144,-2.1803,-2.2738,-2.2025,-2.1325,-2.0537,-2.0445,-1.9575,-1.8193,-1.7351,-1.672,-1.6294,-1.7006,-1.5512,-1.3141,-1.4558,-1.4223,-1.2978,0.0,0.0,0.0,0.0,0.0,0.0,0.0,0.0,-2.1998,-2.1998,-2.1998,-2.1998,0.0,0.0,0.0,0.0,0.0,0.0,-2.0877,-2.0444,-2.0204,-2.022,-2.0061,-2.0091,-2.0313,-2.0627,-2.0717,-2.0455,-2.1126,-2.1237,-2.0826,-2.0575,-2.022,-1.9733,-1.942,-1.9438,-1.9617,-1.9825,-2.0145,-2.0556,-2.072,-2.1019,-2.1389,0.0,0.0,0.0,0.0,0.0,0.0,0.0,0.0,0.0,-2.1975,-2.2123,-2.2185,-2.1999,-2.1949,-2.1812,-2.1526,-2.1675,-2.1749,-2.1094,-2.0892,-2.061,-1.9874,-1.8721,-1.7749,-1.7599,-1.7726,-1.7814,-1.7685,-1.8403,0.0,0.0,0.0,0.0,0.0,0.0,0.0,0.0,0.0,0.0,0.0,0.0,0.0,0.0,0.0,0.0,0.0,0.0,0.0,0.0,0.0,0.0,0.0,0.0,0.0,-2.0535,-2.0205,-2.0703,-2.1801,-2.1346,-2.0741,-1.9879,-1.9354,-1.8499,-1.752,-1.6714,-1.5961,-1.5397,-1.5905,-1.4282,-1.1673,-1.2674,-1.2192,-1.0884,0.0,0.0,-2.115,-2.1587,0.0,0.0,0.0,0.0,-2.1969,-2.1969,-2.1969,-2.1969,0.0,0.0,0.0,0.0,0.0,-2.1023,-2.1293,-2.0395,-2.003,-2.0413,-2.0212,-2.0358,-2.0956,-2.1559,-2.1612,-2.1164,-2.0707,-2.0779,-2.1376,-2.0396,-1.9784,-1.9473,-1.9324,-1.9617,-2.0177,-2.0055,-2.0604,-2.1571,-2.126,-2.1448,-2.1862,-2.1526,0.0,0.0,0.0,0.0,0.0,0.0,0.0,0.0,-2.1889,-2.2037,-2.2185,-2.2359,-2.2371,-2.2197,-2.1987,-2.2123,-2.2197,-2.1824,-2.1474,-2.1071,-2.0624,-1.9618,-1.8807,-1.8846,0.0,-1.916,-1.9,0.0,0.0,0.0,0.0,0.0,0.0,0.0,0.0,0.0,0.0,0.0,0.0,0.0,0.0,0.0,0.0,0.0,0.0,0.0,0.0,0.0,0.0,0.0,0.0,0.0,0.0,0.0,-1.949,-1.9403,-1.9716,-1.9951,-1.9596,-1.8767,-1.7706,-1.7107,-1.683,-1.6612,-1.5974,-1.5125,-1.4911,-1.291,-1.0236,-1.1248,-1.0069,-0.826,0.0,0.0,-2.0416,-2.1182,0.0,0.0,0.0,0.0,0.0,-2.184,-2.184,0.0,0.0,0.0,0.0,0.0,-2.1309,-2.1007,-2.0481,-2.0243,-2.005,-1.9889,-2.0324,-2.109,-2.2259,-2.1686,-2.1707,-2.2493,-2.1417,-2.0726,-2.0459,-2.0055,-1.9875,-1.9849,-1.997,-2.0067,-2.0226,-2.0913,-2.1293,-2.144,-2.1665,-2.1705,-2.1761,-2.1624,-2.1434,0.0,0.0,0.0,0.0,0.0,0.0,0.0,-2.2013,-2.2149,-2.2025,-2.2482,-2.2616,-2.2555,-2.2555,-2.2555,-2.2567,-2.2309,-2.1987,-2.1663,-2.1498,-2.1197,-2.0733,-1.9716,-1.9576,-1.9605,0.0,0.0,0.0,0.0,0.0,0.0,0.0,0.0,0.0,0.0,0.0,0.0,0.0,0.0,0.0,0.0,0.0,0.0,0.0,0.0,0.0,0.0,0.0,0.0,-1.9221,-1.9062,-1.8965,0.0,-1.8859,-1.862,-1.835,-1.9445,-1.9608,-1.8911,-1.7852,-1.7028,-1.6385,-1.6105,-1.5471,-1.4681,-1.441,-1.2959,-1.1055,-1.0443,-0.9732,-0.8744,0.0,0.0,0.0,0.0,0.0,0.0,0.0,0.0,0.0,0.0,0.0,0.0,0.0,0.0,0.0,0.0,-2.0747,-2.0465,-2.0089,-2.0197,-2.0362,-2.0466,-2.1252,-2.1843,-2.2203,-2.169,-2.162,-2.1988,-2.093,-2.0497,-2.056,-2.0169,-2.0117,-2.0355,-2.0258,-2.0459,-2.0986,-2.1328,-2.1608,-2.1813,-2.1954,-2.1999,-2.1949,-2.1761,-2.1572,-2.1423,-2.1158,0.0,0.0,0.0,0.0,0.0,0.0,0.0,-2.2211,-2.2616,-2.2739,-2.28,-2.28,-2.28,-2.2739,-2.2616,-2.2432,-2.2247,-2.2061,-2.2061,-2.1854,-2.1136,-2.083,0.0,0.0,0.0,0.0,0.0,0.0,0.0,0.0,0.0,0.0,0.0,0.0,0.0,0.0,0.0,0.0,0.0,0.0,0.0,0.0,0.0,0.0,0.0,0.0,0.0,-1.8893,-1.8435,-1.8283,-1.8439,-1.8098,-1.7943,-1.7942,-1.8635,-1.8774,-1.8426,-1.7561,-1.695,-1.6515,-1.5824,-1.4903,-1.3954,-1.3825,-1.2338,-1.0173,-0.9632,-0.8737,-0.7625,0.0,0.0,0.0,0.0,0.0,0.0,0.0,0.0,0.0,0.0,0.0,0.0,0.0,0.0,-2.0527,0.0,0.0,0.0,-2.014,-2.0399,-2.0843,-2.1477,-2.2162,-2.2319,-2.1873,-2.1695,-2.139,-2.0993,-2.0308,-2.0258,-2.0809,-2.0424,-2.0422,-2.0677,-2.0538,-2.1006,-2.1854,-2.1668,-2.1849,-2.2247,-2.2185,-2.2197,-2.2197,-2.1824,-2.1698,-2.1624,-2.136,-2.1031,-2.07,-2.07,0.0,0.0,0.0,0.0,-2.2099,-2.2482,-2.2653,-2.2775,-2.2909,-2.2909,-2.2909,-2.28,-2.2739,-2.2678,-2.2482,-2.242,-2.242,-2.242,-2.2123,0.0,0.0,0.0,0.0,0.0,0.0,0.0,0.0,0.0,0.0,0.0,0.0,0.0,0.0,0.0,0.0,0.0,0.0,0.0,0.0,0.0,0.0,0.0,0.0,-1.8815,-1.8744,-1.8073,-1.7843,-1.8201,-1.7512,-1.734,-1.7589,-1.7605,-1.7704,-1.773,-1.7071,-1.6624,-1.6339,-1.5517,-1.4258,-1.2945,-1.3164,-1.1607,-0.9226,-0.8978,-0.7923,-0.6556,0.0,0.0,0.0,0.0,0.0,0.0,0.0,0.0,0.0,0.0,-2.0581,-2.0548,0.0,-2.0514,-2.0578,-2.0822,-2.0883,-2.0993,-2.1114,0.0,0.0,-2.2295,-2.1902,-2.1915,-2.2565,-2.171,-2.1175,-2.0993,-2.0736,-2.0448,-2.0144,-2.0391,-2.0548,-2.0702,-2.1398,-2.179,-2.2067,-2.237,-2.2555,-2.2616,-2.2321,-2.2197,-2.2197,-2.1937,-2.1663,-2.1463,-2.1561,-2.1434,-2.1094,-2.1094,-2.07,0.0,0.0,0.0,-2.0613,-2.1803,-2.2175,-2.2298,-2.2944,-2.3078,-2.3017,-2.2909,-2.2848,-2.286,-2.2678,-2.2678,-2.2678,0.0,0.0,0.0,0.0,0.0,0.0,0.0,0.0,0.0,0.0,0.0,0.0,0.0,0.0,0.0,0.0,0.0,0.0,0.0,0.0,0.0,0.0,-2.0067,-1.9811,-1.8709,-1.8975,-1.8975,-1.8614,-1.8506,-1.8506,-1.8506,-1.7623,-1.6885,-1.6331,-1.6437,-1.6817,-1.7239,-1.6637,-1.5589,-1.4433,-1.4765,-1.3738,-1.1922,-1.215,-1.1403,-1.0132,-0.8751,-0.8143,-0.7613,0.0,0.0,0.0,0.0,0.0,0.0,0.0,0.0,0.0,0.0,0.0,-2.0294,0.0,-2.0376,-2.0679,-2.0843,-2.0912,-2.1127,-2.1651,-2.1497,-2.1643,-2.2291,-2.1931,-2.1709,-2.1752,-2.1321,-2.0894,-2.056,-2.0321,-2.0297,-2.0511,-2.0878,-2.1074,-2.1154,-2.1741,-2.2204,-2.2561,-2.264,-2.2616,-2.2555,-2.2371,-2.2049,-2.16,-2.18,-2.1537,-2.1019,-2.1411,-2.1411,-2.1221,-2.1221,-2.0967,-2.0764,-2.0816,0.0,0.0,0.0,-2.1667,-2.2237,-2.2944,-2.3078,-2.3078,-2.3017,-2.3017,-2.3017,-2.2969,-2.2909,-2.2909,0.0,0.0,0.0,0.0,0.0,0.0,0.0,0.0,0.0,0.0,0.0,0.0,0.0,0.0,0.0,0.0,0.0,0.0,0.0,0.0,0.0,-1.9512,-1.972,-1.9565,-1.8946,-1.9105,0.0,-1.8732,-1.8732,-1.8679,-1.8614,-1.7843,-1.7224,-1.6786,-1.6133,-1.6048,-1.6542,-1.5937,-1.5045,-1.4061,-1.3894,-1.2835,-1.1345,-1.1723,-1.0801,-0.9221,-0.8528,-0.7685,-0.6381,0.0,0.0,0.0,0.0,0.0,0.0,0.0,0.0,0.0,0.0,0.0,0.0,0.0,0.0,0.0,0.0,-2.0633,-2.0949,-2.1614,-2.1326,-2.136,-2.1811,-2.1531,-2.122,-2.0944,-2.0795,-2.056,-2.0131,-2.0168,-2.046,-2.0891,-2.1546,-2.175,-2.1719,-2.2168,-2.2583,-2.2909,-2.2604,-2.2408,-2.2223,-2.1963,-2.1514,-2.0933,-2.1273,-2.1019,-2.0518,-2.122,-2.1342,-2.1236,-2.1567,-2.1468,-2.1225,-2.0891,-2.0789,0.0,0.0,0.0,-2.199,-2.2689,-2.2884,-2.2884,-2.3138,-2.3198,-2.3198,-2.3198,0.0,-2.3198,0.0,0.0,0.0,0.0,0.0,0.0,0.0,0.0,0.0,0.0,0.0,0.0,0.0,0.0,0.0,0.0,0.0,0.0,0.0,0.0,0.0,-1.942,-1.942,-1.9368,-1.9275,-1.9223,-1.9117,-1.8905,-1.8732,-1.8452,-1.8061,-1.7611,-1.7157,-1.6832,-1.5816,-1.5478,-1.5737,-1.5205,-1.447,-1.3704,-1.3203,-1.2165,-1.0855,-1.1203,-1.0125,-0.8303,-0.8076,-0.6885,-0.4993,0.0,0.0,0.0,0.0,0.0,0.0,0.0,0.0,0.0,0.0,0.0,0.0,-2.0063,-1.9551,-1.9464,-2.0088,-2.0196,-2.0338,-2.0656,-2.0528,-2.0566,-2.079,-2.0214,0.0,-2.0795,-2.0321,-2.0042,-1.999,-2.0836,-2.1131,-2.0942,-2.2176,-2.256,-2.2297,-2.279,-2.3053,-2.3017,-2.2261,-2.1951,-2.1815,-2.0846,-2.0398,-2.0333,-2.0226,-2.0042,-2.0031,-2.1228,-2.1396,-2.1275,0.0,0.0,-2.1396,-2.133,-2.0808,-2.0226,0.0,0.0,0.0,-2.199,-2.2163,-2.2372,-2.3198,-2.3403,-2.3403,0.0,0.0,0.0,0.0,0.0,0.0,0.0,0.0,0.0,0.0,0.0,0.0,0.0,0.0,0.0,0.0,0.0,0.0,0.0,0.0,0.0,0.0,0.0,0.0,-1.942,-1.9512,-1.9512,-1.9368,-1.9368,-1.9328,-1.917,-1.8494,-1.7655,-1.6684,-1.6492,-1.5979,-1.5323,-1.5215,-1.5039,-1.4771,-1.4648,-1.3794,-1.252,-1.306,-1.2112,-1.0351,-1.0439,-0.9444,-0.7955,-0.7134,-0.5947,-0.4443,0.0,0.0,0.0,0.0,0.0,0.0,0.0,0.0,0.0,0.0,0.0,0.0,0.0,-1.8958,-1.9191,-1.9496,-1.9639,-1.9722,-1.9825,-1.9894,-1.9914,-1.9972,-1.9966,-2.0028,-2.0271,-2.0182,-2.0271,-2.06,-2.0909,-2.138,-2.1982,-2.2318,-2.2439,-2.2406,-2.2857,-2.2884,-2.2494,-2.2628,-2.2063,-2.1037,-2.1101,-2.0462,-1.9497,-1.9966,-1.9715,-1.9285,-2.0172,0.0,0.0,0.0,0.0,-2.2196,-2.2004,-2.1453,-2.0896,-2.0896,-2.0858,-2.0985,-2.1901,-2.1827,-2.1628,-2.242,-2.2714,-2.2823,-2.309,-2.339,0.0,0.0,0.0,0.0,0.0,0.0,0.0,0.0,0.0,0.0,0.0,0.0,0.0,0.0,0.0,0.0,0.0,0.0,0.0,0.0,0.0,0.0,-1.9656,-1.9408,-1.9133,-1.9028,-1.9028,-1.8762,-1.8224,-1.7995,-1.7667,-1.7279,-1.6842,-1.6389,-1.5864,-1.5128,-1.4538,-1.4189,-1.3656,-1.3029,-1.2296,-1.2058,-1.0995,-0.9542,-0.999,-0.8821,-0.6953,-0.6877,-0.5599,-0.3579,0.0,0.0,0.0,0.0,0.0,-1.8124,-1.793,-1.8442,-1.8656,-1.817,0.0,0.0,0.0,0.0,-1.853,-1.8618,-1.8892,-1.8955,-1.8821,-1.9087,-1.9265,-1.9326,-1.956,-1.9838,-2.0217,-2.0118,-2.0449,-2.117,-2.1237,-2.1708,-2.2553,-2.2439,-2.2332,-2.2298,-2.2616,-2.2494,-2.2101,-2.2237,-2.1761,-2.0815,-2.085,-2.0139,-1.9148,-1.9469,-1.9307,-1.9071,0.0,0.0,0.0,0.0,0.0,0.0,-2.2162,-2.1844,-2.1374,-2.1232,-2.0865,-2.0666,-2.16,-2.1463,-2.1262,-2.2049,-2.2347,-2.2445,-2.2763,0.0,0.0,0.0,0.0,0.0,0.0,0.0,0.0,0.0,0.0,0.0,0.0,0.0,0.0,0.0,0.0,0.0,0.0,0.0,0.0,0.0,0.0,0.0,-1.9214,-1.891,-1.8655,-1.859,-1.8536,-1.8213,-1.7545,-1.7446,-1.7224,-1.6933,-1.6503,-1.5979,-1.5507,-1.4706,-1.4121,-1.37,-1.2948,-1.2458,-1.2112,-1.1454,-1.0444,-0.9213,-0.9383,-0.8245,-0.6491,-0.6561,-0.5095,-0.2833,0.0,0.0,-1.718,-1.8084,-1.835,-1.8265,-1.7753,-1.8326,-1.8689,-1.8288,0.0,0.0,0.0,0.0,0.0,-1.7516,-1.8004,-1.8087,-1.7632,-1.8259,-1.8694,-1.8821,-1.8983,-1.9597,-2.0665,-2.0137,-2.0441,-2.1716,-2.1907,-2.2133,-2.2508,-2.2538,-2.2347,-2.2039,-2.2039,-2.2039,-2.1978,-2.1227,-2.0989,-2.1063,-1.9841,-1.9349,-1.9238,-1.8818,-1.8916,0.0,-2.0614,-2.0841,0.0,-2.1966,0.0,0.0,-2.1948,-2.1882,-2.1464,-2.1441,-2.0819,-2.0226,0.0,0.0,0.0,-2.2099,-2.2359,-2.2347,-2.2482,0.0,0.0,0.0,0.0,0.0,0.0,0.0,0.0,0.0,0.0,0.0,0.0,0.0,0.0,0.0,0.0,0.0,0.0,0.0,0.0,0.0,0.0,-1.8093,-1.8093,-1.8093,-1.8093,-1.8038,-1.7886,-1.7611,-1.7146,-1.6842,-1.6285,-1.5352,-1.5225,-1.4765,-1.401,-1.401,-1.37,-1.3208,-1.2512,-1.2027,-1.174,-1.1365,-1.0478,-0.921,-0.8683,-0.7702,-0.6527,-0.6253,-0.452,-0.2316,0.0,-1.676,-1.6786,-1.6729,-1.7195,-1.7363,-1.6839,-1.7276,-1.747,0.0,0.0,0.0,-1.6365,-1.6524,-1.6876,-1.7387,-1.7918,-1.8191,-1.8044,-1.9027,-1.9629,-1.967,-2.0158,-2.0612,-2.0921,-2.0994,-2.1312,-2.1981,-2.1724,-2.1807,-2.2201,-2.1732,-2.1239,-2.0666,-2.0666,-2.0666,-2.0752,-2.1812,-2.1667,-2.0693,-2.0488,-2.0102,-1.9486,-1.9223,0.0,0.0,0.0,-2.0156,-2.0798,0.0,-2.1478,-2.1807,0.0,-2.2254,-2.2252,-2.1898,-2.0951,-2.0161,-2.0624,0.0,0.0,0.0,0.0,0.0,-2.0737,-2.1106,0.0,0.0,0.0,0.0,0.0,0.0,0.0,0.0,0.0,0.0,0.0,0.0,0.0,0.0,0.0,0.0,0.0,0.0,0.0,0.0,-1.7699,-1.7644,-1.8093,-1.771,-1.7302,-1.6957,-1.6549,-1.6046,-1.5565,-1.5468,-1.5303,-1.5069,-1.501,-1.4834,-1.4478,-1.3812,-1.3139,-1.252,-1.1476,-1.0919,-1.08,-1.0225,-0.9518,-0.8683,-0.8301,-0.7166,-0.5751,-0.6144,-0.4751,-0.2609,-1.5946,-1.6008,-1.602,-1.6049,-1.6428,-1.6648,-1.6315,-1.6598,-1.6681,0.0,0.0,0.0,-1.623,-1.6732,-1.7101,-1.7186,-1.7679,-1.7966,-1.7966,-1.8904,-1.947,-1.947,-1.9912,-2.0229,-2.0441,-2.0485,-2.0852,-2.1535,-2.1188,-2.1221,-2.1678,-2.0985,-2.0484,-2.0096,-2.0096,-2.0216,-2.0501,-2.1708,-2.1722,-2.0812,-2.0849,-2.0566,-2.0103,-1.9693,-1.9658,0.0,0.0,0.0,-2.0621,-2.0621,-2.1019,0.0,0.0,0.0,-2.1967,-2.1766,-2.1052,-2.0413,-2.0756,-2.0313,-1.9791,-2.0237,0.0,0.0,-2.0193,-2.044,-2.0771,0.0,0.0,0.0,0.0,0.0,0.0,0.0,0.0,0.0,0.0,0.0,0.0,0.0,0.0,0.0,0.0,0.0,0.0,0.0,-1.7067,-1.7011,-1.7401,-1.6888,-1.6436,-1.6197,-1.5652,-1.5196,-1.4893,-1.4893,-1.4775,-1.4597,-1.4597,-1.4359,-1.3941,-1.3139,-1.2466,-1.1849,-1.0856,-1.0358,-1.0218,-0.9448,-0.8935,-0.8484,-0.7837,-0.6666,-0.5428,-0.5683,-0.4414,-0.2618,0.0,-1.506,-1.5205,-1.5636,-1.5829,-1.5925,-1.5887,-1.603,-1.6124,0.0,-1.6253,-1.655,-1.71,-1.765,-1.7756,-1.7073,-1.7629,-1.7958,-1.79,-1.8474,-1.8868,-1.8868,-1.8967,-1.9288,-1.9709,-1.9515,-1.9778,-2.0749,-2.0444,-2.0529,-2.0933,-2.0291,-1.9977,-1.9977,-2.002,-2.0291,-2.0725,-2.1268,-2.1355,-2.1144,-2.1034,-2.0905,0.0,0.0,-2.0225,-2.0566,-2.0566,-2.0498,-2.0342,-2.0342,-2.0566,0.0,0.0,0.0,0.0,0.0,-2.1025,-2.0708,-2.0902,-2.0744,-2.0506,-2.0442,0.0,0.0,-2.0183,-2.0042,-2.0031,0.0,0.0,0.0,0.0,0.0,0.0,0.0,0.0,0.0,0.0,0.0,0.0,0.0,0.0,0.0,0.0,0.0,-1.6374,-1.6316,-1.6316,-1.6316,-1.6259,-1.5914,-1.5672,-1.5556,-1.5079,-1.4775,-1.4775,-1.4647,-1.441,-1.4001,-1.4001,-1.358,-1.2789,-1.2228,-1.167,-1.1178,-1.0491,-1.0098,-0.9888,-0.9058,-0.8672,-0.8544,-0.7298,-0.6264,-0.5362,-0.4964,-0.3756,-0.2482,-1.5227,-1.5433,-1.5531,-1.4792,-1.4768,-1.4775,-1.475,-1.5049,-1.5371,-1.568,-1.5942,-1.6339,-1.6964,-1.7611,-1.7991,-1.7959,-1.9,-1.9482,-1.904,-1.9487,-1.9812,-1.9812,-1.9876,-1.992,-2.0008,-2.0228,-2.0336,-2.0386,-2.0245,-2.0127,-2.0031,-1.9518,-1.933,-1.9285,-1.9718,-1.9881,-2.0017,-2.0843,-2.1126,-2.1084,-2.1159,-2.1044,-2.0896,-2.0556,-2.0488,-2.0566,-2.0566,-2.0566,-2.0489,-2.0342,-2.0809,-2.1349,0.0,0.0,0.0,-2.1126,0.0,0.0,0.0,0.0,0.0,0.0,0.0,0.0,-1.8643,-1.8297,-1.8104,0.0,0.0,0.0,0.0,0.0,0.0,0.0,0.0,0.0,0.0,0.0,0.0,0.0,0.0,0.0,0.0,0.0,-1.6259,-1.5856,-1.5856,-1.5672,-1.5245,-1.5498,-1.5323,-1.4547,-1.4369,-1.4181,-1.3812,-1.3252,-1.294,-1.2818,-1.2818,-1.2451,-1.1834,-1.1911,-1.1476,-1.0465,-0.9901,-0.9646,-0.9518,-0.8823,-0.8436,-0.8166,-0.6793,-0.5881,-0.5362,-0.4827,-0.3823,-0.2618,-1.4024,-1.428,-1.4538,-1.4244,-1.4375,-1.4702,-1.5149,-1.5375,-1.5684,-1.6126,-1.6901,-1.754,-1.7964,-1.8309,-1.8417,-1.8148,-1.8708,-1.8919,-1.8658,-1.893,-1.9054,-1.9054,-1.9054,-1.9054,-1.9054,-1.9309,-1.9431,-1.9299,-1.9253,-1.9253,-1.932,-1.8942,-1.9065,-1.9495,-1.9734,-2.0017,-2.0472,-2.0917,-2.1174,-2.1261,-2.1268,0.0,-2.1051,-2.0722,-2.0566,-2.0566,-2.0566,-2.0566,-2.0566,-2.0489,-2.0654,0.0,0.0,-2.04,-2.049,0.0,-2.0091,-1.9666,0.0,0.0,0.0,-1.8844,0.0,0.0,0.0,-1.791,-1.7696,0.0,0.0,0.0,0.0,0.0,0.0,0.0,0.0,0.0,0.0,0.0,0.0,0.0,0.0,0.0,0.0,0.0,-1.5546,-1.5313,-1.5313,-1.5196,-1.4893,-1.4961,-1.4725,-1.4189,-1.3941,-1.3761,-1.3511,-1.2826,-1.2512,-1.2512,-1.2135,-1.1826,-1.1509,-1.1351,-1.0912,-1.0275,-0.9646,-0.9332,-0.9081,-0.8371,-0.7912,-0.7447,-0.647,-0.5617,-0.4824,-0.4428,-0.3623,-0.2619,-1.3085,-1.3405,-1.3792,-1.4048,-1.4371,-1.4849,-1.5682,-1.5879,-1.6188,-1.6758,-1.784,-1.856,-1.8699,-1.8827,-1.8654,-1.7998,-1.8076,-1.8144,-1.8008,-1.8008,-1.8008,-1.8008,-1.8008,-1.8008,-1.8008,-1.8212,-1.8269,-1.8269,-1.8337,-1.8512,-1.8795,-1.867,-1.9049,-1.9823,-1.9986,-2.0431,-2.1124,-2.1207,-2.1316,-2.1502,0.0,-2.1215,-2.1138,-2.0809,-2.0644,-2.0566,-2.0566,-2.0566,-2.0566,-2.0566,-2.0498,-2.0264,-1.9942,-1.9794,0.0,0.0,0.0,0.0,0.0,0.0,0.0,0.0,0.0,-1.7725,0.0,0.0,0.0,-1.7939,0.0,0.0,0.0,0.0,0.0,0.0,0.0,0.0,0.0,0.0,0.0,0.0,0.0,0.0,0.0,0.0,-1.4775,-1.4775,-1.4775,-1.4715,-1.4647,-1.4359,-1.413,-1.407,-1.37,-1.3442,-1.3321,-1.2634,-1.2258,-1.2081,-1.1578,-1.1267,-1.1087,-1.0667,-1.0351,-1.0091,-0.9524,-0.9145,-0.8829,-0.8102,-0.7381,-0.6793,-0.6141,-0.5216,-0.4287,-0.4028,-0.3424,-0.2618,-1.4313,-1.4742,-1.4945,-1.4545,-1.4464,-1.469,-1.5148,-1.551,-1.6076,-1.7052,-1.7309,-1.7444,-1.7658,-1.822,-1.8307,-1.7774,-1.8327,-1.8539,-1.8008,-1.8008,-1.8008,-1.8008,-1.8008,-1.8008,-1.8008,-1.8212,-1.8202,-1.8008,-1.8347,-1.8604,-1.8904,-1.9063,-1.9445,-2.0083,-2.0492,-2.0874,-2.1145,-2.1549,-2.1614,0.0,-2.1282,-2.1051,0.0,-2.0906,-2.0741,-2.0566,-2.0566,-2.0566,-2.0566,0.0,-2.0498,-2.0264,0.0,-1.9794,-1.9548,0.0,0.0,0.0,0.0,0.0,0.0,0.0,-1.7978,0.0,0.0,0.0,-1.6603,-1.6202,0.0,0.0,0.0,0.0,0.0,0.0,0.0,0.0,0.0,0.0,0.0,0.0,0.0,0.0,0.0,0.0,0.0,-1.4309,-1.4309,-1.4121,-1.3692,-1.4001,-1.4001,-1.3571,-1.3511,-1.3191,-1.2634,-1.195,-1.1337,-1.073,-1.0667,-1.0295,-0.9728,-1.0231,-1.0174,-0.9606,-0.9408,-0.9274,-0.921,-0.8306,-0.7451,-0.6588,-0.5613,-0.4821,-0.4223,-0.3761,-0.3226,-0.2552,-1.4689,-1.487,-1.5163,-1.5219,-1.5395,-1.5689,-1.6083,-1.6294,-1.6717,-1.7522,-1.7364,-1.7442,-1.8056,-1.8046,-1.7978,-1.7852,0.0,-1.831,0.0,0.0,-1.8486,-1.874,-1.875,-1.875,-1.875,-1.8821,-1.8821,-1.875,-1.8891,-1.9061,-1.932,-1.9402,-1.9837,-2.048,-2.0048,-2.0426,-2.1302,-2.1008,-2.1021,0.0,0.0,0.0,0.0,-2.0741,-2.0654,-2.0566,-2.0566,-2.0566,-2.0566,0.0,-2.0566,0.0,0.0,0.0,0.0,0.0,0.0,0.0,0.0,0.0,0.0,0.0,0.0,0.0,-1.6751,0.0,-1.6342,0.0,0.0,0.0,0.0,0.0,0.0,0.0,0.0,0.0,0.0,0.0,0.0,0.0,0.0,0.0,0.0,0.0,0.0,0.0,0.0,-1.313,-1.2948,-1.2757,-1.2573,-1.232,-1.232,-1.2197,-1.195,-1.1274,-1.0787,-1.0485,-1.011,-0.96,-0.8952,-0.96,-0.9536,-0.8888,-0.8882,-0.8753,-0.856,-0.7386,-0.6535,-0.6005,-0.5153,-0.4489,-0.3956,-0.3761,-0.3157,-0.2283,-1.5395,-1.5395,-1.5689,-1.5973,-1.6276,-1.6578,-1.6862,-1.6908,-1.7144,-1.787,-1.7612,-1.766,-1.8459,-1.827,0.0,-1.829,-1.829,-1.8486,0.0,0.0,-1.8955,-1.9277,-1.9287,0.0,-1.9287,-1.9287,-1.9287,-1.9287,-1.9287,-1.9429,-1.9703,-1.9703,-2.0078,-2.0787,-1.9764,-2.0014,-2.1185,0.0,-2.0294,-2.0809,-2.1041,-2.1051,-2.0819,-2.0654,-2.0566,-2.0566,-2.0566,-2.0566,-2.0566,-2.0566,-2.0566,0.0,-2.0098,0.0,0.0,0.0,0.0,0.0,-1.8394,0.0,0.0,0.0,0.0,0.0,0.0,0.0,0.0,0.0,0.0,0.0,0.0,0.0,0.0,-1.566,0.0,0.0,0.0,0.0,0.0,0.0,0.0,0.0,0.0,0.0,0.0,0.0,-1.2573,0.0,-1.2258,-1.1757,-1.1516,-1.1516,-1.1516,-1.1392,-1.1212,-1.073,-1.0295,-0.997,-0.9466,-0.8818,-0.8161,-0.8689,-0.8624,-0.8161,-0.8161,-0.8102,-0.7907,-0.6666,-0.6009,-0.5613,-0.4957,-0.4225,-0.3558,-0.3558,-0.3019,-0.208,-1.6835,-1.6835,-1.6853,-1.6862,-1.6881,-1.689,-1.6908,-1.6908,-1.7116,-1.7735,-1.7782,0.0,0.0,0.0,0.0,0.0,0.0,-1.9248,-1.9268,0.0,-1.9277,0.0,0.0,-1.9287,0.0,-1.9287,-1.9287,-1.9287,-1.9287,-1.9492,-1.9893,-1.9893,-2.0213,-2.0886,-1.9991,-1.9991,-2.0566,-1.9668,-1.9423,-1.9687,-2.0177,-2.0411,-2.0644,0.0,-2.0566,-2.0566,-2.0566,0.0,0.0,-2.0566,-2.0498,0.0,0.0,0.0,0.0,0.0,0.0,0.0,0.0,0.0,0.0,-1.7307,0.0,0.0,0.0,0.0,-1.607,0.0,0.0,0.0,0.0,0.0,-1.5677,-1.53,-1.5557,0.0,0.0,0.0,0.0,0.0,0.0,0.0,0.0,0.0,0.0,0.0,-1.1888,0.0,-1.1516,-1.1516,-1.1516,-1.1516,-1.1516,-1.1212,-1.0548,-1.0485,-0.9843,-0.8554,-0.8554,-0.8096,-0.7246,-0.7386,-0.7381,-0.7246,-0.7381,-0.7451,-0.7386,-0.6662,-0.6199,-0.5807,-0.509,-0.4092,-0.3023,-0.3023,-0.2753,-0.2079,-1.7715,-1.7715,-1.7541,-1.7,-1.6908,-1.6991,-1.7257,-1.7532,-1.7761,0.0,0.0,0.0,0.0,-1.8765,-1.8922,0.0,0.0,-1.9404,-1.9687,-1.9707,0.0,0.0,0.0,-2.0137,0.0,0.0,-2.0137,-2.0137,-2.0137,-2.0205,-2.0342,-2.0342,-2.0594,-2.0829,-1.9854,-1.9608,0.0,0.0,0.0,0.0,0.0,-1.9696,-1.9775,0.0,0.0,-2.0566,-2.0566,-2.0566,0.0,-2.0566,-2.0498,-2.0264,-2.0264,-1.9951,-1.9566,-1.9566,-1.9478,0.0,0.0,0.0,-1.7573,-1.7451,0.0,0.0,0.0,0.0,0.0,0.0,0.0,0.0,0.0,-1.4689,-1.4791,-1.4174,-1.4609,-1.4934,0.0,0.0,0.0,0.0,0.0,0.0,0.0,0.0,0.0,-1.1903,-1.1212,-1.085,0.0,-1.0415,-1.0161,-1.0161,-1.0161,-1.004,-0.9862,-0.9862,-0.9402,-0.849,-0.8361,-0.7642,-0.6465,-0.6859,-0.6859,-0.6465,-0.6535,-0.6597,-0.6662,-0.5474,-0.4815,-0.442,-0.3689,-0.3019,-0.2417,-0.2686,-0.2014,-0.0671,-1.8128,-1.8128,-1.7963,-1.7431,-1.7339,-1.7422,-1.7678,-1.7954,0.0,0.0,-1.8405,0.0,-1.8976,0.0,-1.9362,0.0,-1.9746,-1.9853,-2.0127,-2.0146,0.0,-2.0557,-2.0323,0.0,0.0,0.0,0.0,0.0,-2.0489,-2.0411,-2.0167,-2.0167,-2.0177,-2.0264,-1.9292,-1.8975,-1.9204,-1.831,-1.7836,0.0,0.0,-1.8736,0.0,0.0,-2.0079,-2.0566,0.0,-2.0323,-2.0566,-2.0566,-2.0489,-2.0333,-1.9932,-1.9539,-1.9143,-1.8816,-1.8727,-1.8674,-1.811,-1.7709,0.0,-1.6976,-1.634,0.0,-1.5769,0.0,0.0,0.0,0.0,0.0,0.0,0.0,-1.4178,-1.368,-1.3962,-1.4178,0.0,-1.4178,0.0,0.0,0.0,0.0,0.0,0.0,-1.2055,-1.1326,-1.0601,-1.011,0.0,0.0,-0.9484,-0.9484,-0.9484,-0.9484,-0.9484,-0.9285,-0.8823,-0.8102,-0.7707,-0.6924,-0.5749,-0.6071,-0.6009,-0.5617,-0.5415,-0.5415,-0.5477,-0.4215,-0.362,-0.3355,-0.2818,-0.2216,-0.1746,-0.2014,-0.0872,0.1072,-1.8183,-1.8183,-1.8183,-1.8183,-1.8164,0.0,0.0,0.0,-1.832,0.0,-1.8887,-1.9189,-1.952,-2.0029,-2.0264,-2.0264,-2.0489,-2.0566,-2.0566,-2.0566,0.0,0.0,-1.9775,-1.9301,-1.9301,0.0,0.0,0.0,0.0,-2.0167,-1.9381,-1.9381,-1.9381,-1.9301,-1.8487,-1.8327,-1.8576,-1.7764,-1.7041,-1.6656,-1.7204,-1.7594,-1.7917,-1.7917,0.0,-2.0323,-1.9539,-1.9775,-2.0479,-2.0479,-2.0479,-2.0323,-1.9283,-1.8798,-1.8399,-1.7326,-1.7415,-1.7755,-1.6944,-1.7023,-1.7077,-1.6017,0.0,0.0,0.0,0.0,-1.4266,0.0,0.0,0.0,0.0,0.0,0.0,-1.3688,-1.3535,-1.3462,-1.3462,-1.3462,0.0,0.0,0.0,0.0,0.0,-1.1696,-1.0956,-1.087,-1.003,-0.9502,0.0,0.0,0.0,-0.9484,-0.942,-0.9414,-0.9414,-0.8753,-0.8096,-0.7321,-0.6662,-0.5939,-0.5087,-0.5087,-0.4957,-0.4697,-0.4025,-0.3825,-0.3892,-0.3013,-0.2614,-0.2619,-0.2417,-0.1813,-0.1008,-0.1008,0.0603,0.2945,-1.8834,-1.8999,-1.8999,0.0,-1.8751,-1.8568,0.0,0.0,0.0,0.0,-1.9224,-1.9349,-1.9548,-1.9724,-1.9951,-2.0264,-2.0177,0.0,0.0,0.0,0.0,-2.0566,-1.9775,-1.9301,-1.9301,-1.9301,0.0,-1.9301,0.0,-2.0489,-2.0245,-2.0245,-2.0245,-2.0245,-1.9371,-1.8647,-1.8078,-1.7269,-1.6468,-1.5839,-1.6542,-1.6944,0.0,0.0,-1.7747,-1.8638,-1.8399,-1.8479,-1.8638,-1.8638,-1.9036,-1.9283,-1.8479,-1.831,-1.8221,-1.7415,-1.7098,-1.6944,-1.678,-1.6308,-1.5924,-1.5984,-1.5234,-1.4584,0.0,0.0,0.0,0.0,0.0,0.0,0.0,0.0,0.0,-1.2144,-1.2372,-1.2806,-1.339,0.0,0.0,-1.2592,0.0,0.0,0.0,-1.1871,-1.1342,-1.0511,-1.005,0.0,0.0,0.0,0.0,-0.8753,-0.8231,-0.7907,-0.7907,-0.7777,-0.7316,-0.6662,-0.6334,-0.5811,-0.5087,-0.4422,-0.4092,-0.4025,-0.3288,-0.3019,-0.2947,-0.221,-0.1809,-0.1609,-0.1076,-0.0606,-0.0202,0.0604,0.2078,0.3756,-1.9213,-1.9301,0.0,-1.9301,0.0,0.0,-1.8971,0.0,0.0,-1.9301,-1.9381,0.0,-1.9557,-1.9715,-1.9872,-2.0264,-2.0186,0.0,-2.001,0.0,0.0,-1.9441,-1.8638,-1.8158,-1.8158,-1.8158,0.0,-1.8158,0.0,-1.9274,-1.8868,-1.8868,-1.8868,-1.8868,-1.8399,-1.7917,-1.735,-1.646,-1.5824,-1.5431,-1.5899,0.0,0.0,-1.6147,-1.6468,-1.6878,-1.6878,-1.7359,-1.7997,-1.7997,-1.8238,-1.8399,-1.7602,-1.735,-1.7261,-1.6363,-1.6124,-1.6131,-1.5726,-1.5477,-1.5313,-1.508,-1.4532,-1.4044,-1.4048,-1.3881,-1.3491,0.0,0.0,0.0,0.0,0.0,0.0,-1.1484,-1.1632,0.0,0.0,0.0,0.0,0.0,0.0,0.0,0.0,0.0,0.0,0.0,0.0,0.0,0.0,0.0,0.0,-0.8037,-0.7647,-0.7386,-0.7386,-0.7125,-0.6793,-0.64,-0.6013,-0.562,-0.5223,-0.4292,-0.3825,-0.3758,-0.2618,-0.208,-0.2012,-0.1208,-0.0873,-0.0806,-0.0337,0.0269,0.1008,0.1678,0.2547,0.3485,-1.9222,-1.9301,0.0,0.0,0.0,0.0,0.0,-1.9301,0.0,-1.9301,0.0,-1.9557,-1.9557,-1.9715,-1.9942,-2.0186,0.0,-1.9942,-1.9381,-1.9301,-1.8895,-1.8158,-1.718,-1.6698,-1.6698,-1.6698,-1.6698,0.0,0.0,-1.7594,-1.6862,-1.6862,-1.6862,-1.6862,-1.678,-1.6617,0.0,-1.5748,-1.5431,-1.5431,-1.5431,-1.5431,-1.5431,-1.5431,-1.5431,-1.5431,-1.5431,-1.6394,-1.7674,-1.7674,-1.7755,-1.7674,-1.655,-1.6312,-1.6057,-1.481,-1.4901,-1.5325,-1.4334,-1.4657,-1.5004,-1.3926,-1.3592,-1.3507,-1.2986,-1.2882,-1.2748,-1.2412,-1.2325,0.0,0.0,0.0,0.0,-1.1484,0.0,0.0,0.0,0.0,0.0,0.0,0.0,0.0,0.0,0.0,0.0,0.0,0.0,0.0,0.0,0.0,0.0,0.0,-0.7204,0.0,-0.7125,0.0,-0.6268,-0.6268,-0.5686,-0.5428,-0.5362,-0.4359,-0.3825,-0.3556,-0.188,-0.1144,-0.1076,-0.0337,-0.0135,-0.027,-0.0067,0.0807,0.2013,0.2147,0.248,0.2945,-1.9054,0.0,0.0,0.0,0.0,-1.9301,-1.9301,-1.9301,-1.9301,-1.9301,-1.9301,-1.9381,-1.9381,-1.9381,-1.9469,-1.9715,-1.9548,0.0,0.0,0.0,0.0,-1.8798,-1.7423,-1.6698,-1.6698,-1.6698,-1.6698,0.0,0.0,-1.7917,-1.7755,-1.7755,-1.7755,-1.7755,-1.7025,-1.6304,-1.5582,-1.5431,0.0,-1.5431,-1.5431,-1.5431,-1.5431,-1.5431,-1.5431,-1.5431,-1.5431,-1.559,-1.5831,-1.5831,-1.6304,-1.6698,-1.5658,-1.565,-1.5876,-1.4727,-1.4405,-1.4334,-1.4173,-1.4166,-1.4237,-1.4105,-1.3821,-1.3614,-1.3507,-1.31,-1.2808,-1.2755,-1.2472,-1.2305,-1.2305,0.0,0.0,0.0,0.0,0.0,0.0,0.0,0.0,0.0,0.0,0.0,0.0,0.0,0.0,0.0,0.0,0.0,0.0,0.0,0.0,0.0,0.0,0.0,0.0,0.0,0.0,-0.5557,-0.5425,-0.5428,-0.5359,-0.3954,-0.3149,-0.2813,-0.1277,-0.0472,-0.0202,-0.0067,0.0,-0.0067,0.0,0.0539,0.1276,0.1344,0.2214,0.3485,0.0,0.0,0.0,0.0,0.0,0.0,0.0,-1.9301,0.0,-1.9301,-1.9301,-1.9301,-1.9301,-1.9301,-1.9381,-1.9566,-1.9478,-1.939,-1.9301,-1.8487,-1.7836,-1.7504,-1.6288,0.0,-1.5899,-1.5891,-1.5891,-1.5891,0.0,-1.6632,-1.6468,-1.6632,-1.6632,-1.6632,-1.6229,-1.5824,0.0,0.0,0.0,-1.5431,-1.5431,-1.5431,-1.5431,-1.5431,-1.5431,-1.5431,-1.5431,-1.5431,-1.5431,-1.5431,-1.5665,-1.5899,-1.5333,-1.5325,-1.5401,-1.4643,-1.4321,-1.4243,-1.4166,-1.4088,-1.4088,-1.4088,-1.3981,-1.3834,-1.3681,-1.33,-1.2946,-1.2856,-1.2512,-1.2305,-1.2305,-1.1855,0.0,0.0,0.0,0.0,0.0,0.0,0.0,0.0,0.0,0.0,0.0,0.0,0.0,0.0,0.0,0.0,0.0,0.0,0.0,0.0,0.0,0.0,0.0,0.0,0.0,-0.5428,-0.5428,-0.5226,-0.4824,-0.3685,-0.2813,-0.2076,-0.0942,-0.0337,0.0,0.0,0.0,0.0067,0.0404,0.1008,0.1678,0.208,0.3017,0.409,0.0,-1.919,0.0,0.0,-1.8895,0.0,-1.9054,-1.9213,-1.9301,-1.9301,-1.9301,-1.9301,-1.9301,-1.9301,-1.9381,-1.9557,-1.9557,-1.9311,-1.8895,-1.7836,-1.6935,-1.6296,-1.5311,-1.4824,-1.4999,-1.4999,-1.4999,0.0,0.0,0.0,-1.509,-1.5264,-1.5347,0.0,0.0,0.0,0.0,0.0,-1.5431,-1.5431,-1.5431,-1.5431,-1.5431,-1.5431,-1.5431,-1.5431,-1.5431,-1.5347,-1.5347,-1.5347,-1.5347,-1.5347,-1.5173,-1.509,-1.4915,-1.4482,-1.4398,-1.4321,-1.4166,-1.4088,-1.4088,-1.4088,-1.4088,-1.4021,-1.3794,-1.3514,-1.3213,-1.2906,-1.2559,-1.2298,-1.2224,-1.2003,0.0,0.0,0.0,0.0,0.0,0.0,0.0,0.0,0.0,0.0,0.0,0.0,0.0,0.0,0.0,-0.7851,-0.7265,-0.7098,0.0,0.0,0.0,0.0,-0.5542,0.0,-0.5326,0.0,-0.516,-0.4758,-0.4018,-0.3282,-0.2479,-0.1542,-0.0808,-0.0337,0.0,0.0,0.0067,0.0269,0.0875,0.1612,0.2414,0.3015,0.3754,0.4495,0.0,0.0,0.0,0.0,0.0,0.0,0.0,-1.8807,-1.9301,-1.9301,-1.9301,-1.9301,-1.9301,-1.9301,-1.9301,-1.9301,-1.9301,-1.9301,-1.9222,-1.7844,-1.6952,-1.696,-1.5477,-1.4734,-1.4734,-1.4734,-1.4734,0.0,0.0,0.0,0.0,-1.509,0.0,0.0,0.0,0.0,0.0,-1.5431,-1.5431,-1.5431,-1.5431,-1.5431,-1.5431,-1.5431,-1.5431,-1.5431,-1.5431,-1.5257,-1.509,-1.509,-1.5257,-1.5347,-1.5173,-1.4915,-1.4657,-1.4482,-1.4243,-1.4082,-1.4088,-1.4088,-1.4088,-1.4088,-1.4088,-1.4082,-1.4048,-1.3814,-1.352,-1.3227,-1.2705,-1.2224,-1.2077,-1.1558,-1.1335,0.0,0.0,0.0,0.0,0.0,0.0,0.0,0.0,0.0,0.0,0.0,0.0,0.0,0.0,-0.7532,-0.7456,-0.7281,-0.6741,-0.5806,0.0,-0.5654,-0.5452,-0.5504,0.0,-0.442,-0.442,-0.402,-0.3282,-0.2547,-0.2012,-0.1542,-0.0808,-0.0337,0.0,0.0,0.0404,0.1008,0.1076,0.1946,0.3082,0.3149,0.3689,0.4364,0.0,0.0,0.0,0.0,0.0,0.0,0.0,-1.9439,-2.0035,-2.0035,-1.9604,-1.9301,-1.9301,-1.8816,-1.8487,-1.8487,-1.8078,-1.7755,-1.7755,-1.6698,-1.6049,-1.6049,-1.4992,-1.4405,-1.4482,-1.4482,-1.4482,0.0,0.0,0.0,0.0,0.0,0.0,0.0,0.0,-1.5173,-1.5431,-1.5431,-1.5431,-1.5431,-1.5431,-1.5431,-1.5431,-1.5431,-1.5431,-1.5347,-1.5264,-1.5173,-1.509,-1.4915,-1.4908,-1.4908,-1.4741,-1.4566,-1.4482,-1.4243,-1.4166,-1.4088,-1.4088,-1.4088,-1.4088,-1.4088,-1.4088,-1.4088,-1.4088,-1.3854,-1.3614,-1.3494,-1.2993,-1.2512,-1.2257,-1.1558,-1.1031,0.0,0.0,0.0,0.0,0.0,0.0,0.0,0.0,0.0,0.0,0.0,0.0,0.0,0.0,-0.6795,-0.6795,-0.6732,-0.6515,-0.6078,0.0,-0.5881,-0.5766,-0.5732,-0.5291,-0.4395,-0.4395,-0.3745,-0.2547,-0.2146,-0.1544,-0.0807,-0.0404,-0.0135,0.0,0.0,0.0404,0.1143,0.1545,0.2347,0.3284,0.3689,0.4028,0.4367,-1.7826,0.0,-1.7771,0.0,-1.8448,-1.9153,-1.9153,-1.992,-2.0521,-2.0521,-2.0017,-1.9578,-1.9255,-1.8676,-1.8167,-1.7912,-1.7333,-1.6917,-1.6917,-1.608,-1.5533,-1.5533,-1.4628,0.0,-1.4321,-1.4321,-1.4321,-1.4321,-1.4489,0.0,0.0,0.0,0.0,0.0,-1.4915,-1.5082,-1.5347,-1.5257,-1.5257,-1.5431,-1.5347,-1.5347,-1.5431,-1.5431,-1.5347,-1.5264,-1.5173,-1.5006,-1.4831,-1.465,-1.4573,-1.4489,-1.4482,-1.4482,-1.4398,-1.4243,-1.4166,-1.4088,-1.4088,-1.4088,-1.4088,-1.4088,-1.4088,-1.4088,-1.4088,-1.3928,-1.3665,-1.3326,-1.2765,-1.2368,-1.2091,-1.1309,-1.0657,0.0,0.0,0.0,0.0,0.0,0.0,0.0,-0.6338,-0.6338,-0.6338,0.0,0.0,0.0,0.0,0.0,-0.6338,-0.6338,0.0,0.0,0.0,0.0,0.0,0.0,-0.5069,-0.4169,-0.3925,-0.3113,-0.1766,-0.155,-0.1008,-0.027,-0.0067,0.0,0.0,0.0,0.0539,0.1411,0.1946,0.2683,0.3553,0.4097,0.43,0.4367,-1.8327,-1.8255,-1.8241,-1.7985,-1.8612,-1.9221,-1.9221,-1.9911,-2.0521,-2.0521,-2.0512,-2.0165,-1.9221,-1.9059,-1.8698,-1.7723,-1.7636,-1.7549,-1.7549,-1.6462,-1.5777,0.0,0.0,-1.4088,-1.4088,-1.4088,-1.4088,-1.4088,0.0,0.0,-1.4398,0.0,-1.4482,-1.4734,-1.4482,-1.4657,-1.509,-1.4824,-1.4999,-1.5347,-1.5173,-1.5257,-1.5431,-1.5431,-1.5257,-1.509,-1.509,-1.4831,-1.4398,-1.4398,-1.4243,-1.4166,-1.4573,-1.4566,-1.4398,-1.4398,-1.4243,-1.4088,-1.4088,-1.4088,-1.4088,-1.4088,-1.4088,-1.4088,-1.4088,-1.4082,-1.3743,-1.2533,-1.1878,-1.1498,-1.1408,-1.0585,-1.0196,-1.0962,0.0,0.0,0.0,0.0,0.0,0.0,-0.6412,-0.6338,-0.6338,0.0,0.0,0.0,0.0,0.0,0.0,0.0,0.0,-0.6037,-0.6179,0.0,-0.5806,-0.5129,-0.439,-0.3487,-0.2619,-0.1748,-0.0909,-0.0478,-0.0337,-0.027,-0.0067,0.0,0.0,0.0,0.0807,0.2079,0.208,0.3019,0.43,0.43,0.43,0.4367,-1.6621,-1.6607,-1.6572,-1.648,-1.7279,-1.7918,-1.7918,-1.9264,-2.035,-2.035,-2.0898,-2.0713,-1.9093,-1.8466,-1.7731,0.0,-1.6183,-1.5835,0.0,-1.5485,-1.5253,-1.5253,-1.4906,-1.4683,-1.4683,-1.4683,-1.4683,-1.4683,0.0,0.0,0.0,-1.4166,-1.4328,-1.4482,-1.4398,-1.4566,-1.4824,-1.4734,-1.4824,-1.4908,-1.5082,-1.5173,-1.5173,-1.5347,-1.5257,-1.509,-1.4908,-1.465,-1.4398,-1.4243,-1.4166,-1.4088,-1.425,-1.425,-1.4166,-1.4166,-1.4166,-1.4088,-1.4088,-1.4088,-1.4088,-1.4088,-1.4088,-1.3913,-1.3307,-1.3137,-1.2971,-1.245,-1.2174,-1.1778,-1.0785,-0.988,-0.9319,-0.9478,0.0,0.0,0.0,0.0,0.0,0.0,0.0,-0.6338,0.0,-0.6338,0.0,0.0,0.0,0.0,0.0,0.0,0.0,0.0,-0.6237,0.0,-0.5269,-0.5081,-0.4201,-0.2837,-0.2519,-0.1812,-0.07,-0.0417,-0.0206,-0.0067,0.0,0.0,0.0067,0.0539,0.1276,0.2147,0.2681,0.3422,0.43,0.43,0.43,0.4367,-1.6298,-1.6386,-1.648,-1.685,-1.7404,-1.7878,-1.7878,-1.8972,-1.9704,-1.9704,-2.0257,-1.9985,-1.8427,-1.7856,0.0,-1.6175,-1.5643,-1.5291,-1.5291,-1.519,-1.5124,-1.5124,-1.5023,-1.4963,-1.4963,0.0,0.0,-1.4963,-1.4776,-1.4589,-1.4416,-1.4302,-1.4388,-1.4654,-1.4453,-1.4638,-1.4919,-1.4833,-1.4912,-1.5084,-1.5262,-1.5355,-1.5348,-1.5526,-1.5447,-1.5183,-1.5005,-1.4833,-1.4575,-1.4495,-1.4342,-1.4249,-1.4249,-1.3913,-1.3652,-1.4004,-1.4088,-1.4088,-1.4088,-1.4088,-1.4088,-1.4088,-1.4088,-1.3828,-1.2875,-1.2448,-1.2054,-1.1477,-1.1372,-1.1018,-0.9987,-0.9137,-0.8548,-0.866,0.0,-0.7484,0.0,0.0,0.0,0.0,0.0,0.0,0.0,-0.6338,0.0,0.0,0.0,0.0,0.0,0.0,0.0,-0.6338,-0.6338,0.0,-0.5004,-0.4691,-0.3883,-0.253,-0.2051,-0.1407,-0.0569,-0.0284,-0.014,0.0,0.0,0.0136,0.0471,0.0942,0.1679,0.2547,0.3015,0.3623,0.43,0.43,0.43,0.4367,-1.7052,-1.7232,0.0,0.0,-1.8603,0.0,-1.8603,-1.8611,-1.8703,-1.8703,-1.8788,-1.8427,-1.7419,-1.7326,-1.6857,-1.592,0.0,0.0,0.0,-1.5578,-1.5424,-1.5424,-1.517,0.0,-1.5023,-1.5023,-1.5017,-1.499,-1.499,-1.4983,-1.4957,-1.4676,-1.4696,-1.495,-1.4676,-1.4791,-1.5239,-1.5053,-1.5225,-1.5569,-1.5665,-1.5658,-1.5569,-1.5842,-1.5672,-1.5232,-1.5232,-1.5053,-1.4777,-1.4777,-1.4599,-1.4287,-1.4287,-1.3572,-1.2839,-1.3841,-1.4082,-1.3997,-1.4088,-1.4088,-1.4088,-1.3997,-1.3913,-1.3568,-1.279,-1.1843,-1.0982,-1.012,-0.9786,-0.9587,-0.9215,-0.8375,-0.8032,-0.853,-0.8025,-0.7484,-0.7484,0.0,0.0,0.0,0.0,0.0,0.0,-0.6338,-0.6338,0.0,0.0,0.0,0.0,0.0,-0.6338,-0.6338,-0.6338,-0.5867,-0.4927,-0.4144,-0.3287,-0.2353,-0.1151,-0.0599,-0.0585,-0.0146,0.0,0.0,0.0,0.0416,0.1079,0.1146,0.195,0.3215,0.3284,0.3689,0.43,0.43,0.43,0.4367,0.0,0.0,-1.6204,-1.648,-1.6473,-1.6473,-1.6473,-1.7131,-1.7692,-1.7692,-1.8334,-1.8427,-1.7419,-1.7326,-1.6857,-1.592,-1.5832,-1.5832,-1.5832,-1.5765,-1.5732,-1.5732,-1.5658,-1.5625,-1.5625,-1.5625,-1.5518,-1.5297,-1.5297,-1.5177,-1.4963,-1.4897,-1.4897,-1.4963,-1.489,-1.4986,-1.5053,-1.5053,-1.5053,-1.5136,-1.5322,-1.5411,-1.5404,-1.5575,-1.5026,-1.4122,-1.4122,-1.3483,-1.2672,-1.2672,-1.2541,-1.249,-1.249,-1.2366,-1.2333,-1.3696,-1.3568,-1.3222,-1.3913,-1.4088,-1.3913,-1.3222,-1.1929,-1.0982,-1.1499,-1.0895,-1.0202,-0.9946,-0.9908,-0.9551,-0.8679,-0.8238,-0.7975,-0.8036,-0.7729,-0.7484,-0.7484,0.0,0.0,0.0,-0.6563,-0.6338,-0.6338,-0.6338,-0.6338,0.0,0.0,0.0,0.0,0.0,-0.6338,-0.6338,-0.6338,-0.5553,-0.4066,-0.3908,-0.2974,-0.1256,-0.0781,-0.0538,-0.0375,-0.015,0.0,0.0,0.0,0.0427,0.111,0.1663,0.2393,0.3284,0.3825,0.4164,0.43,0.43,0.43,0.43,-1.5832,-1.5832,-1.5832,-1.5832,-1.5832,-1.5832,-1.5832,-1.6298,-1.6574,-1.6574,-1.7131,-1.7217,-1.6669,-1.6574,-1.6393,-1.5825,-1.5832,-1.5832,-1.5832,-1.5832,-1.5832,-1.5832,-1.5832,-1.5832,-1.5832,-1.5832,-1.5752,-1.5591,-1.5591,-1.5518,-1.5357,-1.5224,-1.5231,-1.5351,-1.5217,-1.5237,-1.5357,-1.5357,-1.5357,-1.5357,-1.564,-1.5364,-1.4896,-1.5061,-1.4396,-1.3275,-1.3275,-1.2813,-1.2256,-1.2256,-1.2186,-1.2101,-1.2101,-1.1657,-1.1527,-1.2709,-1.2715,-1.2331,-1.2735,-1.279,-1.2705,-1.2186,-1.0977,-1.0028,-1.0549,-0.9946,-0.9345,-0.9345,-0.9345,-0.9109,-0.8406,-0.8207,-0.8057,-0.7801,-0.7592,-0.7496,-0.7496,-0.7173,0.0,-0.6865,-0.6637,-0.6412,-0.6338,-0.6338,-0.6338,-0.6338,0.0,0.0,-0.5709,-0.5395,-0.5473,-0.6261,-0.5944,-0.5082,-0.383,-0.2896,-0.1959,-0.0864,-0.0628,-0.039,-0.0308,-0.0077,0.0,0.0,0.0445,0.1022,0.1709,0.239,0.3117,0.382,0.4182,0.43,0.43,0.43,0.43,0.43,-1.5832,-1.5832,-1.5832,-1.5832,-1.5832,-1.5832,-1.5832,-1.5832,-1.5832,-1.5832,-1.5832,-1.5832,-1.5832,-1.5832,-1.5832,-1.5832,-1.5832,-1.5832,-1.5832,-1.5832,-1.5832,-1.5832,-1.5832,-1.5832,-1.5832,-1.5832,-1.5832,-1.5832,-1.5832,-1.5832,-1.5825,-1.5578,-1.5591,-1.5818,-1.5571,-1.5598,-1.5825,-1.5635,-1.554,-1.554,-1.5642,-1.5064,-1.41,-1.428,-1.3596,-1.2436,-1.2436,-1.2339,-1.2247,-1.2247,-1.2117,-1.1867,-1.1867,-1.1174,-1.0562,-1.1266,-1.1389,-1.1268,-1.1364,-1.1176,-1.1068,-1.1068,-1.0376,-0.9685,-0.9685,-0.9174,-0.8568,-0.8568,-0.8568,-0.8519,-0.8361,-0.8308,-0.8191,-0.789,-0.7545,-0.7375,-0.7467,0.0,-0.6865,-0.6865,-0.6714,-0.649,-0.6338,-0.6338,-0.6261,-0.6103,-0.5395,0.0,0.0,-0.4144,-0.4455,-0.5867,-0.524,-0.4377,-0.3597,-0.1803,-0.0864,-0.0786,-0.0471,-0.0314,-0.0236,-0.0079,0.0,0.0076,0.0912,0.1647,0.2338,0.3141,0.3879,0.4488,0.4371,0.4325,0.4325,0.4306,0.43,0.43,-1.5832,-1.5832,-1.5832,-1.5832,-1.5832,-1.5832,-1.5832,-1.5832,-1.5832,-1.5832,-1.5832,-1.5832,-1.5832,-1.5832,-1.5832,-1.5832,-1.5832,-1.5832,-1.5832,-1.5832,-1.5832,-1.5832,-1.5832,-1.5832,-1.5832,-1.5832,-1.5832,-1.5832,-1.5832,-1.5832,-1.5832,-1.5785,-1.5785,-1.5825,-1.5785,-1.5785,-1.573,-1.4873,-1.449,-1.4484,-1.3607,-1.3119,-1.2926,-1.3017,-1.2339,-1.1463,-1.1463,-1.0886,-1.0113,-1.0113,-1.0096,-0.9972,-0.9972,-0.9857,-0.9705,-0.974,-0.9763,-1.0037,-1.1194,-1.086,-1.012,-1.012,-0.9428,-0.8828,-0.8828,-0.8652,-0.8568,-0.8568,-0.8568,-0.856,-0.8528,-0.8398,-0.8187,-0.7966,-0.762,-0.7338,-0.7156,0.0,-0.6637,-0.6637,-0.649,-0.6338,-0.6338,-0.6338,-0.6022,-0.5237,-0.5082,-0.4691,-0.3986,-0.383,-0.3908,-0.4144,-0.4066,-0.3521,-0.243,-0.1413,-0.0707,-0.0393,-0.0314,-0.0236,-0.0079,0.0,0.0,0.0078,0.0936,0.169,0.2328,0.3216,0.3981,0.4684,0.449,0.4444,0.4431,0.4336,0.43,0.43,-1.5832,-1.5832,-1.5832,-1.5832,-1.5832,-1.5832,-1.5832,-1.5832,-1.5832,-1.5832,-1.5832,-1.5832,-1.5832,-1.5832,-1.5832,-1.5832,-1.5832,-1.5832,-1.5832,-1.5832,-1.5832,-1.5832,-1.5832,-1.5832,-1.5832,-1.5832,-1.5832,-1.5832,-1.5832,-1.5832,-1.5832,-1.5832,-1.5832,-1.5832,-1.5832,-1.554,-1.4968,-1.449,-1.4004,-1.3414,-1.2926,-1.2339,-1.1853,-1.1853,-1.1272,-1.0306,-1.0306,-1.0015,-0.9628,-0.9628,-0.9628,-0.9628,-0.9628,-0.9628,-0.9612,-0.9527,-0.9364,-0.9345,-0.9972,-0.9736,-0.9292,-0.9196,-0.8915,-0.8568,-0.8568,-0.8568,-0.8568,-0.8568,-0.8568,-0.8568,-0.8568,-0.8495,-0.8406,-0.8138,-0.7811,0.0,0.0,-0.6972,-0.6659,-0.6574,-0.6486,-0.6412,-0.6338,-0.6338,-0.5944,-0.5082,-0.4611,-0.3988,-0.3132,-0.2663,-0.235,-0.2272,-0.282,-0.2585,-0.1491,-0.1021,-0.0628,-0.0314,-0.0157,-0.0079,0.0,0.0,0.0,0.0079,0.141,0.2101,0.2539,0.372,0.4425,0.4738,0.4616,0.464,0.4624,0.4436,0.4393,0.445,-1.5832,-1.5832,-1.5832,-1.5832,-1.5832,-1.5832,-1.5832,-1.5832,-1.5832,-1.5832,-1.5832,-1.5737,-1.573,-1.573,-1.573,-1.573,-1.5642,-1.5642,-1.5737,-1.5642,-1.5737,-1.5832,-1.5832,-1.5832,-1.5832,-1.5832,-1.5832,-1.5832,-1.5832,-1.5832,-1.5832,-1.5832,-1.5832,-1.5825,-1.554,-1.5064,-1.4298,-1.3806,-1.3119,-1.2339,-1.2052,-1.1565,-1.0788,-1.0788,-1.0306,-0.9628,-0.9628,-0.9628,-0.9628,-0.9628,-0.9628,-0.9628,-0.9628,-0.9628,-0.9628,-0.9628,-0.9433,-0.9173,-0.8946,-0.8852,-0.8787,-0.8658,-0.8597,-0.8568,-0.8568,-0.8568,-0.8568,-0.8568,-0.8568,-0.8568,-0.8568,-0.8568,-0.8519,-0.8287,0.0,0.0,0.0,-0.7082,-0.6756,-0.6631,-0.6585,-0.649,-0.6338,-0.6338,-0.5867,-0.4768,-0.4144,-0.3365,-0.2276,-0.157,-0.11,-0.0864,-0.1649,-0.1727,-0.0786,-0.0629,-0.0471,-0.0236,-0.0079,0.0,0.0,0.0,0.0079,0.0392,0.1879,0.2581,0.289,0.4296,0.4876,0.4866,0.4743,0.4694,0.4681,0.4556,0.4512,0.4635,-1.5832,-1.5832,-1.5832,-1.5832,-1.5832,-1.5832,-1.5832,-1.5832,-1.5832,-1.5832,-1.5832,-1.573,-1.554,-1.554,-1.554,-1.554,-1.5267,-1.5267,-1.554,-1.5267,-1.5363,-1.5737,-1.5832,-1.5832,-1.5832,-1.5832,-1.5832,-1.5832,-1.5832,-1.5832,-1.5832,-1.5832,-1.5832,-1.573,-1.4873,-1.4394,-1.4196,-1.2247,-1.1365,-1.1175,-1.0207,-0.9821,-0.9723,-0.9723,-0.9628,-0.9628,-0.9628,-0.9628,-0.9628,-0.9628,-0.9628,-0.9628,-0.9628,-0.9628,-0.9628,-0.9628,-0.9608,-0.9514,-0.9169,-0.895,-0.882,-0.8804,-0.8682,-0.8568,-0.8568,-0.8568,-0.8568,-0.8568,-0.8568,-0.8568,-0.8568,-0.8568,-0.8472,-0.8273,0.0,0.0,-0.7406,-0.6983,-0.6715,-0.6537,-0.6421,-0.6338,-0.6338,-0.6338,-0.5631,-0.3986,-0.383,-0.313,-0.1492,-0.11,-0.0864,-0.0628,-0.0864,-0.0786,-0.0314,-0.055,-0.0393,0.0,0.0,0.0,0.0,0.0,0.0471,0.1254,0.2113,0.2971,0.3752,0.4613,0.5004,0.4991,0.4868,0.4819,0.4806,0.4683,0.4712,0.4764,-1.5635,-1.573,-1.5832,-1.5832,-1.5832,-1.5832,-1.5832,-1.5832,-1.573,-1.5635,-1.5635,-1.5547,-1.5267,-1.5267,-1.5267,-1.5267,-1.5178,-1.5178,-1.5267,-1.5178,-1.5178,-1.5363,-1.5363,-1.5363,-1.5363,-1.5363,-1.5363,-1.5363,-1.5547,-1.5635,-1.5635,-1.573,-1.5445,-1.4873,-1.449,-1.3607,-1.2344,-1.156,-1.0788,-1.0207,-0.9723,-0.9628,-0.9628,-0.9628,-0.9628,-0.9628,-0.9628,-0.9628,-0.9628,-0.9628,-0.9628,-0.9628,-0.9628,-0.9628,-0.9628,-0.9628,-0.9628,-0.96,-0.9462,-0.9291,-0.9096,-0.8877,-0.8771,-0.8694,-0.8593,-0.8568,-0.8568,-0.8568,-0.8568,-0.8568,-0.8568,-0.8568,-0.8564,-0.8472,0.0,-0.7982,-0.7532,-0.7249,-0.6933,-0.6575,-0.5946,-0.5565,-0.5482,-0.5004,-0.4224,-0.3054,-0.2976,-0.251,-0.1335,-0.0943,-0.0628,-0.0393,-0.0471,-0.0471,-0.0314,-0.0393,-0.0236,0.0,0.0,0.0,0.0,0.0,0.0471,0.1332,0.2113,0.2971,0.3832,0.4698,0.5018,0.5012,0.4966,0.4947,0.4934,0.4811,0.4765,0.4893,-1.5356,-1.5452,-1.5547,-1.5547,-1.5547,-1.5547,-1.5547,-1.5547,-1.5547,-1.5356,-1.5356,-1.5267,-1.4981,-1.4981,-1.4981,-1.4981,-1.4885,-1.4885,-1.4981,-1.4885,-1.4885,-1.5083,-1.5083,-1.5083,-1.5083,-1.5083,-1.5083,-1.5083,-1.5267,-1.5356,-1.5356,-1.5153,-1.4675,-1.4004,-1.3414,-1.2441,-1.1077,-1.0783,-1.0306,-0.9628,-0.9628,-0.9628,-0.9628,-0.9628,-0.9628,-0.9628,-0.9628,-0.9628,-0.9628,-0.9628,-0.9628,-0.9628,-0.9628,-0.9628,-0.9628,-0.9628,-0.9628,-0.9628,-0.9628,-0.9535,-0.9368,-0.9064,-0.895,-0.8861,-0.8686,-0.8649,-0.8633,-0.8576,-0.8568,-0.8568,-0.8568,-0.8568,-0.8568,-0.8568,-0.8472,-0.8162,-0.7782,-0.755,-0.7098,-0.6305,-0.5635,-0.5071,-0.4673,-0.4162,-0.3443,-0.2588,-0.2511,-0.2119,-0.1257,-0.0786,-0.0471,-0.0314,-0.0236,-0.0236,-0.0236,-0.0236,-0.0236,0.0,0.0,0.0,0.0,0.0314,0.0862,0.1722,0.2582,0.3363,0.4226,0.4779,0.5018,0.5018,0.5018,0.5018,0.5007,0.4923,0.4893,0.4949,-1.5083,-1.5083,-1.5083,-1.5083,-1.5083,-1.5083,-1.5083,-1.5083,-1.5083,-1.5083,-1.5083,-1.4987,-1.4688,-1.4688,-1.4688,-1.4688,-1.449,-1.4394,-1.4694,-1.449,-1.4496,-1.5083,-1.5083,-1.5083,-1.5083,-1.5083,-1.5083,-1.5083,-1.5083,-1.5083,-1.5083,-1.4004,-1.3511,-1.3414,-1.156,-1.0779,-1.0685,-0.9916,-0.9628,-0.9628,-0.9628,-0.9628,-0.9628,-0.9628,-0.9628,-0.9628,-0.9628,-0.9628,-0.9628,-0.9628,-0.9628,-0.9628,-0.9628,-0.9628,-0.9628,-0.9628,-0.9628,-0.9628,-0.9628,-0.9628,-0.9583,-0.9401,-0.9226,-0.9051,-0.8865,-0.882,-0.8771,-0.8605,-0.8568,-0.8568,-0.8568,-0.8568,-0.8568,-0.8568,-0.8568,-0.8476,-0.7944,-0.7711,-0.7083,-0.5623,-0.533,-0.4784,-0.3889,-0.3808,-0.3444,-0.2589,-0.251,-0.2041,-0.0943,-0.0707,-0.0471,-0.0314,-0.0079,0.0,0.0,-0.0236,-0.0236,0.0,0.0,0.0,0.0,0.0862,0.1722,0.2582,0.3441,0.4226,0.5018,0.5018,0.5018,0.5018,0.5018,0.5018,0.5018,0.5018,0.5018,0.5076,-1.4885,-1.4981,-1.5083,-1.5083,-1.5083,-1.5083,-1.5083,-1.5083,-1.4987,-1.4885,-1.479,-1.4694,-1.449,-1.4394,-1.4394,-1.4394,-1.4394,-1.4298,-1.4394,-1.4298,-1.4394,-1.4496,-1.4496,-1.4496,-1.4496,-1.4496,-1.4196,-1.3414,-1.3607,-1.3318,-1.2635,-1.2441,-1.2047,-1.1268,-1.0779,-1.0096,-0.9414,-0.9122,-0.913,-0.9331,-0.9331,-0.943,-0.9628,-0.9628,-0.9628,-0.9628,-0.9628,-0.9628,-0.9628,-0.9628,-0.9628,-0.9628,-0.9628,-0.9628,-0.9628,-0.9628,-0.9628,-0.943,-0.8928,-0.913,-0.9583,-0.9401,-0.9315,-0.9234,-0.9056,-0.8913,-0.8804,-0.8755,-0.8649,-0.8568,-0.8568,-0.8568,-0.8568,-0.8568,-0.8568,-0.83,-0.7496,-0.7007,-0.6325,-0.5117,-0.4112,-0.3379,-0.2994,-0.2444,-0.1931,-0.1691,-0.1666,-0.1414,-0.0707,-0.0628,-0.0471,-0.0079,0.0,0.0,0.0,-0.0079,-0.0079,0.0,0.0,0.0,0.0,0.0235,0.1176,0.2503,0.2737,0.3679,0.5018,0.5018,0.5018,0.5018,0.5018,0.5018,0.5018,0.5018,0.5018,0.5087,-1.4918,-1.4936,-1.4996,-1.5102,-1.5027,-1.4996,-1.5102,-1.5027,-1.4861,-1.4758,-1.4563,-1.449,-1.4298,-1.4298,-1.434,-1.4455,-1.4558,-1.4618,-1.4618,-1.4213,-1.3912,-1.3912,-1.3512,-1.3417,-1.3613,-1.41,-1.3607,-1.2145,-1.2635,-1.2441,-1.1463,-1.117,-1.0681,-1.0096,-0.9702,-0.9217,-0.8627,-0.8726,-0.8928,-0.9031,-0.9031,-0.913,-0.9327,-0.9327,-0.9327,-0.9327,-0.9327,-0.9327,-0.9327,-0.943,-0.9529,-0.9628,-0.943,-0.9529,-0.9525,-0.892,-0.8821,-0.8619,-0.7528,-0.7624,-0.8001,-0.8203,-0.8575,-0.8832,-0.8379,-0.8171,-0.8062,-0.7935,-0.8106,-0.8108,-0.7775,-0.8208,-0.8388,-0.7852,-0.794,-0.776,-0.6605,-0.6157,-0.5507,-0.4218,-0.3312,-0.2589,-0.2129,-0.1587,-0.1316,-0.1303,-0.1274,-0.11,-0.0707,-0.0628,-0.0471,-0.0157,-0.0079,0.0,0.0,0.0,0.0,0.0,0.0,0.0,0.0,0.0392,0.1254,0.2503,0.2893,0.3756,0.5018,0.5018,0.5018,0.5018,0.5018,0.5018,0.5018,0.5093,0.5093,0.5246,-1.5107,-1.4914,-1.4829,-1.5065,-1.4908,-1.4829,-1.5071,-1.4908,-1.4751,-1.4751,-1.4527,-1.437,-1.437,-1.437,-1.4473,-1.4733,-1.4867,-1.4904,-1.4904,-1.3862,-1.3238,-1.3238,-1.2196,-1.1909,-1.2407,-1.3482,-1.3088,-1.1128,-1.2006,-1.1908,-1.0932,-0.9949,-0.9458,-0.9458,-0.877,-0.8375,-0.8475,-0.867,-0.877,-0.877,-0.877,-0.887,-0.887,-0.887,-0.8858,-0.8847,-0.8847,-0.8836,-0.8825,-0.9034,-0.9331,-0.9426,-0.913,-0.9232,-0.9122,-0.7816,-0.7415,-0.7117,-0.5822,-0.5525,-0.5722,-0.6024,-0.7126,-0.7895,-0.7174,-0.704,-0.6963,-0.6722,-0.7106,-0.7228,-0.6468,-0.7507,-0.7944,-0.6605,-0.6959,-0.6956,-0.5536,-0.527,-0.4648,-0.3045,-0.2731,-0.235,-0.1481,-0.1368,-0.1339,-0.1309,-0.1279,-0.1182,-0.0867,-0.0708,-0.0471,-0.0314,-0.0079,0.0,0.0,0.0,0.0,0.0,0.0,0.0,0.0,0.0941,0.1722,0.2582,0.3441,0.4226,0.5018,0.5018,0.5018,0.5018,0.5018,0.5018,0.5015,0.5243,0.5321,0.555,-1.5107,-1.5065,-1.504,-1.5101,-1.5065,-1.504,-1.5101,-1.5059,-1.5022,-1.5022,-1.4974,-1.4932,-1.4932,-1.4932,-1.4956,-1.5016,-1.4242,-1.3755,-1.3755,-1.2612,-1.199,-1.199,-1.1784,-1.133,-1.0634,-1.1647,-1.1545,-1.0326,-1.0531,-1.0125,-0.9105,-0.8898,-0.8691,-0.8691,-0.8591,-0.8488,-0.8488,-0.8591,-0.8698,-0.8913,-0.8913,-0.9013,-0.922,-0.922,-0.9138,-0.9022,-0.9022,-0.8937,-0.8825,-0.8825,-0.8924,-0.8825,-0.7925,-0.7624,-0.7521,-0.6321,-0.6022,-0.5822,-0.4929,-0.5127,-0.5325,-0.413,-0.463,-0.5625,-0.6898,-0.711,-0.7015,-0.6957,-0.6873,-0.6621,-0.604,-0.6406,-0.6694,-0.5977,-0.6337,-0.616,-0.4914,-0.4469,-0.3758,-0.2511,-0.1965,-0.1603,-0.1425,-0.1398,-0.1369,-0.134,-0.131,-0.1131,-0.0727,-0.0635,-0.0471,-0.0079,0.0,0.0,0.0,0.0,0.0,0.0,0.0,0.0,0.0,0.0941,0.1722,0.2582,0.3441,0.4226,0.5018,0.5018,0.5018,0.5018,0.5018,0.5018,0.5015,0.5243,0.5702,0.6465,-1.5481,-1.5384,-1.533,-1.5457,-1.5378,-1.5336,-1.5463,-1.5372,-1.5294,-1.5294,-1.5185,-1.5107,-1.5107,-1.5107,-1.4951,-1.4545,-1.3508,-1.2936,-1.2936,-1.187,-1.1128,-1.1128,-1.0605,-1.0079,-0.9548,-1.0075,-0.9993,-0.9309,-0.9827,-0.9518,-0.8482,-0.8482,-0.8482,-0.8482,-0.8482,-0.8482,-0.8482,-0.8482,-0.8591,-0.8699,-0.8699,-0.8804,-0.8905,-0.8905,-0.8852,-0.8781,-0.8781,-0.8783,-0.8646,-0.8032,-0.7882,-0.7822,-0.6625,-0.6323,-0.6221,-0.5022,-0.4622,-0.4422,-0.3325,-0.3324,-0.3524,-0.2925,-0.3126,-0.3827,-0.5334,-0.5591,-0.5536,-0.5486,-0.5679,-0.5583,-0.4591,-0.5146,-0.5528,-0.4809,-0.4949,-0.4917,-0.3937,-0.3403,-0.2778,-0.1884,-0.1615,-0.1436,-0.1436,-0.1408,-0.1384,-0.1369,-0.1341,-0.1158,-0.0745,-0.0647,-0.0479,0.0,0.0,0.0,0.0,0.0,0.0,0.0,0.0,0.0235,0.0628,0.1097,0.1957,0.3127,0.3597,0.4226,0.5018,0.5018,0.5018,0.5018,0.509,0.5168,0.5168,0.5476,0.6395,0.7693,-1.5891,-1.5716,-1.5638,-1.5849,-1.571,-1.5638,-1.5855,-1.5704,-1.5565,-1.5565,-1.5372,-1.5137,-1.4932,-1.4721,-1.4384,-1.3625,-1.2636,-1.2091,-1.2091,-1.1,-1.0347,-1.0347,-0.9482,-0.894,-0.894,-0.894,-0.8815,-0.856,-0.9501,-0.9395,-0.856,-0.856,-0.856,-0.856,-0.856,-0.856,-0.856,-0.856,-0.856,-0.856,-0.856,-0.856,-0.856,-0.856,-0.8543,-0.852,-0.852,-0.8425,-0.819,-0.7027,-0.6743,-0.655,-0.5233,-0.5027,-0.4924,-0.3621,-0.3221,-0.3021,-0.1918,-0.1617,-0.1718,-0.212,-0.222,-0.2522,-0.353,-0.3831,-0.3815,-0.3755,-0.4223,-0.4291,-0.3072,-0.3854,-0.435,-0.3516,-0.3552,-0.3506,-0.2869,-0.2422,-0.1974,-0.1436,-0.1436,-0.1436,-0.1436,-0.1412,-0.1397,-0.1397,-0.1286,-0.1101,-0.0678,-0.0663,-0.0409,0.0,0.0,0.0079,0.0237,0.0236,0.0314,0.0392,0.0392,0.0706,0.1332,0.1567,0.2504,0.383,0.391,0.4384,0.5018,0.5018,0.5018,0.5015,0.5168,0.5321,0.5628,0.6244,0.7548,0.9008,-1.5891,-1.5861,-1.5849,-1.5885,-1.5861,-1.5849,-1.5885,-1.5861,-1.5837,-1.5837,-1.5807,-1.5465,-1.4393,-1.3414,-1.2665,-1.2586,-1.1529,-1.0891,-1.0891,-0.9805,-0.9154,-0.9154,-0.8937,-0.894,-0.894,-0.894,-0.8916,-0.8876,-0.8986,-0.8986,-0.8876,-0.8876,-0.8876,-0.8876,-0.8876,-0.8876,-0.8876,-0.8876,-0.8876,-0.8876,-0.8876,-0.8876,-0.8876,-0.8876,-0.8794,-0.8679,-0.8679,-0.7937,-0.6956,-0.6746,-0.6082,-0.5031,-0.3844,-0.3525,-0.3324,-0.222,-0.1918,-0.1818,-0.1617,-0.1617,-0.1617,-0.1718,-0.1718,-0.1818,-0.2522,-0.2927,-0.3328,-0.332,-0.3374,-0.3136,-0.2541,-0.2883,-0.3112,-0.2507,-0.2768,-0.2837,-0.2339,-0.2243,-0.1974,-0.1436,-0.1436,-0.1436,-0.1436,-0.1431,-0.1429,-0.1429,-0.114,-0.0953,-0.0693,-0.0509,-0.0251,0.0,0.0,0.0324,0.1131,0.1109,0.1488,0.2192,0.2192,0.1879,0.1332,0.2817,0.3597,0.383,0.4543,0.4937,0.5018,0.5018,0.5018,0.5018,0.5015,0.555,0.6542,0.8452,0.9377,0.9841,-1.5891,-1.5891,-1.5891,-1.5891,-1.5891,-1.5891,-1.5891,-1.5891,-1.5891,-1.5891,-1.5891,-1.5458,-1.4272,-1.2526,-1.1433,-1.1433,-1.0351,-0.9699,-0.9699,-0.9154,-0.894,-0.894,-0.894,-0.894,-0.894,-0.894,-0.894,-0.894,-0.894,-0.894,-0.894,-0.894,-0.894,-0.894,-0.894,-0.894,-0.894,-0.894,-0.894,-0.894,-0.894,-0.894,-0.894,-0.894,-0.8896,-0.8729,-0.8066,-0.7431,-0.6666,-0.5335,-0.455,-0.3771,-0.2679,-0.2357,-0.2251,-0.1723,-0.1617,-0.1617,-0.1617,-0.1617,-0.1617,-0.1617,-0.1617,-0.1617,-0.1919,-0.2121,-0.2424,-0.2725,-0.2707,-0.2591,-0.2094,-0.2062,-0.2222,-0.2299,-0.2159,-0.2121,-0.2195,-0.1899,-0.1705,-0.1436,-0.1436,-0.1436,-0.1436,-0.1436,-0.1345,-0.1256,-0.1156,-0.0885,-0.0531,-0.0434,0.0,0.0771,0.0755,0.1242,0.215,0.2102,0.2236,0.2634,0.299,0.3051,0.2738,0.3441,0.4068,0.4462,0.4859,0.5018,0.5018,0.5018,0.5018,0.5018,0.5093,0.5857,0.7084,0.8456,0.9377,0.9992]},{"header":{"parameterUnit":"m.s-1","parameterCategory":1,"la1":30.6,"la2":28.766,"lo1":-90.7593,"lo2":-88.6598,"dy":0.0162,"dx":0.0183,"nx":116,"ny":114,"refTime":"2024-05-08T00:00:00:Z","depth":0,"parameterNumber":3,"parameterNumberName":"V-component_of_WINDS"},"data":[0.0,0.0,0.0,0.0,0.0,0.0,0.0,0.0,0.0,0.0,0.0,0.0,0.0,0.0,0.0,0.0,0.0,0.0,0.0,0.0,0.0,0.0,0.0,0.0,0.0,0.0,0.0,0.0,0.0,0.0,0.0,0.0,0.0,0.0,0.0,0.0,0.0,0.0,0.0,0.0,0.0,0.0,0.0,0.0,0.0,0.0,0.0,0.0,0.0,0.0,0.0,0.0,0.0,0.0,0.0,0.0,0.0,0.0,0.0,0.0,0.0,0.0,0.0,0.0,0.0,0.0,0.0,0.0,0.0,0.0,0.0,0.0,0.0,0.0,0.0,0.0,0.0,0.0,0.0,0.0,0.0,0.0,0.0,0.0,0.0,0.0,0.0,0.0,0.0,0.0,0.0,0.0,0.0,0.0,0.0,0.0,0.0,0.0,0.0,0.0,0.0,0.0,0.0,0.0,0.0,0.0,0.0,0.0,0.0,0.0,0.0,0.0,0.0,0.0,0.0,0.0,0.0,0.0,0.0,0.0,0.0,0.0,0.0,0.0,0.0,0.0,0.0,0.0,0.0,0.0,0.0,0.0,0.0,0.0,0.0,0.0,0.0,0.0,0.0,0.0,0.0,0.0,0.0,0.0,0.0,0.0,0.0,0.0,0.0,0.0,0.0,0.0,0.0,0.0,0.0,0.0,0.0,0.0,0.0,0.0,0.0,0.0,0.0,0.0,0.0,0.0,0.0,0.0,0.0,0.0,0.0,0.0,0.0,0.0,0.0,0.0,0.0,0.0,0.0,0.0,0.0,0.0,0.0,0.0,0.0,0.0,0.0,0.0,0.0,0.0,0.0,0.0,0.0,0.0,0.0,0.0,0.0,0.0,0.0,0.0,0.0,0.0,0.0,0.0,0.0,0.0,0.0,0.0,0.0,0.0,0.0,0.0,0.0,0.0,0.0,0.0,0.0,0.0,0.0,0.0,0.0,0.0,0.0,0.0,0.0,0.0,0.0,0.0,0.0,0.0,0.0,0.0,0.0,0.0,0.0,0.0,0.0,0.0,0.0,0.0,0.0,0.0,0.0,0.0,0.0,0.0,0.0,0.0,0.0,0.0,0.0,0.0,0.0,0.0,0.0,0.0,0.0,0.0,0.0,0.0,0.0,0.0,0.0,0.0,0.0,0.0,0.0,0.0,0.0,0.0,0.0,0.0,0.0,0.0,0.0,0.0,0.0,0.0,0.0,0.0,0.0,0.0,0.0,0.0,0.0,0.0,0.0,0.0,0.0,0.0,0.0,0.0,0.0,0.0,0.0,0.0,0.0,0.0,0.0,0.0,0.0,0.0,0.0,0.0,0.0,0.0,0.0,0.0,0.0,0.0,0.0,0.0,0.0,0.0,0.0,0.0,0.0,0.0,0.0,0.0,0.0,0.0,0.0,0.0,0.0,0.0,0.0,0.0,0.0,0.0,0.0,0.0,0.0,0.0,0.0,0.0,0.0,0.0,0.0,0.0,0.0,0.0,0.0,0.0,0.0,0.0,0.0,0.0,0.0,0.0,0.0,0.0,0.0,0.0,0.0,0.0,0.0,0.0,0.0,0.0,0.0,0.0,0.0,0.0,0.0,0.0,0.0,0.0,0.0,0.0,0.0,0.0,0.0,0.0,0.0,0.0,0.0,0.0,0.0,0.0,0.0,0.0,0.0,0.0,0.0,0.0,0.0,0.0,0.0,0.0,0.0,0.0,0.0,0.0,0.0,0.0,0.0,0.0,0.0,0.0,0.0,0.0,0.0,0.0,0.0,0.0,0.0,0.0,0.0,0.0,0.0,0.0,0.0,0.0,0.0,0.0,0.0,0.0,0.0,0.0,0.0,0.0,0.0,0.0,0.0,0.0,0.0,0.0,0.0,0.0,0.0,0.0,0.0,0.0,0.0,0.0,0.0,0.0,0.0,0.0,0.0,0.0,0.0,0.0,0.0,0.0,0.0,0.0,0.0,0.0,0.0,0.0,0.0,0.0,0.0,0.0,0.0,0.0,0.0,0.0,0.0,0.0,0.0,0.0,0.0,0.0,0.0,0.0,0.0,0.0,0.0,0.0,0.0,0.0,0.0,0.0,0.0,0.0,0.0,0.0,0.0,0.0,0.0,0.0,0.0,0.0,0.0,0.0,0.0,0.0,0.0,0.0,0.0,0.0,0.0,0.0,0.0,0.0,0.0,0.0,0.0,0.0,0.0,0.0,0.0,0.0,0.0,0.0,0.0,0.0,0.0,0.0,0.0,0.0,0.0,0.0,0.0,0.0,0.0,0.0,0.0,0.0,0.0,0.0,0.0,0.0,0.0,0.0,0.0,0.0,0.0,0.0,0.0,0.0,0.0,0.0,0.0,0.0,0.0,0.0,0.0,0.0,0.0,0.0,0.0,0.0,0.0,0.0,0.0,0.0,0.0,0.0,0.0,0.0,0.0,0.0,0.0,0.0,0.0,0.0,0.0,0.0,0.0,0.0,0.0,0.0,0.0,0.0,0.0,0.0,0.0,0.0,0.0,0.0,0.0,0.0,0.0,0.0,0.0,0.0,0.0,0.0,0.0,0.0,0.0,0.0,0.0,0.0,0.0,0.0,0.0,0.0,0.0,0.0,0.0,0.0,0.0,0.0,0.0,0.0,0.0,0.0,0.0,0.0,0.0,0.0,0.0,0.0,0.0,0.0,0.0,0.0,0.0,0.0,0.0,0.0,0.0,0.0,0.0,0.0,0.0,0.0,0.0,0.0,0.0,0.0,0.0,0.0,0.0,0.0,0.0,0.0,0.0,0.0,0.0,0.0,0.0,0.0,0.0,0.0,0.0,0.0,0.0,0.0,0.0,0.0,0.0,0.0,0.0,0.0,0.0,0.0,0.0,0.0,0.0,0.0,0.0,0.0,0.0,0.0,0.0,0.0,0.0,0.0,0.0,0.0,0.0,0.0,0.0,0.0,0.0,0.0,0.0,0.0,0.0,0.0,0.0,0.0,0.0,0.0,0.0,0.0,0.0,0.0,0.0,0.0,0.0,0.0,0.0,0.0,0.0,0.0,0.0,0.0,0.0,0.0,0.0,0.0,0.0,0.0,0.0,0.0,0.0,0.0,0.0,0.0,0.0,0.0,0.0,0.0,0.0,0.0,0.0,0.0,0.0,0.0,0.0,0.0,0.0,0.0,0.0,0.0,0.0,0.0,0.0,0.0,0.0,0.0,0.0,0.0,0.0,0.0,0.0,0.0,0.0,0.0,0.0,0.0,0.0,0.0,0.0,0.0,0.0,0.0,0.0,0.0,0.0,0.0,0.0,0.0,0.0,0.0,0.0,0.0,0.0,0.0,0.0,0.0,0.0,0.0,0.0,0.0,0.0,0.0,0.0,0.0,0.0,0.0,0.0,0.0,0.0,0.0,0.0,0.0,0.0,0.0,0.0,0.0,0.0,0.0,0.0,0.0,0.0,0.0,0.0,0.0,0.0,0.0,0.0,0.0,0.0,0.0,0.0,0.0,0.0,0.0,0.0,0.0,0.0,0.0,0.0,0.0,0.0,0.0,0.0,0.0,0.0,0.0,0.0,0.0,0.0,0.0,0.0,0.0,0.0,0.0,0.0,0.0,0.0,0.0,0.0,0.0,0.0,0.0,0.0,0.0,0.0,0.0,0.0,0.0,0.0,0.0,0.0,0.0,0.0,0.0,0.0,0.0,0.0,0.0,0.0,0.0,0.0,0.0,0.0,0.0,0.0,0.0,0.0,0.0,0.0,0.0,0.0,0.0,0.0,0.0,0.0,0.0,0.0,0.0,0.0,0.0,0.0,0.0,0.0,0.0,0.0,0.0,0.0,0.0,0.0,0.0,0.0,0.0,0.0,0.0,0.0,0.0,0.0,0.0,0.0,0.0,0.0,0.0,0.0,0.0,0.0,0.0,0.0,0.0,0.0,0.0,0.0,0.0,0.0,0.0,0.0,0.0,0.0,0.0,0.0,0.0,0.0,0.0,0.0,0.0,0.0,0.0,0.0,0.0,0.0,0.0,0.0,0.0,0.0,0.0,0.0,0.0,0.0,0.0,0.0,0.0,0.0,0.0,0.0,0.0,0.0,0.0,0.0,0.0,0.0,0.0,0.0,0.0,0.0,0.0,0.0,0.0,0.0,0.0,0.0,0.0,0.0,0.0,0.0,0.0,0.0,0.0,0.0,0.0,0.0,0.0,0.0,0.0,0.0,0.0,0.0,0.0,0.0,0.0,0.0,0.0,0.0,0.0,0.0,0.0,0.0,0.0,0.0,0.0,0.0,0.0,0.0,0.0,0.0,0.0,0.0,0.0,0.0,0.0,0.0,0.0,0.0,0.0,0.0,0.0,0.0,0.0,0.0,0.0,0.0,0.0,0.0,0.0,0.0,0.0,0.0,0.0,0.0,0.0,0.0,0.0,0.0,0.0,0.0,0.0,0.0,0.0,0.0,0.0,0.0,0.0,0.0,0.0,0.0,0.0,0.0,0.0,0.0,0.0,0.0,0.0,0.0,0.0,0.0,0.0,0.0,0.0,0.0,0.0,0.0,0.0,0.0,0.0,0.0,0.0,0.0,0.0,0.0,0.0,0.0,0.0,0.0,0.0,0.0,0.0,0.0,0.0,0.0,0.0,0.0,0.0,0.0,0.0,0.0,0.0,0.0,0.0,0.0,0.0,0.0,0.0,0.0,0.0,0.0,0.0,0.0,0.0,0.0,0.0,0.0,0.0,0.0,0.0,0.0,0.0,0.0,0.0,0.0,0.0,0.0,0.0,0.0,0.0,0.0,0.0,0.0,0.0,0.0,0.0,0.0,0.0,0.0,0.0,0.0,0.0,0.0,0.0,0.0,0.0,0.0,0.0,0.0,0.0,0.0,0.0,0.0,0.0,0.0,0.0,0.0,0.0,0.0,0.0,0.0,0.0,0.0,0.0,0.0,0.0,0.0,0.0,0.0,0.0,0.0,0.0,0.0,0.0,0.0,0.0,0.0,0.0,0.0,0.0,0.0,0.0,0.0,0.0,0.0,0.0,0.0,0.0,0.0,0.0,0.0,0.0,0.0,0.0,0.0,0.0,0.0,0.0,0.0,0.0,0.0,0.0,0.0,0.0,0.0,0.0,0.0,0.0,0.0,0.0,0.0,0.0,0.0,0.0,0.0,0.0,0.0,0.0,0.0,0.0,0.0,0.0,0.0,0.0,0.0,0.0,0.0,0.0,0.0,0.0,0.0,0.0,0.0,0.0,0.0,0.0,0.0,0.0,0.0,0.0,0.0,0.0,0.0,0.0,0.0,0.0,0.0,0.0,0.0,0.0,0.0,0.0,0.0,0.0,0.0,0.0,0.0,0.0,0.0,0.0,0.0,0.0,0.0,0.0,0.0,0.0,0.0,0.0,0.0,0.0,0.0,0.0,0.0,0.0,0.0,0.0,0.0,0.0,0.0,0.0,0.0,0.0,0.0,0.0,0.0,0.0,0.0,0.0,0.0,0.0,0.0,0.0,0.0,0.0,0.0,0.0,0.0,0.0,0.0,0.0,0.0,0.0,0.0,0.0,0.0,0.0,0.0,0.0,0.0,0.0,0.0,0.0,0.0,0.0,0.0,0.0,0.0,0.0,0.0,0.0,0.0,0.0,0.0,0.0,0.0,0.0,0.0,0.0,0.0,0.0,0.0,0.0,0.0,0.0,0.0,0.0,0.0,0.0,0.0,0.0,0.0,0.0,0.0,0.0,0.0,0.0,0.0,0.0,0.0,0.0,0.0,0.0,0.0,0.0,0.0,0.0,0.0,0.0,0.0,0.0,0.0,0.0,0.0,0.0,0.0,0.0,0.0,0.0,0.0,0.0,0.0,0.0,0.0,0.0,0.0,0.0,0.0,0.0,0.0,0.0,0.0,0.0,0.0,0.0,0.0,0.0,0.0,0.0,0.0,0.0,0.0,0.0,0.0,0.0,0.0,0.0,0.0,0.0,0.0,0.0,0.0,0.0,0.0,0.0,0.0,0.0,0.0,0.0,0.0,0.0,0.0,0.0,0.0,0.0,0.0,0.0,0.0,0.0,0.0,0.0,0.0,0.0,0.0,0.0,0.0,0.0,-0.9197,0.0,0.0,0.0,0.0,0.0,0.0,0.0,0.0,0.0,0.0,0.0,0.0,0.0,0.0,0.0,0.0,0.0,0.0,0.0,0.0,0.0,0.0,0.0,0.0,1.9003,1.8851,1.8711,1.8595,1.8517,1.8517,0.0,0.0,0.0,0.0,0.0,1.8913,1.8913,1.9107,1.9417,1.974,1.974,1.9417,1.9417,1.9107,1.8517,0.0,0.0,0.0,0.0,0.0,0.0,0.0,0.0,0.0,0.0,0.0,0.0,0.0,0.0,0.0,0.0,0.0,0.0,0.0,0.0,0.0,0.0,0.0,0.0,0.0,0.0,0.0,0.0,0.0,0.0,0.0,0.0,0.0,0.0,0.0,0.0,0.0,0.0,0.0,0.0,0.0,0.0,0.0,0.0,0.0,0.0,0.0,0.0,0.0,0.0,0.0,0.0,0.0,0.0,0.0,0.0,0.0,0.0,0.0,0.0,0.0,0.0,0.0,0.0,0.0,0.0,0.0,0.0,0.0,0.0,0.0,-1.0167,0.0,0.0,0.0,0.0,0.0,0.0,0.0,0.0,0.0,0.0,0.0,0.0,0.0,0.0,0.0,0.0,0.0,0.0,0.0,0.0,0.0,1.9777,1.9362,1.9213,1.8988,1.8673,1.8556,1.8517,1.8517,1.8517,0.0,0.0,0.0,1.8871,1.9376,1.9502,1.9866,2.04,2.0472,2.0528,2.0627,2.0599,2.0032,1.9024,1.8945,0.0,0.0,0.0,0.0,0.0,0.0,0.0,0.0,0.0,0.0,0.0,0.0,0.0,0.0,0.0,0.0,0.0,0.0,0.0,0.0,0.0,0.0,0.0,0.0,0.0,0.0,0.0,0.0,0.0,0.0,0.0,0.0,0.0,0.0,0.0,0.0,0.0,0.0,0.0,0.0,0.0,0.0,0.0,0.0,0.0,0.0,0.0,0.0,0.0,0.0,0.0,0.0,0.0,0.0,0.0,0.0,0.0,0.0,0.0,0.0,0.0,0.0,0.0,0.0,0.0,-0.904,-1.0657,-1.1807,-1.2338,-1.1381,-1.0908,-1.0916,0.0,0.0,0.0,0.0,0.0,0.0,0.0,0.0,0.0,0.0,0.0,0.0,0.0,0.0,0.0,0.0,0.0,0.0,0.0,0.0,1.953,1.9406,1.9258,1.9011,1.8556,1.8517,1.8517,1.8517,1.8517,1.8517,1.8517,1.8983,1.9305,1.939,1.9978,2.0316,2.04,2.0684,2.111,2.1585,2.1374,2.1186,2.1009,2.07,2.0645,2.0724,0.0,0.0,0.0,0.0,0.0,0.0,0.0,0.0,0.0,0.0,0.0,0.0,0.0,0.0,0.0,0.0,0.0,0.0,0.0,0.0,0.0,0.0,0.0,0.0,0.0,0.0,0.0,0.0,0.0,0.0,0.0,0.0,0.0,0.0,0.0,0.0,0.0,0.0,0.0,0.0,0.0,0.7544,0.653,0.0,0.0,0.0,0.0,0.0,0.0,0.0,0.0,0.0,0.0,0.0,0.0,0.0,0.0,-0.5108,-0.5438,-0.6042,-0.6987,-0.722,-0.8159,-0.9684,-1.0436,-1.1246,-1.2111,-1.2815,0.0,-1.2905,-1.3023,0.0,0.0,0.0,0.0,0.0,0.0,0.0,0.0,0.0,0.0,0.0,0.0,0.0,0.0,0.0,0.0,0.0,0.0,0.0,0.0,0.0,1.9258,1.8898,1.8634,1.8556,1.8517,1.8517,1.8517,1.8632,1.8969,1.9249,1.9754,2.0442,2.0737,2.106,2.1397,2.1756,2.2061,2.2277,2.2178,2.2348,2.2742,2.2574,2.2076,2.123,2.0805,0.0,0.0,0.0,0.0,0.0,0.0,0.0,0.0,0.0,0.0,0.0,0.0,0.0,0.0,0.0,0.0,0.0,0.0,0.0,0.0,0.0,0.0,0.0,0.0,0.0,0.0,0.0,0.0,0.0,0.0,0.0,0.0,0.0,0.0,0.0,0.0,0.0,0.0,0.0,0.6966,0.6668,0.6082,0.5658,0.4768,0.0,0.0,0.0,0.0,0.0,0.0,0.0,0.0,0.0,-0.3149,-0.3685,-0.4196,-0.4801,-0.5639,-0.6493,-0.7346,-0.8511,-0.9682,-1.0792,-1.1755,-1.248,-1.2906,-1.3708,-1.4061,-1.4099,-1.4074,-1.4204,-1.4364,0.0,0.0,0.0,0.0,0.0,0.0,0.0,0.0,0.0,0.0,0.0,0.0,0.0,0.0,0.0,0.0,0.0,0.0,1.9859,1.9406,1.8974,1.8774,1.8595,1.8517,1.8517,1.8618,1.8913,1.9376,1.9698,2.033,2.1288,2.1457,2.1766,2.2184,2.2526,2.2754,2.2844,2.2934,2.3334,2.3925,2.3925,2.3266,2.2113,2.1732,2.1617,2.1598,0.0,0.0,0.0,0.0,0.0,0.0,0.0,0.0,0.0,0.0,0.0,0.0,0.0,0.0,0.0,0.0,0.0,0.0,0.0,0.0,0.0,0.0,0.0,0.0,0.0,0.0,0.0,0.0,0.0,0.0,0.0,0.0,0.0,0.0,0.0,0.0,0.0,0.6321,0.6083,0.573,0.5465,0.4662,0.0,0.0,0.0,0.0,0.0,0.0,-0.1813,-0.1813,-0.2281,-0.3149,-0.3882,-0.4483,-0.4815,-0.6067,-0.7111,-0.8071,-0.966,-1.0871,-1.1834,-1.2834,-1.3338,-1.339,-1.4043,-1.4519,-1.4836,-1.4903,-1.5026,-1.5188,-1.5188,-1.5478,0.0,-1.6638,-1.7097,-1.7549,0.0,0.0,0.0,0.0,0.0,0.0,0.0,0.0,0.0,0.0,0.0,2.0392,2.01,1.9788,1.9391,1.8936,1.8659,1.8517,1.8517,1.9025,1.9362,1.939,2.0555,2.1245,2.1316,2.1879,2.2156,2.2184,2.2526,2.2889,2.3275,2.3625,2.3909,2.4261,2.4261,2.423,2.4081,2.3193,2.296,2.3099,2.2058,0.0,0.0,0.0,0.0,0.0,0.0,0.0,0.0,0.0,0.0,0.0,0.0,0.0,0.0,0.0,0.0,0.0,0.0,0.0,0.0,0.0,0.0,0.0,0.0,0.0,0.0,0.0,0.0,0.0,0.0,0.0,0.0,0.0,0.0,0.0,0.0,0.0,0.0,0.6057,0.5441,0.0,0.0,0.0,0.0,0.0739,-0.0404,-0.1079,-0.1146,-0.1146,-0.1749,-0.3151,-0.3944,-0.4935,-0.6264,-0.699,-0.8215,-0.9857,-0.999,-1.0885,-1.256,-1.2621,-1.2805,-1.3042,-1.3545,-1.4314,-1.5167,-1.5429,-1.5928,-1.6507,-1.6507,-1.6789,-1.7357,-1.8424,-1.885,-1.9061,0.0,0.0,0.0,0.0,0.0,2.1309,2.1309,2.1183,2.1119,2.1103,2.0712,2.0342,2.01,1.9515,1.9072,1.8898,1.8659,1.8517,1.8517,1.9053,1.9572,2.0035,2.0836,2.1499,2.1893,2.2289,2.2526,2.2526,2.2889,2.326,2.361,2.3754,2.3967,2.4302,2.4302,2.4302,2.4302,2.3917,2.4014,2.4217,2.306,2.2839,0.0,0.0,0.0,0.0,0.0,0.0,0.0,0.0,0.0,0.0,0.0,0.0,0.0,0.0,0.0,0.0,0.0,0.0,0.0,0.0,0.0,0.0,0.0,0.0,0.0,0.0,0.0,0.0,0.0,0.0,0.0,0.0,0.0,0.0,0.0,0.0,0.0,0.5643,0.5252,0.0,0.0,0.3355,0.2351,0.1344,0.0875,0.0269,-0.0674,-0.1508,-0.2551,-0.3908,-0.4737,-0.5898,-0.7564,-0.826,-0.9276,-1.059,-1.1082,-1.1956,-1.3219,-1.3219,-1.3284,-1.3413,-1.403,-1.5078,-1.6304,-1.687,-1.7201,-1.7457,-1.7501,-1.7897,-1.8506,-1.9239,-1.996,-2.0668,0.0,0.0,0.0,2.1495,2.1433,2.1402,2.1309,2.1246,2.1199,2.1038,2.0679,2.0392,2.0185,1.9588,1.9161,1.9064,1.8798,1.8758,1.897,1.9457,2.0077,2.0826,2.1465,2.1977,2.2342,2.2709,2.2844,2.2694,2.3083,2.348,2.3797,2.3797,2.3967,2.4302,2.4302,2.4302,2.4302,2.4451,2.4639,2.4816,2.4163,2.4069,2.4198,0.0,0.0,0.0,0.0,0.0,0.0,0.0,0.0,0.0,0.0,0.0,0.0,0.0,0.0,0.0,0.0,0.0,0.0,0.0,0.0,0.0,0.0,0.0,0.0,0.0,0.0,0.0,0.0,0.0,0.0,0.0,0.0,0.0,0.0,0.0,0.5689,0.5074,0.4824,0.4564,0.43,0.3496,0.2825,0.2559,0.1356,-0.0068,-0.1706,-0.2868,-0.3961,-0.5132,-0.6001,-0.7128,-0.8559,-0.9276,-1.017,-1.1253,-1.2258,-1.3012,-1.3651,-1.4581,-1.4768,-1.4328,-1.5285,-1.6413,-1.7595,-1.8044,-1.8533,-1.8955,-1.8888,-1.9175,-1.9679,-2.0391,-2.1133,-2.1865,0.0,2.2341,2.2062,2.1768,2.1708,2.1617,2.134,2.1183,2.1023,2.0827,2.0628,2.046,2.0304,1.9995,1.9696,1.945,1.9101,1.9224,1.9966,2.0245,2.0869,2.1802,2.2422,2.274,2.274,2.3127,2.3127,2.274,2.3127,2.3494,2.3839,2.3824,2.4009,2.4343,2.4302,2.4302,2.4343,2.4759,2.4942,2.4981,2.5351,2.5481,2.5287,0.0,0.0,0.0,0.0,0.0,0.0,0.0,0.0,0.0,0.0,0.0,0.0,0.0,0.0,0.0,0.0,0.0,0.0,0.0,0.0,0.0,0.0,0.0,0.0,0.0,0.0,0.0,0.0,0.0,0.0,0.0,0.0,0.0,0.5919,0.5776,0.5481,0.4364,0.4036,0.3971,0.4233,0.2622,0.2291,0.4059,0.076,-0.2244,-0.4418,-0.5244,-0.5953,-0.6643,-0.7703,-0.8564,-0.9373,-1.0003,-1.0974,-1.214,-1.3431,-1.3967,-1.3866,-1.6611,-1.7101,-1.5852,-1.7287,-1.8298,-1.8862,-1.903,-1.989,-2.1124,-2.0619,-2.055,-2.0836,-2.1998,-2.2431,-2.2658,2.1769,2.1547,2.1407,2.1857,2.1797,2.1694,2.1603,2.1556,2.1371,2.086,2.0761,2.0595,2.0339,1.9995,1.9752,1.9696,1.9435,1.9566,2.0235,2.0761,2.1649,2.3066,2.3389,2.3565,2.3565,2.3666,2.3794,2.3918,2.3879,2.4162,2.467,2.4302,2.4451,2.4918,2.4508,2.4639,2.516,2.5275,2.5503,2.5762,2.5519,2.5631,2.5819,0.0,0.0,0.0,0.0,0.0,0.0,0.0,0.0,0.0,0.0,0.0,0.0,0.0,0.0,0.0,0.0,0.0,0.0,0.0,0.0,0.0,0.0,0.0,0.0,0.0,0.0,0.0,0.0,0.0,0.0,0.0,0.0,0.7372,0.6335,0.6237,0.554,0.3616,0.3155,0.2958,0.2757,0.2054,0.1456,0.118,-0.363,-0.6841,-0.7507,-0.7187,-0.7539,-0.8641,-0.8753,-0.9406,-1.0821,-1.1259,-1.2663,-1.4792,-1.4198,-1.5137,-1.7414,-1.7244,-1.7434,-1.8051,-1.8451,-1.9296,-2.0409,-2.0398,-2.1378,-2.2669,-2.1485,-2.1163,-2.143,-2.2551,-2.3509,-2.4451,2.1144,2.1265,2.1358,2.1613,2.1843,2.1961,2.184,2.1678,2.1464,2.1103,2.0811,2.0595,2.0407,2.017,1.9945,1.9823,1.966,1.9834,2.0512,2.1515,2.245,2.3356,2.3853,2.4116,2.4116,2.4256,2.4379,2.4389,2.4436,2.467,2.5005,2.4815,2.4918,2.5192,2.4997,2.5098,2.5503,2.5689,2.598,2.6298,2.6193,2.6229,2.628,2.5598,2.5519,2.5635,2.4863,2.4553,2.4495,2.3827,0.0,0.0,0.0,0.0,0.0,0.0,0.0,0.0,0.0,0.0,0.0,0.0,0.0,0.0,0.0,0.0,0.0,0.0,0.0,0.0,0.0,0.0,0.0,0.0,0.8801,0.726,0.6531,0.6133,0.5137,0.2876,0.1873,0.1278,0.1022,-0.0138,-0.1193,-0.1777,-0.4965,-0.7444,-0.8661,-0.8877,-0.9324,-0.9909,-1.0301,-1.095,-1.1855,-1.2231,-1.3556,-1.5904,-1.5634,-1.6716,-1.8878,-1.9293,-1.9554,0.0,-2.0403,-2.13,-2.2274,-2.2274,-2.3144,0.0,0.0,0.0,0.0,0.0,-2.5033,-2.6162,2.0576,2.1115,2.144,2.1285,2.182,2.2203,2.2084,2.1735,2.1479,2.1448,2.0926,2.0595,2.0561,2.0441,2.022,1.9909,1.9859,2.0146,2.0849,2.2247,2.3115,2.3231,2.3971,2.4433,2.4511,2.4895,2.4895,2.4527,2.4855,2.5045,2.5123,2.5323,2.5368,2.5368,2.561,2.5721,2.5689,2.6016,2.6351,2.6723,2.71,2.7085,2.6741,2.6193,2.6227,2.6521,2.5908,2.5709,2.5591,2.504,0.0,0.0,0.0,0.0,0.0,0.0,0.0,0.0,0.0,0.0,0.0,0.0,0.0,0.0,0.0,0.0,0.0,0.0,0.0,0.0,0.0,0.0,0.0,0.0,0.8982,0.719,0.6593,0.5602,0.4204,0.2206,0.0469,-0.061,-0.0903,-0.3083,-0.4556,-0.4884,-0.4987,-0.6183,-0.8718,0.0,0.0,0.0,0.0,-1.2592,-1.2872,-1.3098,-1.4339,-1.651,-1.7562,-1.8573,-1.9598,-2.1918,-2.2433,-2.1498,-2.2761,-2.3649,-2.4176,-2.4176,-2.4824,-2.5686,-2.4483,-2.4118,-2.4465,-2.555,-2.6745,0.0,1.9919,1.9787,2.0044,2.1371,2.1516,2.1613,2.2248,2.2265,2.2061,2.1628,2.137,2.115,2.091,2.0778,2.0628,2.0376,2.0376,2.0671,2.1317,2.2342,2.3248,2.3967,2.4319,2.4783,2.5339,2.5448,2.5448,2.5355,2.5278,2.5432,2.5791,2.5535,2.5779,2.6401,2.598,2.6139,2.6708,2.6623,2.6788,2.7192,2.7457,2.7565,2.7474,2.7251,2.7206,2.721,2.7017,2.6937,2.6807,2.6404,2.6218,2.5912,2.4538,2.3907,0.0,0.0,0.0,0.0,0.0,0.0,0.0,0.0,0.0,0.0,0.0,0.0,0.0,0.0,0.0,0.0,0.0,0.0,0.0,1.1633,0.8837,0.6724,0.6985,0.4527,0.2271,0.1202,-0.0341,-0.1732,-0.2867,-0.407,-0.5683,-0.7724,-0.8675,-0.9372,-0.9933,-1.0686,0.0,-1.0962,-1.1558,-1.2757,-1.4553,-1.4915,-1.6757,-1.9986,0.0,0.0,-2.3085,-2.2456,-2.2877,-2.4271,-2.454,-2.4724,-2.4851,-2.4851,-2.5217,-2.5849,-2.6208,-2.6651,-2.7041,-2.7136,-2.7868,-2.8701,1.9471,1.9469,1.9691,2.0465,2.107,2.1617,2.2082,2.2366,2.2456,2.2186,2.1903,2.1655,2.1415,2.1245,2.1119,2.1023,2.0878,2.0905,2.1148,2.2136,2.3047,2.3845,2.4411,2.5036,2.5791,2.5675,2.5675,2.5824,2.5696,2.5828,2.6225,2.6139,2.6332,2.6691,2.6707,2.6905,2.7213,2.7269,2.7465,2.7776,2.8047,2.8147,2.8083,2.766,2.7452,2.7378,2.7317,2.7258,2.7181,2.7021,2.6891,2.6723,2.5949,2.5083,2.4261,0.0,0.0,0.0,0.0,0.0,0.0,0.0,0.0,0.0,0.0,0.0,0.0,0.0,0.0,1.4697,1.4866,0.0,1.1912,1.2235,0.9203,0.692,0.7181,0.3353,0.034,-0.0068,-0.165,-0.3502,-0.5616,-0.6649,-0.7843,-0.9505,-1.0276,-1.0709,-1.0709,-1.2044,-1.2802,-1.2802,-1.4284,-1.5608,-1.6697,-1.7039,-1.8685,-2.144,-2.0445,-2.1587,-2.4509,-2.3475,-2.3709,-2.5007,-2.5007,-2.5412,-2.6101,-2.6576,-2.7143,-2.7743,-2.8003,-2.8003,-2.7792,-2.7822,-2.8401,-2.9028,1.9338,1.959,1.9774,1.9671,2.0723,2.1692,2.1942,2.2498,2.2848,2.2848,2.2504,2.2224,2.1998,2.1777,2.1658,2.1554,2.1306,2.1134,2.1007,2.1843,2.2704,2.3473,2.4296,2.5106,2.5886,2.5835,2.5937,2.6173,2.6173,2.6297,2.6573,2.6808,2.6906,2.6954,2.7444,2.7607,2.756,2.7869,2.8102,2.8316,2.8522,2.8633,2.8619,2.8029,2.7718,2.7577,2.7547,2.7474,2.7369,2.7307,2.7213,2.707,2.7006,2.5966,2.4792,2.4756,2.3469,0.0,0.0,0.0,0.0,0.0,0.0,0.0,0.0,0.0,1.678,1.6386,1.6032,1.5661,1.5449,1.376,1.2358,1.2334,0.9503,0.7298,0.7046,0.2301,-0.1178,-0.1529,-0.3285,-0.5419,-0.787,-0.891,-0.9674,-1.0375,-1.1292,-1.1822,-1.1749,-1.392,-1.5171,-1.5171,-1.7194,-1.8548,-1.9209,-1.9447,-2.074,-2.2951,-2.26,-2.3651,-2.5826,-2.5535,-2.5688,-2.624,-2.6254,-2.691,-2.8046,-2.8855,-2.9575,-3.0105,-2.9971,-2.9418,-2.8669,-2.8576,-2.8856,-2.9348,1.9755,1.9782,1.9862,2.0083,2.0745,2.1494,2.2228,2.2954,2.3392,2.3346,2.3141,2.2855,2.2556,2.2378,2.2164,2.1811,2.1584,2.1524,2.1661,2.1804,2.2258,2.3112,2.3894,2.4677,2.5545,2.6236,2.6641,2.6807,2.6807,2.6937,2.721,2.7241,2.7409,2.7783,2.784,2.7908,2.8047,2.8246,2.8464,2.8652,2.8626,2.8743,2.8957,2.8868,2.8601,2.83,2.83,2.8191,2.8025,2.773,2.7552,2.7355,2.6956,2.6471,2.595,2.5595,2.4515,2.3398,2.2955,2.1798,2.0763,2.102,2.0161,1.9499,0.0,0.0,1.8049,1.846,1.7741,1.6687,1.5603,1.4808,1.3579,1.1312,0.9295,0.7584,0.6379,0.1965,-0.16,-0.2965,-0.5029,-0.678,-0.7832,-0.8743,-0.9546,-1.0162,-1.2839,-1.4277,-1.4126,-1.6225,-1.7407,-1.7407,-1.7687,-1.92,-2.1979,-2.211,-2.3616,-2.6637,-2.7307,-2.8111,-2.8931,-2.9604,-3.0183,-3.0783,-3.0814,-3.0911,-3.1039,-3.1244,-3.1602,-3.2032,-3.2309,-3.2159,-3.16,-3.0163,-2.9924,-3.0199,1.992,1.992,1.9949,2.0062,2.048,2.1109,2.2021,2.2794,2.34,2.3795,2.379,2.3602,2.3236,2.3117,2.2979,2.2643,2.253,2.2415,2.222,2.2341,2.2754,2.3413,2.3777,2.4624,2.5996,2.6085,2.657,2.7472,2.7357,2.7495,2.7872,2.7872,2.7946,2.8075,2.8402,2.8554,2.8603,2.8956,2.9132,2.9177,2.9254,2.9251,2.9191,2.9295,2.9104,2.8755,2.8755,2.8676,0.0,2.8264,2.8017,2.776,2.7413,2.7083,2.6757,2.6368,2.5517,2.4627,2.4115,2.2991,2.2017,2.2194,2.177,2.1139,2.079,1.9615,1.8534,1.8407,1.7501,1.6358,1.5468,1.4796,1.3605,0.0,0.9472,0.7205,0.4116,0.0068,-0.3375,-0.5447,-0.8571,-1.0882,-1.1827,-1.3128,-1.4128,-1.4717,-1.5861,-1.651,-1.6432,-1.8931,-2.0427,-2.0427,-2.2157,-2.3715,-2.5047,-2.5612,-2.6721,-2.8465,-2.891,-2.9651,-3.064,-3.0588,-3.0941,-3.1612,-3.2092,-3.2319,-3.2392,-3.2436,-3.2794,-3.333,-3.2949,-3.2942,-3.3019,-3.17,-3.1041,-3.0733,2.0096,2.0115,2.0096,2.0097,2.0274,2.0746,2.1642,2.2609,2.3434,2.3957,2.4238,2.4228,2.3848,2.3767,2.3623,2.3374,2.3365,2.32,2.2822,2.2996,2.326,2.3667,2.3938,2.469,2.602,2.6163,2.6778,2.7859,2.7924,2.8157,2.8529,2.8511,2.8511,2.856,2.896,2.9132,2.9114,2.9475,2.9607,2.9642,2.9662,2.957,2.9439,2.957,2.9416,2.9151,2.9038,2.892,2.8791,2.8644,2.8396,2.811,2.7971,2.7695,2.733,2.6987,2.6318,2.557,2.4989,2.4257,2.3599,2.3496,2.3242,2.2731,2.1611,2.0218,1.9117,1.8843,1.7412,1.6026,1.5507,1.4414,1.2918,1.0781,0.837,0.5503,0.1815,-0.2937,-0.6798,-0.8797,-1.322,-1.6523,-1.7422,-1.7293,-1.7369,-1.7986,-1.8685,-1.908,-1.9005,-2.1872,-2.3489,-2.3489,-2.5688,-2.7136,-2.7811,-2.8698,-2.975,-3.092,-3.1478,-3.223,-3.3083,-3.2917,-3.3077,-3.3581,-3.415,-3.4432,-3.4501,-3.4561,-3.476,-3.499,-3.4421,-3.4289,-3.426,-3.339,-3.2547,-3.1702,2.0385,2.0379,2.0366,2.0301,2.0306,2.0507,2.1124,2.2571,2.3593,2.3631,2.4308,2.4678,2.4414,2.4152,2.3915,2.3797,2.3795,2.3731,2.3588,2.3566,2.3584,2.3602,2.4352,2.4896,2.5139,2.6721,2.7636,2.7803,2.8525,2.8934,2.9064,2.9008,2.9116,2.9379,2.9457,2.9514,2.9587,2.9588,2.9765,2.995,2.9514,2.9495,2.9769,2.9661,2.9589,2.9533,2.9129,2.892,2.8797,2.8773,2.8651,2.8492,2.8466,2.8102,2.7654,2.7422,2.6757,2.598,2.5577,2.5449,2.5319,2.495,2.4592,2.4184,2.3636,2.168,2.0115,2.0677,1.8182,1.5901,1.5894,1.3847,1.1385,0.8902,0.5265,0.2109,0.013,-0.6966,-1.2277,-1.3109,-1.9212,-2.3581,0.0,-1.9856,-1.7128,-1.7755,-2.0614,-2.23,-2.2157,-2.494,-2.6579,-2.6579,-2.6644,-2.7777,-3.0092,-3.0905,-3.2454,-3.4748,-3.6315,-3.7091,-3.7154,-3.7973,-3.8372,-3.8391,-3.8417,-3.8377,-3.8329,-3.8479,-3.812,-3.7504,-3.7677,-3.6899,-3.57,-3.5409,-3.4645,-3.3669,2.0464,2.046,2.046,2.0449,2.043,2.0495,2.0706,2.1615,2.2669,2.3724,2.4525,0.0,0.0,0.0,0.0,0.0,2.462,2.4496,2.4273,2.4251,2.4186,2.4063,2.4321,2.4838,2.5624,2.6041,2.6985,2.8464,2.8531,2.8964,2.9704,2.9672,2.9687,2.9728,2.9899,2.997,3.001,3.0126,3.0256,3.0309,3.0101,3.0094,3.0177,3.0098,3.0032,2.998,0.0,2.9672,2.9514,2.9379,2.92,2.9012,2.8883,2.8675,2.8373,2.7784,2.7226,2.6787,2.6589,2.6556,2.6472,2.608,2.5473,2.4823,2.4158,2.2101,2.0403,2.0565,1.833,1.628,1.6172,1.3874,1.0656,0.6737,0.3938,-0.0313,-0.7777,-1.1361,-1.473,-1.8739,-2.2312,0.0,0.0,0.0,0.0,-2.3715,-2.4723,-2.5289,-2.5236,-2.7105,-2.8383,-2.8939,-2.9892,-3.1301,-3.3155,-3.3952,-3.5037,-3.65,-3.7631,-3.8177,-3.8177,-3.8476,-3.8607,-3.8607,-3.8607,-3.8637,-3.8704,-3.8635,-3.8526,-3.8398,-3.8442,-3.8026,-3.744,-3.7165,-3.6718,-3.6007,0.0,2.0456,2.0458,2.0421,2.0423,0.0,0.0,0.0,0.0,0.0,0.0,0.0,0.0,0.0,0.0,0.0,0.0,2.4842,2.4657,2.4639,2.4596,2.4522,2.4555,2.4908,2.5603,2.5819,2.6595,2.7971,2.808,2.8653,2.9674,2.9648,2.9821,3.0117,3.0279,3.0347,3.0347,3.0479,3.056,3.0556,3.0468,3.0451,3.046,3.0376,3.0317,0.0,3.0306,3.0237,3.01,2.9863,2.9683,2.9526,2.9326,2.9105,2.881,2.8283,2.7879,2.7589,2.7496,2.7425,2.7274,2.6877,2.6218,2.5505,2.4846,2.2703,2.0938,2.1377,1.8706,1.6229,1.5936,1.3127,0.96,0.5868,0.2945,-0.1948,-1.0668,-1.3837,-1.7537,-2.354,-2.6289,-2.7627,0.0,0.0,0.0,-2.6872,-2.7483,-2.7906,-2.7906,-2.9543,-3.0741,-3.1265,-3.2493,-3.3817,-3.5147,-3.6186,-3.7344,-3.8571,-3.9143,-3.941,-3.941,-3.9452,-3.9452,-3.9471,-3.9468,-3.947,-3.9509,-3.9407,-3.9245,-3.9096,-3.9051,-3.8739,-3.829,-3.8113,-3.7923,-3.7435,0.0,0.0,2.037,0.0,0.0,0.0,0.0,0.0,0.0,0.0,0.0,0.0,0.0,0.0,0.0,0.0,0.0,0.0,2.4713,2.4709,2.4757,2.4881,2.5015,2.5077,2.5086,2.5954,2.6448,2.6487,2.7186,2.8062,2.9021,2.901,2.951,3.045,3.0539,3.0592,3.0587,3.0587,3.0625,3.0661,3.0549,3.0534,3.0587,3.0471,3.0445,3.0516,3.0515,3.0561,3.0567,3.0246,3.0074,2.9992,2.9855,2.9476,2.9037,2.8953,2.8677,2.8354,2.8294,2.8129,2.7857,2.7425,2.6869,2.6334,2.579,2.3542,2.1865,2.2937,1.9459,1.5987,0.0,0.0,0.787,0.5694,0.1478,-0.3578,-0.9532,-1.5196,-2.1079,0.0,0.0,0.0,0.0,0.0,0.0,-2.7501,0.0,-3.0258,-3.0258,-3.2259,-3.3432,-3.3457,-3.4326,-3.5192,-3.6117,-3.7713,-3.9304,-4.0818,-4.0858,-4.0917,-4.0908,-4.0979,-4.0994,-4.1,-4.0996,-4.093,-4.0796,-4.0723,-4.0289,-3.9671,-3.9665,-3.9158,-3.8395,-3.8444,-3.8332,-3.7982,0.0,0.0,0.0,0.0,0.0,0.0,0.0,0.0,0.0,0.0,0.0,0.0,0.0,0.0,0.0,0.0,0.0,0.0,2.4851,2.481,2.4794,2.4823,2.4801,2.482,2.4879,2.5109,2.5593,2.6342,2.6549,2.7153,2.8141,2.8729,2.9199,2.9569,3.0125,3.0409,3.0445,3.0443,3.0459,3.0476,3.0497,3.0503,3.0525,3.0547,3.0566,3.0586,3.0623,3.0699,3.0712,3.0529,3.0433,3.0334,3.0088,2.9942,2.9791,2.9567,2.942,2.9307,2.9082,2.8993,2.8883,2.8603,2.7959,2.7208,2.6698,2.4991,2.3443,2.301,2.078,1.8095,0.0,0.0,0.0,-0.2433,-0.8622,0.0,-2.1272,-2.4001,0.0,-3.0873,0.0,-3.3531,-3.3506,-3.356,0.0,0.0,-3.234,-3.2619,-3.2563,-3.3091,-3.365,-3.4204,-3.5098,-3.6273,-3.7702,-3.9451,-4.0544,-4.0941,-4.0964,-4.0968,-4.0974,-4.0992,-4.0996,-4.0996,-4.1007,-4.0984,-4.094,-4.0828,-4.0704,-4.0544,-4.0404,-4.0118,-3.9732,-3.9233,-3.8943,-3.8663,0.0,0.0,0.0,0.0,0.0,0.0,0.0,0.0,0.0,0.0,0.0,0.0,0.0,0.0,0.0,0.0,0.0,0.0,0.0,2.4722,2.4745,2.4812,2.4769,2.475,2.4811,2.4802,2.5072,2.564,2.5553,2.6041,2.7055,2.7404,2.7852,2.8443,2.9232,2.9644,2.9729,3.0144,3.0326,0.0,0.0,3.0486,3.0546,3.0611,3.0587,3.0531,3.0657,3.0749,3.0796,3.0701,3.0638,3.0567,3.0385,3.0286,3.0232,3.0056,2.9997,2.9932,2.9747,2.9618,2.9476,2.9301,2.8677,2.8003,2.768,2.6051,2.439,2.3588,2.0494,1.7033,1.4081,0.6391,-0.0943,0.0,0.0,0.0,-2.388,-2.5491,-2.7766,0.0,-3.3733,0.0,-3.4278,-3.4483,-3.4486,0.0,-3.406,-3.3975,-3.3929,-3.4257,-3.4808,-3.5622,-3.6519,-3.7793,-3.9471,-4.0449,-4.0953,-4.0944,-4.0847,-4.0857,-4.1007,-4.0878,-4.0898,-4.1047,0.0,-4.1033,-4.1025,-4.0901,-4.0844,-4.0832,-4.0729,-4.0538,-4.0287,-3.989,-3.9535,-3.9189,0.0,0.0,0.0,0.0,0.0,0.0,0.0,0.0,0.0,0.0,2.3025,2.379,0.0,0.0,0.0,0.0,0.0,0.0,0.0,0.0,2.447,2.4591,2.4606,2.4622,2.4662,2.4628,2.4628,2.4676,2.4482,2.4862,2.581,2.5693,2.6184,2.7206,2.8023,2.8499,2.8739,2.9522,2.9967,3.0151,3.0211,3.0336,3.047,0.0,3.0498,3.0369,3.0564,3.0689,3.0746,3.0774,3.0759,3.068,3.0647,3.0568,3.0529,3.0455,3.041,3.0327,3.0246,3.0049,2.9825,2.9699,2.9213,2.8739,2.8589,2.6934,2.5275,2.4601,2.0434,1.5924,1.278,0.4777,-0.2414,-0.5871,0.0,-1.684,-2.2775,-2.4426,-2.7122,-3.2795,-3.4391,-3.5033,-3.5028,-3.5553,-3.566,-3.509,-3.3958,-3.3719,-3.4698,-3.5432,-3.6269,-3.7246,-3.6904,-3.7555,-3.9318,-3.8135,-3.748,-3.7352,-3.7117,-3.7741,-3.9022,-3.7549,-3.7692,-3.9138,0.0,0.0,-3.9276,-4.0448,-4.0894,-4.0843,-4.0828,-4.0674,-4.0461,-4.0337,-4.002,-3.9605,0.0,0.0,0.0,0.0,0.0,0.0,0.0,0.0,0.0,0.0,2.2701,2.3725,0.0,0.0,0.0,0.0,0.0,0.0,0.0,0.0,0.0,2.3559,2.3559,2.3705,2.3964,2.3767,2.3769,2.4062,2.3848,2.3945,2.4303,2.4968,2.5522,2.5928,2.6525,2.727,2.8072,2.8053,2.8537,2.9325,2.9438,2.9597,2.9804,2.9975,0.0,0.0,3.0308,3.0412,3.0485,3.0657,3.0702,3.0715,3.0752,3.0728,3.0667,3.0653,3.0642,3.06,3.0413,3.0289,3.0163,2.9979,2.9846,2.9596,2.8973,2.8265,2.7402,2.6241,2.4963,2.1887,1.5001,0.8897,0.1164,-1.0453,-1.6554,-2.2059,-2.845,-3.0543,-3.188,0.0,-3.4759,-3.5724,-3.573,-3.5833,0.0,0.0,0.0,0.0,-3.5269,-3.5716,-3.6561,-3.8216,-3.1524,-2.8759,-3.0569,-2.3569,-1.9591,-1.8823,-1.8808,-2.2358,-2.8748,-2.0925,-2.1536,-2.8803,0.0,0.0,-2.9811,-3.7786,-4.1055,-4.1035,-4.0929,-4.0886,-4.0851,-4.0452,-4.015,-3.9871,0.0,0.0,0.0,0.0,0.0,0.0,0.0,1.9273,1.9805,2.0348,2.1498,2.2496,2.3147,2.2994,2.2832,0.0,0.0,0.0,0.0,0.0,0.0,2.2968,2.3017,2.3194,2.3544,2.3437,2.3482,2.3635,0.0,2.3432,2.3638,2.384,2.4073,2.4335,2.5,2.5579,2.6132,2.6897,2.7549,2.8095,2.8562,2.8968,2.9326,0.0,0.0,0.0,2.9836,3.0029,3.0248,3.0397,3.0514,3.0618,3.076,3.0781,3.0742,3.0703,3.07,3.0682,3.0579,3.0536,3.0484,3.0337,3.0269,3.0102,2.9711,2.9017,2.8222,2.7364,2.5299,2.2431,1.8452,1.1234,0.3786,-0.2753,-1.2566,-2.0467,-2.3593,-2.909,-3.2878,-3.3124,-3.4532,-3.5532,0.0,-3.2193,0.0,0.0,0.0,0.0,-2.962,-2.6782,-2.5069,-2.5377,-2.1794,-2.0001,-2.0341,-1.6239,-1.3988,-1.3543,-1.3368,-1.5434,-1.9273,-1.4563,-1.4939,-1.9294,0.0,0.0,-2.005,-2.9661,-3.3593,-3.4049,-3.9047,-4.1011,-4.1016,-4.076,-4.0519,-4.0262,0.0,0.0,0.0,0.0,0.0,0.0,1.8336,1.8811,1.9185,1.9437,2.0066,2.0846,2.1866,2.1855,2.1815,0.0,0.0,0.0,0.0,0.0,0.0,0.0,0.0,0.0,0.0,0.0,0.0,0.0,2.29,0.0,0.0,0.0,0.0,0.0,2.3466,2.3842,2.4173,2.5517,2.6348,0.0,0.0,2.8197,0.0,0.0,0.0,0.0,0.0,2.9657,2.9975,3.0094,3.0243,3.0404,3.0584,3.0704,3.0763,3.073,3.0693,3.07,3.0702,3.0663,3.063,3.0628,3.0516,3.0399,3.0336,2.9621,2.8868,2.846,2.5777,2.3091,2.1714,1.4736,0.8356,0.5786,-0.4856,-1.3446,-1.5305,-2.2404,-2.7565,0.0,-2.9385,0.0,-3.049,0.0,0.0,0.0,0.0,0.0,0.0,-1.7289,-1.4041,-1.3303,-1.1941,-1.0868,-1.0139,-0.8313,-0.7284,-0.713,-0.6822,-0.78,-0.9653,-0.741,-0.7574,-0.9624,0.0,0.0,0.0,-1.9667,-2.4736,-2.7272,-3.4977,-3.9223,-4.0994,-4.0986,-4.0818,-4.0552,0.0,0.0,0.0,0.0,0.0,0.0,1.7153,1.7929,1.8474,1.8452,1.8821,1.9126,1.9241,1.994,2.0556,0.0,0.0,0.0,0.0,0.0,0.0,0.0,0.0,0.0,0.0,0.0,0.0,0.0,0.0,0.0,0.0,0.0,0.0,0.0,0.0,0.0,2.3059,2.3257,0.0,0.0,0.0,0.0,0.0,0.0,0.0,0.0,0.0,2.9334,2.9514,2.982,2.9932,2.9983,3.0119,3.0423,3.0714,3.0706,3.0706,3.0704,3.0704,3.0572,3.0469,3.0658,3.0591,3.0461,3.0414,3.0314,3.0172,2.994,2.9591,2.8006,2.3712,2.2118,1.7941,0.7069,0.4213,0.0633,-0.7174,-0.9624,-1.0973,-1.19,0.0,0.0,-1.4356,0.0,0.0,0.0,0.0,0.0,0.0,-1.3423,-1.2896,-1.3321,-0.5126,-0.0878,-0.127,0.6469,1.0799,1.1624,1.1647,0.7732,0.074,0.9241,0.8716,0.0993,0.0,0.0,0.0,-0.9546,-1.852,-2.6265,-2.7458,-3.3137,-4.0675,-4.0834,-4.0769,-4.0571,0.0,0.0,0.0,0.0,0.0,0.0,1.7397,1.765,1.7841,1.7974,1.7896,1.7825,1.7866,1.793,1.8355,1.9294,1.9214,0.0,0.0,0.0,0.0,0.0,0.0,0.0,0.0,0.0,2.1582,2.1685,0.0,0.0,0.0,0.0,0.0,0.0,0.0,0.0,0.0,0.0,0.0,0.0,0.0,0.0,0.0,0.0,0.0,0.0,0.0,0.0,2.9129,2.9246,2.942,2.9581,2.9753,2.9899,3.0068,3.0274,3.0346,3.0373,3.0494,3.0489,3.0464,3.0517,3.0564,3.0583,3.0429,3.0488,3.0566,3.0487,3.0359,2.9649,2.7573,2.6146,2.3649,1.8694,1.278,0.7353,0.3147,-0.2393,-0.659,-0.8052,-0.9176,0.0,0.0,0.0,0.0,0.0,0.0,0.0,0.0,0.1931,0.2253,0.3603,0.7565,0.9884,1.0272,1.4022,1.5846,1.5703,1.6724,1.4909,1.0947,1.6283,1.6542,1.2668,0.0,0.0,0.0,0.0891,-0.5667,-1.0139,-2.1776,-2.8704,-3.2866,-3.861,-4.0791,-4.0851,0.0,0.0,0.0,0.0,0.0,1.6562,1.7047,1.7115,1.7102,1.7014,1.6815,1.6617,1.6582,1.6269,1.6403,1.7287,1.7773,0.0,0.0,0.0,0.0,0.0,0.0,0.0,0.0,0.0,2.1071,2.0991,2.107,2.1054,0.0,0.0,0.0,0.0,0.0,0.0,0.0,0.0,0.0,0.0,0.0,0.0,0.0,0.0,0.0,0.0,0.0,0.0,0.0,0.0,0.0,2.9142,2.9342,2.942,2.955,2.9905,3.0046,3.0138,3.0265,3.0355,3.0376,3.0358,3.0455,3.0525,3.0428,3.0511,3.0633,3.0697,3.0515,3.025,2.9894,2.8521,2.7132,2.6118,1.9892,1.456,1.2677,0.6859,0.2199,0.0,0.0,0.0,0.0,0.0,0.0,0.0,0.0,0.0,0.0,1.3194,1.3287,1.4708,1.534,1.6081,1.6963,1.746,1.7485,1.7025,1.8497,1.8576,1.7479,1.9615,2.0313,0.0,0.0,0.0,0.0,1.0688,0.5647,0.1791,-1.223,-2.1224,-2.7146,-3.3961,-3.8363,-4.0928,0.0,0.0,0.0,0.0,0.0,1.6033,1.5605,1.6078,1.6163,1.5244,1.5433,1.5511,1.5153,1.5006,1.4903,1.4949,1.6312,0.0,0.0,0.0,0.0,0.0,0.0,0.0,1.931,1.9823,2.003,1.9823,1.9864,1.9707,1.9346,1.9588,1.9603,0.0,0.0,0.0,0.0,0.0,0.0,0.0,0.0,0.0,0.0,0.0,0.0,0.0,0.0,0.0,0.0,0.0,0.0,0.0,0.0,2.9034,2.927,2.9693,2.9935,3.0089,3.0089,3.0089,3.0122,3.0182,3.0196,3.0234,3.0373,3.0405,3.0467,3.0652,3.0432,3.0109,2.9753,2.9401,2.8346,2.5832,2.5196,2.392,2.0657,1.9992,1.9403,0.0,0.0,0.0,0.0,0.0,0.0,0.0,0.0,0.0,0.0,0.0,1.5955,1.4574,1.529,1.6029,1.6822,1.6971,1.7313,1.77,1.8753,1.9201,1.9191,2.0014,0.0,0.0,0.0,0.0,0.0,1.9674,1.3572,0.4984,0.2839,-0.9373,-2.5798,-2.6481,-3.2627,-4.0641,0.0,0.0,0.0,0.0,0.0,0.0,1.6128,1.6083,1.5932,1.5623,1.513,1.4869,1.5062,1.4789,1.4697,1.5006,1.549,0.0,0.0,0.0,0.0,0.0,0.0,0.0,1.8674,1.8841,1.8991,1.9029,1.914,1.9214,1.9229,1.9169,1.9132,1.9043,0.0,0.0,0.0,0.0,0.0,0.0,0.0,0.0,0.0,0.0,0.0,0.0,0.0,0.0,0.0,0.0,0.0,0.0,0.0,0.0,0.0,2.9151,2.9398,2.957,2.971,2.9761,2.9761,2.9777,2.9893,2.9984,2.9923,3.0005,3.0139,3.0424,3.0158,2.9773,2.941,2.8899,2.8139,2.6905,2.6421,2.5537,2.3584,0.0,0.0,1.9728,0.0,0.0,0.0,0.0,0.0,0.0,0.0,0.0,0.0,0.0,1.7774,1.7445,1.8088,1.8508,1.8571,1.9654,1.9997,1.9583,2.1593,2.1964,2.0988,2.3007,0.0,0.0,0.0,0.0,0.0,2.1394,1.8449,1.4096,0.702,-0.018,-0.8138,-2.1194,-2.8116,-3.1939,0.0,0.0,0.0,0.0,0.0,0.0,1.5664,1.5623,1.54,1.5017,1.4582,1.4373,1.4501,1.4222,1.4129,1.4444,1.4501,0.0,0.0,0.0,0.0,0.0,0.0,0.0,1.7826,1.7999,1.821,1.8458,1.8444,1.8496,1.8655,1.8655,1.8655,1.8655,1.8669,1.8936,0.0,0.0,0.0,0.0,0.0,0.0,2.6139,0.0,0.0,0.0,0.0,0.0,0.0,0.0,0.0,0.0,0.0,0.0,0.0,0.0,2.8943,2.9086,2.9418,2.957,2.9587,2.9533,2.966,2.9744,2.9677,2.9683,2.9813,3.0139,2.9827,2.9412,2.9195,2.8668,2.8022,2.7278,2.6773,2.5969,0.0,0.0,0.0,0.0,0.0,0.0,0.0,0.0,0.0,0.0,0.0,0.0,0.0,0.0,1.9748,1.9835,1.9458,1.9287,1.9253,2.0483,2.0928,2.0609,2.2988,2.3441,2.2253,0.0,0.0,0.0,0.0,0.0,0.0,2.3121,2.1901,2.0299,1.3765,0.5906,-0.3308,-1.5171,-2.459,-3.2362,0.0,0.0,0.0,0.0,0.0,0.0,0.0,1.4789,1.4686,1.38,1.3941,1.4035,1.3658,1.3467,1.3409,1.3409,1.3515,0.0,0.0,0.0,0.0,0.0,0.0,1.6532,1.6777,1.7192,1.7626,1.7987,1.7666,1.7585,1.772,1.8003,1.8109,1.8149,1.8307,1.8736,0.0,0.0,0.0,0.0,2.3608,2.4248,0.0,0.0,0.0,0.0,0.0,0.0,0.0,0.0,0.0,0.0,0.0,0.0,0.0,0.0,0.0,0.0,0.0,2.9437,2.9514,2.9414,2.9475,2.9551,2.9569,2.9457,0.0,2.9796,2.9439,2.9077,2.9058,2.8652,2.801,2.704,2.6438,2.5648,0.0,2.3492,0.0,0.0,0.0,0.0,0.0,0.0,0.0,0.0,0.0,0.0,0.0,0.0,0.0,2.1616,1.9738,1.8904,1.9272,2.0021,2.0617,2.1062,2.3173,2.3879,2.3287,0.0,0.0,0.0,0.0,0.0,0.0,2.4838,2.4221,2.3582,2.2072,0.9971,-0.6749,-0.7714,-2.0535,-3.7642,0.0,0.0,0.0,0.0,0.0,0.0,0.0,0.0,0.0,0.0,1.3952,1.3716,1.361,1.3563,1.3563,0.0,0.0,0.0,0.0,0.0,0.0,0.0,1.5142,1.5522,1.5676,1.5796,1.6157,1.6879,1.6795,1.7102,1.7679,1.7502,1.7488,1.757,1.7529,1.8031,0.0,0.0,0.0,0.0,2.3116,2.3823,0.0,0.0,0.0,0.0,2.6232,2.6539,0.0,0.0,0.0,0.0,0.0,0.0,0.0,0.0,2.8065,2.8065,2.8453,0.0,2.9079,2.9138,2.903,2.8966,0.0,2.9126,2.9092,2.9457,2.9214,2.8883,2.8602,2.8085,2.7512,2.6937,2.6573,2.612,2.5389,0.0,0.0,0.0,0.0,0.0,0.0,0.0,0.0,0.0,0.0,0.0,0.0,0.0,0.0,2.1616,2.1101,2.0892,2.1016,2.1997,2.2784,2.3264,2.4582,2.5399,2.5627,0.0,0.0,0.0,0.0,0.0,2.662,2.6252,2.5426,2.4292,2.3498,1.9613,1.3569,0.6311,-0.4875,-1.7474,0.0,0.0,0.0,0.0,0.0,0.0,0.0,0.0,0.0,0.0,1.3763,1.3621,1.3621,1.3621,1.3621,0.0,0.0,0.0,0.0,0.0,0.0,1.4046,1.4743,1.5187,1.5344,1.5591,1.6076,1.6808,1.6466,1.6595,1.724,1.6879,1.6782,1.7005,1.7545,1.835,0.0,0.0,0.0,2.2323,2.2819,0.0,0.0,0.0,0.0,0.0,2.5603,2.6073,0.0,2.695,2.7189,2.7344,0.0,0.0,0.0,0.0,2.7915,2.7789,2.8129,2.8489,2.8791,2.8779,2.8725,2.8718,2.8773,2.8682,2.8646,2.8893,2.8761,2.8533,2.8348,2.7826,2.7269,2.6922,2.635,0.0,0.0,0.0,0.0,0.0,0.0,0.0,0.0,0.0,0.0,0.0,0.0,0.0,0.0,0.0,0.0,0.0,2.317,2.2628,2.1616,2.2424,2.2958,2.3299,2.5053,2.5724,2.5424,0.0,0.0,0.0,0.0,0.0,2.6905,2.7108,2.6828,2.6239,2.594,2.223,1.6384,1.1383,0.2098,-0.9396,0.0,0.0,0.0,0.0,0.0,0.0,0.0,0.0,0.0,0.0,0.0,0.0,0.0,0.0,0.0,0.0,0.0,0.0,0.0,0.0,1.361,1.361,1.4455,1.5051,1.5299,1.568,1.625,1.6976,1.625,1.612,1.6625,1.6256,1.625,1.6622,1.8113,1.9135,1.9768,2.0502,2.1435,2.2374,2.2558,0.0,0.0,0.0,0.0,0.0,0.0,0.0,0.0,2.6367,2.6674,2.71,2.7241,0.0,0.0,0.0,0.0,0.0,2.7897,2.8255,2.8525,2.8394,2.8464,2.8525,2.8394,2.8299,2.8237,2.836,2.8299,2.8183,2.8146,2.7636,2.7129,0.0,0.0,0.0,0.0,0.0,0.0,0.0,0.0,0.0,0.0,0.0,0.0,0.0,0.0,0.0,0.0,0.0,0.0,0.0,2.4838,2.3936,2.2151,2.2558,2.2835,2.2995,2.5256,2.5806,2.489,2.7339,0.0,0.0,0.0,0.0,2.7498,2.792,2.8285,2.8616,2.841,2.2604,1.4213,1.4279,0.6711,-0.5486,0.0,0.0,0.0,0.0,0.0,0.0,0.0,0.0,0.0,0.0,0.0,0.0,0.0,0.0,0.0,0.0,0.0,0.0,0.0,1.3716,1.3773,1.3773,1.3915,1.4316,1.4949,1.4686,1.4983,1.6008,1.5501,1.5623,1.6355,1.6008,1.6163,1.6831,1.9081,1.9653,1.9077,2.0633,2.117,2.0993,2.1921,0.0,0.0,0.0,0.0,0.0,0.0,0.0,0.0,2.642,2.6573,2.6674,2.71,0.0,0.0,0.0,0.0,0.0,2.7465,2.7689,2.7915,2.8102,2.8037,2.8,2.8201,2.821,2.8201,2.8237,2.8255,2.8183,2.7915,2.7334,2.6807,0.0,0.0,0.0,0.0,0.0,0.0,0.0,0.0,0.0,0.0,0.0,0.0,0.0,0.0,0.0,0.0,0.0,0.0,0.0,0.0,2.4137,2.4469,2.4677,2.5043,2.5566,2.6185,2.6919,2.7707,2.8235,2.8909,0.0,0.0,3.0588,3.085,2.969,2.9718,3.0276,2.8779,2.7584,2.658,2.5714,1.8365,0.5654,0.0,0.0,0.0,0.0,0.0,0.0,0.0,0.0,0.0,0.0,0.0,0.0,0.0,0.0,0.0,0.0,0.0,0.0,0.0,1.3563,1.3915,1.4093,1.4197,1.4419,1.4903,1.5085,1.5445,1.6044,1.5724,1.5844,1.6324,1.6698,1.6928,1.7182,1.9258,1.9843,1.9315,2.0633,2.1264,2.1492,0.0,0.0,0.0,0.0,0.0,0.0,0.0,0.0,0.0,0.0,2.6033,2.6279,2.6742,0.0,0.0,0.0,0.0,0.0,2.7215,2.7293,2.7413,2.7517,2.7654,2.776,2.78,2.7829,2.78,2.7836,2.7847,2.7829,2.7689,0.0,2.6607,2.5999,0.0,0.0,0.0,0.0,0.0,0.0,0.0,0.0,0.0,0.0,0.0,0.0,0.0,0.0,0.0,0.0,0.0,0.0,0.0,0.0,2.5481,2.5536,2.5564,2.5499,2.6568,2.7088,2.7179,2.8665,2.9344,0.0,0.0,3.1142,3.1183,3.0923,3.1282,3.1946,3.0909,3.0573,3.0543,2.96,2.1931,1.0446,0.0,0.0,0.0,0.0,0.0,0.0,0.0,0.0,0.0,0.0,0.0,0.0,0.0,0.0,0.0,0.0,0.0,0.0,0.0,1.3658,1.4093,1.4512,1.4662,1.4834,1.513,1.5546,1.5944,1.6306,1.6064,1.6169,1.6554,1.7681,1.7971,1.7727,1.958,2.0149,1.9801,2.0784,2.1471,2.1949,0.0,0.0,0.0,0.0,0.0,0.0,0.0,0.0,0.0,0.0,0.0,0.0,0.0,0.0,0.0,2.6792,2.6908,2.6956,2.7038,2.707,2.707,2.707,2.7307,2.7522,2.7417,2.7434,2.7434,2.7434,2.7434,2.7404,2.7404,2.6956,0.0,2.5481,0.0,0.0,0.0,0.0,0.0,0.0,0.0,0.0,0.0,0.0,0.0,0.0,0.0,0.0,0.0,0.0,0.0,0.0,0.0,0.0,2.5893,2.5988,2.5811,2.5398,2.682,2.7245,2.6807,2.8961,2.9587,2.9059,3.0923,3.1627,3.1536,3.2129,3.2761,3.3467,3.2892,3.2385,3.2004,3.1219,2.5039,1.6638,0.0,0.0,0.0,0.0,0.0,0.0,0.0,0.0,0.0,0.0,0.0,0.0,0.0,0.0,0.0,0.0,0.0,0.0,1.4025,1.428,1.4512,1.4858,1.5006,1.5277,1.5744,1.5367,1.5623,1.6557,1.6145,1.6348,1.725,1.864,1.9081,1.8796,2.0756,2.1099,2.0219,2.1286,2.1471,2.1131,2.1616,0.0,0.0,0.0,0.0,0.0,0.0,0.0,0.0,0.0,0.0,0.0,0.0,0.0,2.626,2.6383,2.6453,2.6521,2.6909,2.7007,2.7007,2.7007,2.7087,2.7149,2.7117,2.7181,2.7213,2.7213,2.7181,2.7135,2.7135,2.6454,2.5742,0.0,0.0,0.0,0.0,0.0,0.0,0.0,0.0,0.0,0.0,0.0,0.0,0.0,0.0,0.0,0.0,0.0,0.0,0.0,0.0,0.0,2.5893,2.6258,2.651,2.6563,2.6959,2.7661,2.8725,2.9154,2.9979,3.1055,3.2185,3.3032,3.359,3.3565,3.4022,3.456,3.3467,3.3137,3.3134,3.2694,3.1725,2.9037,0.0,0.0,0.0,0.0,0.0,0.0,0.0,0.0,0.0,0.0,0.0,0.0,0.0,0.0,0.0,0.0,0.0,0.0,1.4003,1.4444,1.4823,1.5153,1.5289,1.5513,1.578,1.5501,1.5546,1.5932,1.647,1.7264,1.8283,1.9806,2.0529,2.0639,2.2104,2.2328,2.1657,2.2235,2.2526,2.2634,2.2709,2.2814,0.0,0.0,0.0,0.0,0.0,0.0,0.0,0.0,2.6583,2.6591,2.68,2.6958,2.7114,2.729,2.7366,2.7512,2.7791,2.7771,2.7734,2.8058,2.8007,2.7754,2.7162,2.7055,2.7055,2.7023,2.699,2.6957,2.6875,0.0,2.5449,0.0,0.0,0.0,0.0,0.0,0.0,0.0,0.0,0.0,0.0,0.0,0.0,0.0,0.0,0.0,0.0,0.0,0.0,0.0,0.0,0.0,0.0,2.6404,2.6707,2.7225,2.721,2.7343,2.7558,2.8493,2.922,2.9852,3.1074,3.2032,3.2725,3.323,3.4124,3.5069,3.4722,3.4848,3.5165,3.4798,3.418,3.2966,0.0,0.0,0.0,0.0,0.0,0.0,0.0,0.0,0.0,0.0,0.0,0.0,0.0,0.0,0.0,0.0,0.0,0.0,1.3956,1.4663,1.5142,1.521,1.548,1.5647,1.5792,1.5691,1.5724,1.5901,1.7301,1.8468,1.9467,2.0734,2.1492,2.178,2.2642,2.2844,2.2466,2.2754,2.3185,2.3644,2.3555,2.3718,0.0,0.0,0.0,0.0,0.0,0.0,0.0,0.0,2.682,2.6788,2.7089,2.7316,2.7483,2.7672,2.7753,2.7891,2.8174,2.8112,2.805,2.8455,2.8439,2.821,2.755,2.7318,2.7131,2.686,2.6742,2.6623,2.6453,2.5693,0.0,0.0,0.0,0.0,0.0,0.0,0.0,0.0,0.0,0.0,0.0,0.0,0.0,0.0,0.0,0.0,0.0,0.0,0.0,0.0,0.0,0.0,0.0,2.6409,2.6759,2.7246,2.7348,2.7312,2.7306,2.8299,2.8912,2.919,3.0448,3.1402,3.2105,3.3026,3.3994,3.4893,3.4985,3.5648,3.6514,3.5954,3.5773,3.581,0.0,0.0,0.0,0.0,0.0,0.0,0.0,0.0,1.2323,1.2323,1.1977,0.0,0.0,0.0,0.0,0.0,0.0,0.0,1.4014,1.4949,1.5379,1.5108,1.5558,1.5792,1.5792,1.5969,1.6293,1.6808,1.8549,1.9894,2.0809,2.1363,2.1808,2.2132,2.2392,2.2466,2.2314,2.2754,2.3221,2.3739,2.4005,2.4712,2.5649,0.0,0.0,0.0,0.0,0.0,0.0,0.0,2.6168,2.6557,2.6378,2.672,2.7211,2.729,2.7316,2.74,2.7794,2.7794,2.7713,2.7874,2.8106,2.8295,2.8295,2.8018,2.7498,2.6774,2.6399,2.6134,2.5868,2.5182,0.0,0.0,0.0,0.0,0.0,0.0,0.0,0.0,0.0,0.0,0.0,0.0,0.0,0.0,0.0,0.0,0.0,0.0,0.0,0.0,0.0,0.0,0.0,2.6179,2.6587,2.673,2.7246,2.7879,2.8573,2.8779,2.9136,2.9665,3.0717,3.151,3.2184,3.325,3.3819,3.4002,3.4002,3.5172,3.6789,3.5915,3.6877,3.846,0.0,0.0,0.0,0.0,0.0,0.0,0.0,0.0,1.2929,1.2929,1.2832,0.0,0.0,0.0,0.0,0.0,0.0,0.0,1.504,1.5322,1.5603,1.5881,1.6013,1.6069,1.6069,1.6942,1.7483,1.7657,1.8903,2.0102,2.1184,2.1981,2.2611,2.3113,2.3421,2.3566,2.3698,2.425,2.4655,2.4895,2.5485,2.5728,2.5863,0.0,0.0,0.0,0.0,0.0,0.0,0.0,0.0,0.0,2.7812,2.789,2.8078,2.8293,2.8355,2.843,2.8698,2.8624,2.855,2.9005,2.9135,2.9065,2.8771,2.8539,2.8109,2.73,2.7042,2.6746,2.5999,2.5253,0.0,0.0,0.0,0.0,0.0,0.0,0.0,0.0,0.0,0.0,0.0,0.0,0.0,0.0,0.0,0.0,0.0,0.0,0.0,0.0,0.0,0.0,0.0,0.0,2.7248,2.7439,2.8451,2.8543,2.783,2.8446,2.8951,2.9467,2.9887,3.058,3.1512,3.298,3.3719,3.397,3.4296,3.5254,3.635,3.5806,3.6108,3.6905,0.0,0.0,0.0,0.0,0.0,0.0,0.0,0.0,1.3218,1.3218,1.3218,1.3218,0.0,0.0,0.0,0.0,0.0,0.0,1.496,1.5546,1.5856,1.5869,1.61,1.6342,1.6596,1.801,1.8818,1.9075,1.9873,2.0688,2.1566,2.2552,2.326,2.3726,2.3982,2.4219,2.4551,2.5035,2.5553,2.6075,2.6641,2.6903,2.701,0.0,0.0,0.0,0.0,0.0,0.0,0.0,0.0,0.0,2.851,2.8444,2.8396,2.8541,2.8604,2.8684,2.8826,2.8763,2.8732,2.9167,2.9289,2.9297,2.9189,2.869,2.813,2.7624,2.7427,2.7042,2.6096,2.5329,0.0,0.0,0.0,0.0,0.0,0.0,0.0,0.0,0.0,0.0,0.0,0.0,0.0,0.0,0.0,0.0,0.0,0.0,0.0,0.0,0.0,0.0,0.0,0.0,0.0,2.725,2.8196,2.8365,2.7904,2.8716,2.9348,2.9892,3.0234,3.0788,3.1445,3.2453,3.309,3.3399,3.3723,3.4695,3.5925,3.5542,3.5917,3.6742,0.0,0.0,1.4468,1.3952,0.0,0.0,0.0,0.0,1.3266,1.3266,1.3266,1.3266,0.0,0.0,0.0,0.0,0.0,1.472,1.4362,1.5579,1.6076,1.5522,1.6005,1.6633,1.7352,1.899,2.0154,2.0707,2.1164,2.1611,2.2039,2.3054,2.3683,2.394,2.4185,2.4551,2.5028,2.5326,2.6136,2.724,2.7582,2.8078,2.8621,2.8826,0.0,0.0,0.0,0.0,0.0,0.0,0.0,0.0,2.8527,2.8462,2.8396,2.8235,2.825,2.8411,2.8525,2.8444,2.8411,2.87,2.8889,2.9136,2.9454,2.8678,2.7883,2.7809,0.0,2.7237,2.6271,0.0,0.0,0.0,0.0,0.0,0.0,0.0,0.0,0.0,0.0,0.0,0.0,0.0,0.0,0.0,0.0,0.0,0.0,0.0,0.0,0.0,0.0,0.0,0.0,0.0,0.0,0.0,2.7074,2.771,2.8421,2.9302,3.0031,3.0625,3.1295,3.1671,3.1819,3.1912,3.2214,3.2621,3.2719,3.3852,3.5405,3.5138,3.6001,3.7259,0.0,0.0,1.5454,1.449,0.0,0.0,0.0,0.0,0.0,1.3515,1.3515,0.0,0.0,0.0,0.0,0.0,1.4373,1.4777,1.5433,1.5744,1.602,1.625,1.6828,1.7618,1.8595,1.9785,2.0509,2.0611,2.1699,2.252,2.3024,2.3377,2.3581,2.3655,2.4442,2.4891,2.5089,2.6291,2.7011,2.7442,2.8107,2.8544,2.8747,2.8826,2.8967,0.0,0.0,0.0,0.0,0.0,0.0,0.0,2.8431,2.835,2.8446,2.8137,2.8054,2.8103,2.8103,2.8103,2.8118,2.8299,2.8525,2.8748,2.892,2.8778,2.8537,2.8421,2.8351,2.7998,0.0,0.0,0.0,0.0,0.0,0.0,0.0,0.0,0.0,0.0,0.0,0.0,0.0,0.0,0.0,0.0,0.0,0.0,0.0,0.0,0.0,0.0,0.0,0.0,2.4491,2.5644,2.6224,0.0,2.7185,2.7867,2.8256,2.8559,2.9345,3.0559,3.1235,3.1691,3.1985,3.2127,3.2437,3.2781,3.2943,3.3541,3.4277,3.4427,3.4797,3.5401,0.0,0.0,0.0,0.0,0.0,0.0,0.0,0.0,0.0,0.0,0.0,0.0,0.0,0.0,0.0,0.0,1.5073,1.5421,1.5908,1.6429,1.6935,1.7479,1.7911,1.8573,1.9471,2.0583,2.1246,2.1513,2.2543,2.2965,2.2934,2.3304,2.3658,2.4045,2.4685,2.5378,2.6032,2.6933,2.7533,2.7919,2.8354,2.8541,2.8604,2.8747,2.8889,2.8951,2.9121,0.0,0.0,0.0,0.0,0.0,0.0,0.0,2.8301,2.8054,2.7955,2.7905,2.7905,2.7905,2.7955,2.8054,2.8201,2.8348,2.8493,2.8493,2.848,2.8434,2.8539,0.0,0.0,0.0,0.0,0.0,0.0,0.0,0.0,0.0,0.0,0.0,0.0,0.0,0.0,0.0,0.0,0.0,0.0,0.0,0.0,0.0,0.0,0.0,0.0,0.0,2.44,2.5257,2.5632,2.5496,2.6333,2.6981,2.7496,2.8559,2.9469,3.0216,3.1198,3.1711,3.1896,3.2266,3.2702,3.3075,3.3172,3.367,3.4345,3.444,3.4718,3.5119,0.0,0.0,0.0,0.0,0.0,0.0,0.0,0.0,0.0,0.0,0.0,0.0,0.0,0.0,1.5468,0.0,0.0,0.0,1.6529,1.7346,1.8118,1.8669,1.9012,1.9487,2.0131,2.1226,2.2053,2.2512,2.3157,2.3201,2.2709,2.3289,2.3911,2.4642,2.5137,2.594,2.6988,2.7362,2.7841,2.8348,2.8396,2.8411,2.8411,2.87,2.8794,2.8826,2.8998,2.9213,2.9425,2.9425,0.0,0.0,0.0,0.0,2.8414,2.8137,2.7974,2.7875,2.779,2.779,2.779,2.7905,2.7955,2.8005,2.8137,2.8186,2.8186,2.8186,2.8444,0.0,0.0,0.0,0.0,0.0,0.0,0.0,0.0,0.0,0.0,0.0,0.0,0.0,0.0,0.0,0.0,0.0,0.0,0.0,0.0,0.0,0.0,0.0,0.0,2.441,2.4539,2.4989,2.513,2.4823,2.5362,2.5951,2.67,2.8588,2.9465,2.9654,3.0956,3.1597,3.1723,3.235,3.2988,3.3504,3.3419,3.3949,3.4733,3.4717,3.5013,3.5374,0.0,0.0,0.0,0.0,0.0,0.0,0.0,0.0,0.0,0.0,1.5299,1.5344,0.0,1.5389,1.579,1.6712,1.6761,1.7152,1.8193,0.0,0.0,1.9126,1.9721,2.0258,2.0677,2.171,2.2314,2.2512,2.2828,2.3112,2.3378,2.4194,2.4597,2.4672,2.6074,2.6788,2.6889,2.7625,2.7978,2.8054,2.8314,2.8411,2.8411,2.8589,2.8748,2.8873,2.8873,2.8967,2.9167,2.9167,2.9425,0.0,0.0,0.0,2.9438,2.8543,2.8255,2.8158,2.771,2.7625,2.7675,2.779,2.784,2.7855,2.8005,2.8005,2.8005,0.0,0.0,0.0,0.0,0.0,0.0,0.0,0.0,0.0,0.0,0.0,0.0,0.0,0.0,0.0,0.0,0.0,0.0,0.0,0.0,0.0,0.0,2.3392,2.361,2.4492,2.4287,2.4287,2.4589,2.467,2.467,2.467,2.5285,2.5877,2.6391,2.7492,2.8266,2.8833,3.017,3.1096,3.1671,3.24,3.3166,3.3902,3.3842,3.408,3.448,3.4775,3.4923,3.5062,0.0,0.0,0.0,0.0,0.0,0.0,0.0,0.0,0.0,0.0,0.0,1.6803,0.0,1.7403,1.774,1.8118,1.8099,1.8446,1.924,1.9441,1.9832,2.0426,2.0812,2.124,2.1752,2.2175,2.2603,2.2934,2.3172,2.3555,2.4015,2.4881,2.5227,2.5211,2.6374,2.7055,2.7368,2.7834,2.8054,2.8103,2.825,2.8477,2.8795,2.8668,2.8842,2.9198,2.8936,2.8936,2.9075,2.9075,2.9259,2.938,2.9319,0.0,0.0,0.0,2.8622,2.8207,2.771,2.7625,2.7625,2.7675,2.7675,2.7675,2.774,2.779,2.779,0.0,0.0,0.0,0.0,0.0,0.0,0.0,0.0,0.0,0.0,0.0,0.0,0.0,0.0,0.0,0.0,0.0,0.0,0.0,0.0,0.0,2.3882,2.3711,2.3839,2.4359,2.4234,0.0,2.4523,2.4523,2.4564,2.4589,2.513,2.5535,2.5848,2.6718,2.7518,2.8224,2.9506,3.0342,3.0853,3.1954,3.2793,3.342,3.3806,3.4255,3.4714,3.4851,3.5026,3.5287,0.0,0.0,0.0,0.0,0.0,0.0,0.0,0.0,0.0,0.0,0.0,0.0,0.0,0.0,0.0,0.0,1.8824,1.9028,1.9633,1.9974,2.0448,2.1247,2.1531,2.1974,2.2558,2.2694,2.2934,2.3363,2.3614,2.3956,2.4461,2.5339,2.5807,2.5884,2.6654,2.7274,2.779,2.8039,2.8171,2.8317,2.8494,2.8811,2.9212,2.9013,2.9198,2.9576,2.9342,2.9374,2.9499,2.9548,2.9548,2.9483,2.9697,2.9553,0.0,0.0,0.0,2.84,2.7894,2.776,2.776,2.7575,2.7524,2.7524,2.7524,0.0,2.7524,0.0,0.0,0.0,0.0,0.0,0.0,0.0,0.0,0.0,0.0,0.0,0.0,0.0,0.0,0.0,0.0,0.0,0.0,0.0,0.0,0.0,2.3982,2.3982,2.4024,2.4124,2.4166,2.425,2.4416,2.4523,2.471,2.4974,2.5269,2.5556,2.5795,2.6453,2.708,2.7674,2.89,2.9667,3.0071,3.1294,3.2109,3.2678,3.3241,3.3911,3.4584,3.4637,3.5013,3.553,0.0,0.0,0.0,0.0,0.0,0.0,0.0,0.0,0.0,0.0,0.0,0.0,1.8144,1.7604,1.7525,1.8087,1.8026,1.8393,1.9346,1.9566,2.0034,2.0973,2.1582,0.0,2.2694,2.3172,2.3466,2.3509,2.3864,2.4202,2.452,2.5623,2.6298,2.6572,2.728,2.7595,2.7675,2.8238,2.8479,2.8559,2.9225,2.954,2.9585,2.9705,2.9853,2.9978,3.0176,3.0416,3.0667,0.0,0.0,3.0416,3.0462,3.0135,2.9705,0.0,0.0,0.0,2.84,2.824,2.8125,2.7524,2.7401,2.7401,0.0,0.0,0.0,0.0,0.0,0.0,0.0,0.0,0.0,0.0,0.0,0.0,0.0,0.0,0.0,0.0,0.0,0.0,0.0,0.0,0.0,0.0,0.0,0.0,2.3982,2.3882,2.3882,2.4024,2.4024,2.4082,2.4208,2.4655,2.5214,2.5937,2.6013,2.6332,2.6809,2.6893,2.6992,2.7206,2.8288,2.9082,2.9674,3.0399,3.1146,3.1857,3.189,3.2666,3.3783,3.3926,3.461,3.5544,0.0,0.0,0.0,0.0,0.0,0.0,0.0,0.0,0.0,0.0,0.0,0.0,0.0,1.946,1.9614,1.9753,1.9639,1.9722,2.0087,2.0782,2.1355,2.17,2.2469,2.3039,2.3216,2.3319,2.3629,2.4119,2.4266,2.4813,2.5738,2.6247,2.6861,2.7546,2.7605,2.776,2.8027,2.7944,2.8367,2.9088,2.9042,2.9496,3.0166,2.9881,3.007,3.0417,3.0189,0.0,0.0,0.0,0.0,3.0974,3.1134,3.0781,3.0122,2.943,2.9241,2.915,2.8542,2.8574,2.8701,2.8186,2.7925,2.781,2.764,2.7386,0.0,0.0,0.0,0.0,0.0,0.0,0.0,0.0,0.0,0.0,0.0,0.0,0.0,0.0,0.0,0.0,0.0,0.0,0.0,0.0,0.0,0.0,2.3739,2.3967,2.4162,2.4245,2.4245,2.4451,2.4855,2.4997,2.523,2.5497,2.5811,2.6101,2.6401,2.6875,2.7198,2.7404,2.7999,2.8426,2.8793,2.9844,3.0625,3.1211,3.1685,3.2354,3.3066,3.3062,3.346,3.4051,0.0,0.0,0.0,0.0,0.0,2.0396,2.0177,2.0662,2.0811,2.0092,0.0,0.0,0.0,0.0,2.0134,2.0053,2.0171,2.0326,2.045,2.1291,2.1968,2.233,2.2901,2.3434,2.3881,2.3555,2.3837,2.4787,2.4756,2.5304,2.6406,2.6861,2.7455,2.8158,2.7929,2.8027,2.8288,2.8207,2.8747,2.9726,2.9366,3.0141,3.14,3.0856,3.1049,3.1583,0.0,0.0,0.0,0.0,0.0,0.0,3.2096,3.1342,3.0384,2.9766,2.9523,2.9377,2.8795,2.8873,2.8997,2.8477,2.822,2.8091,2.786,0.0,0.0,0.0,0.0,0.0,0.0,0.0,0.0,0.0,0.0,0.0,0.0,0.0,0.0,0.0,0.0,0.0,0.0,0.0,0.0,0.0,0.0,0.0,2.4048,2.4313,2.4533,2.4558,2.4599,2.4839,2.5291,2.5384,2.5535,2.5705,2.603,2.6332,2.659,2.7085,2.7417,2.763,2.7926,2.8147,2.8362,2.9264,2.9908,3.0372,3.0932,3.1598,3.2264,3.2249,3.2632,3.3219,0.0,0.0,2.1122,2.1362,2.1391,2.1104,2.0333,2.0713,2.0756,1.9958,0.0,0.0,0.0,0.0,0.0,1.8784,1.9477,2.0088,2.0463,2.1005,2.1791,2.2832,2.2825,2.3355,2.4627,2.3999,2.4253,2.5426,2.5313,2.5686,2.647,2.7463,2.8094,2.8336,2.8336,2.8336,2.8384,2.895,2.9699,3.0505,3.0408,3.1574,3.3322,3.2594,3.2763,0.0,3.3639,3.3844,0.0,3.4314,0.0,0.0,3.316,3.1838,3.0511,3.0479,3.0151,2.9705,0.0,0.0,0.0,2.8414,2.8235,2.822,2.8012,0.0,0.0,0.0,0.0,0.0,0.0,0.0,0.0,0.0,0.0,0.0,0.0,0.0,0.0,0.0,0.0,0.0,0.0,0.0,0.0,0.0,0.0,2.4902,2.4902,2.4902,2.4902,2.4942,2.5075,2.5269,2.554,2.5811,2.6189,2.6725,2.6774,2.7053,2.7496,2.7496,2.763,2.7847,2.8102,2.8334,2.8518,2.8669,2.8984,2.9433,2.9551,3.0326,3.1379,3.1435,3.2164,3.3122,0.0,2.2342,2.2175,2.1703,2.191,2.1926,2.117,2.1622,2.1767,0.0,0.0,0.0,2.0299,2.0497,2.084,2.1281,2.1931,2.2364,2.2483,2.3496,2.424,2.4508,2.4893,2.5228,2.5606,2.5243,2.5511,2.6429,2.6589,2.705,2.7786,2.845,2.8966,2.9377,2.9377,2.9377,2.9364,2.9343,2.9959,3.0969,3.1548,3.2326,3.3246,3.3128,0.0,0.0,0.0,3.3711,3.3939,0.0,3.4206,3.423,0.0,3.2079,3.0909,3.0418,3.006,2.975,2.9454,0.0,0.0,0.0,0.0,0.0,2.9207,2.8917,0.0,0.0,0.0,0.0,0.0,0.0,0.0,0.0,0.0,0.0,0.0,0.0,0.0,0.0,0.0,0.0,0.0,0.0,0.0,0.0,2.516,2.5198,2.4902,2.5176,2.5411,2.5619,2.5977,2.6314,2.6556,2.6657,2.6775,2.6908,2.694,2.7038,2.723,2.7552,2.7858,2.812,2.8583,2.8821,2.8887,2.9075,2.9293,2.9551,2.9681,3.0136,3.0657,3.054,3.0867,3.1396,2.331,2.3291,2.3093,2.2499,2.2611,2.2499,2.165,2.1828,2.1937,0.0,0.0,0.0,2.1933,2.2509,2.3111,2.3654,2.4334,2.4729,2.4729,2.5664,2.6193,2.6193,2.6424,2.6723,2.7003,2.6576,2.681,2.7813,2.7612,2.7907,2.8638,2.915,2.9528,2.9793,2.9793,2.9972,3.0251,3.0434,3.0879,3.1593,3.2105,3.3072,3.4129,3.3938,3.4049,0.0,0.0,0.0,3.4662,3.4662,3.481,0.0,0.0,0.0,3.2112,3.123,3.0631,3.0121,2.9505,2.9694,3.0044,2.9722,0.0,0.0,2.9657,2.9464,2.9255,0.0,0.0,0.0,0.0,0.0,0.0,0.0,0.0,0.0,0.0,0.0,0.0,0.0,0.0,0.0,0.0,0.0,0.0,0.0,2.5663,2.5701,2.5438,2.5758,2.6049,2.6175,2.6572,2.6859,2.7006,2.7006,2.707,2.7166,2.7166,2.7293,2.7509,2.7858,2.8165,2.843,2.8845,2.9048,2.9056,2.9295,2.9456,2.9589,2.9767,3.0071,3.0398,3.0292,3.0443,3.0689,0.0,2.3869,2.3753,2.3401,2.3248,2.2849,2.1967,2.1862,2.189,0.0,2.1965,2.2571,2.4196,2.4859,2.5358,2.5917,2.6509,2.6877,2.6916,2.7518,2.7842,2.7842,2.7727,2.7933,2.8544,2.787,2.8115,2.9223,2.8529,2.8516,2.9212,2.9661,2.9897,2.9897,2.9962,3.0368,3.1018,3.183,3.2264,3.2403,3.2544,3.3781,0.0,0.0,3.503,3.5622,3.5622,3.5684,3.5773,3.5773,3.5622,0.0,0.0,0.0,0.0,0.0,3.1616,3.07,2.9713,2.9489,2.956,2.9605,0.0,0.0,2.9782,2.9853,2.9837,0.0,0.0,0.0,0.0,0.0,0.0,0.0,0.0,0.0,0.0,0.0,0.0,0.0,0.0,0.0,0.0,0.0,2.6203,2.6239,2.6239,2.6239,2.6274,2.6485,2.6606,2.6674,2.6925,2.707,2.707,2.7117,2.7244,2.7478,2.7478,2.7689,2.8063,2.8291,2.8525,2.8743,2.9021,2.9119,2.9129,2.9398,2.9514,2.9551,2.9823,3.0117,3.041,3.0477,3.0591,3.0681,2.3902,2.3652,2.3354,2.2997,2.285,2.2752,2.2605,2.3063,2.3669,2.4261,2.4905,2.5648,2.65,2.6357,2.6548,2.7392,2.7775,2.8084,2.8362,2.9026,2.9372,2.9372,2.9329,2.9394,2.9523,2.9159,2.9179,2.9524,2.9456,2.956,2.9837,3.0199,3.0342,3.0417,3.0952,3.1358,3.1572,3.2875,3.3482,3.3578,3.4359,3.5023,3.5475,3.5425,3.5487,3.5622,3.5622,3.5622,3.5667,3.5773,3.5503,3.5182,0.0,0.0,0.0,3.3482,0.0,0.0,0.0,0.0,0.0,0.0,0.0,0.0,3.0723,3.0908,3.1044,0.0,0.0,0.0,0.0,0.0,0.0,0.0,0.0,0.0,0.0,0.0,0.0,0.0,0.0,0.0,0.0,0.0,2.6274,2.652,2.652,2.6606,2.6808,2.6708,2.6809,2.7215,2.731,2.7386,2.7552,2.7783,2.7908,2.7964,2.7964,2.8129,2.8394,2.8404,2.8583,2.8948,2.9166,2.9251,2.9293,2.9551,2.9664,2.9698,3.0022,3.0254,3.041,3.0479,3.0582,3.0689,2.3927,2.4003,2.4076,2.3706,2.3924,2.4228,2.4481,2.4846,2.5344,2.6059,2.7048,2.78,2.8063,2.8329,2.877,2.947,2.965,2.984,3.0004,3.0294,3.0493,3.0493,3.0493,3.0493,3.0493,3.0309,3.0208,3.0293,3.0368,3.0368,3.0326,3.0609,3.0809,3.1047,3.1427,3.2034,3.2762,3.3475,3.4051,3.4526,3.5048,0.0,3.5383,3.5532,3.5622,3.5622,3.5622,3.5622,3.5622,3.5667,3.5594,0.0,0.0,3.5334,3.4785,0.0,3.3272,3.225,0.0,0.0,0.0,3.0601,0.0,0.0,0.0,3.1179,3.1278,0.0,0.0,0.0,0.0,0.0,0.0,0.0,0.0,0.0,0.0,0.0,0.0,0.0,0.0,0.0,0.0,0.0,2.6657,2.6792,2.6792,2.6859,2.7006,2.699,2.712,2.7404,2.7509,2.76,2.7701,2.7982,2.8102,2.8102,2.8246,2.8376,2.8485,2.8633,2.8803,2.9016,2.9251,2.9373,2.9472,2.9682,2.9787,2.9867,3.0114,3.0304,3.046,3.054,3.0607,3.0709,2.4609,2.4947,2.527,2.5084,2.553,2.6112,2.6623,2.6824,2.7209,2.8028,2.8971,2.9558,2.9494,3.0129,3.074,3.1173,3.1151,3.1112,3.119,3.119,3.119,3.119,3.119,3.119,3.119,3.1072,3.1015,3.1015,3.0975,3.0962,3.0974,3.1072,3.1391,3.1878,3.1984,3.2696,3.3806,3.3938,3.4446,3.5088,0.0,3.5308,3.5354,3.5503,3.5577,3.5622,3.5622,3.5622,3.5622,3.5622,3.5684,3.5817,3.5975,3.6079,0.0,0.0,0.0,0.0,0.0,0.0,0.0,0.0,0.0,3.1329,0.0,0.0,0.0,3.1072,0.0,0.0,0.0,0.0,0.0,0.0,0.0,0.0,0.0,0.0,0.0,0.0,0.0,0.0,0.0,0.0,2.707,2.707,2.707,2.7103,2.7117,2.7293,2.7434,2.7465,2.763,2.7713,2.7771,2.8047,2.8192,2.829,2.8478,2.8603,2.8694,2.8915,2.903,2.9101,2.9312,2.9453,2.9569,2.9716,2.9883,3.0022,3.0182,3.0356,3.0501,3.0595,3.0649,3.0689,2.6919,2.6732,2.6686,2.6928,2.706,2.7339,2.8045,2.8716,2.9609,3.0922,3.1227,3.1308,3.121,3.0931,3.0925,3.1257,3.0958,3.0855,3.119,3.119,3.119,3.119,3.119,3.119,3.119,3.1072,3.1055,3.119,3.0992,3.1271,3.1933,3.1884,3.2202,3.2773,3.3439,3.3732,3.3839,3.4485,3.4927,0.0,3.5245,3.5383,0.0,3.5492,3.5566,3.5622,3.5622,3.5622,3.5622,0.0,3.5684,3.5817,0.0,3.6079,3.6191,0.0,0.0,0.0,0.0,0.0,0.0,0.0,3.114,0.0,0.0,0.0,3.1894,3.2144,0.0,0.0,0.0,0.0,0.0,0.0,0.0,0.0,0.0,0.0,0.0,0.0,0.0,0.0,0.0,0.0,0.0,2.7341,2.7341,2.7417,2.7612,2.7478,2.7478,2.7672,2.7701,2.7811,2.8047,2.8324,2.8597,2.8892,2.8915,2.9071,2.9286,2.9093,2.9134,2.9347,2.939,2.9412,2.9433,2.97,2.9886,3.0028,3.0285,3.0441,3.053,3.0629,3.069,3.0714,2.7627,2.753,2.7926,2.8473,2.8954,2.9506,3.0248,3.0644,3.095,3.1287,3.1487,3.1466,3.1117,3.11,3.114,3.1235,0.0,3.124,0.0,0.0,3.2019,3.2459,3.2476,3.2476,3.2476,3.2435,3.2435,3.2476,3.2394,3.2521,3.2799,3.2774,3.3014,3.3584,3.4206,3.4505,3.4592,3.5136,3.5333,0.0,0.0,0.0,0.0,3.5566,3.5594,3.5622,3.5622,3.5622,3.5622,0.0,3.5622,0.0,0.0,0.0,0.0,0.0,0.0,0.0,0.0,0.0,0.0,0.0,0.0,0.0,3.1839,0.0,3.2073,0.0,0.0,0.0,0.0,0.0,0.0,0.0,0.0,0.0,0.0,0.0,0.0,0.0,0.0,0.0,0.0,0.0,0.0,0.0,0.0,2.784,2.7926,2.7992,2.8075,2.8166,2.8166,2.8219,2.8324,2.8621,2.885,2.9003,2.9156,2.9328,2.9512,2.9328,2.9349,2.9531,2.9513,2.9551,2.9608,2.9902,3.0099,3.019,3.0386,3.0492,3.0565,3.0629,3.0678,3.0716,2.8954,2.8954,2.9506,3.0041,3.061,3.1179,3.1714,3.18,3.174,3.1584,3.1773,3.1859,3.1651,3.1805,0.0,3.1839,3.1839,3.2019,0.0,0.0,3.2831,3.3389,3.3406,0.0,3.3406,3.3406,3.3406,3.3406,3.3406,3.3482,3.3616,3.3616,3.3917,3.4425,3.4933,3.5196,3.5258,0.0,3.5688,3.5503,3.5367,3.5383,3.552,3.5594,3.5622,3.5622,3.5622,3.5622,3.5622,3.5622,3.5622,0.0,3.5888,0.0,0.0,0.0,0.0,0.0,3.4594,0.0,0.0,0.0,0.0,0.0,0.0,0.0,0.0,0.0,0.0,0.0,0.0,0.0,0.0,3.2107,0.0,0.0,0.0,0.0,0.0,0.0,0.0,0.0,0.0,0.0,0.0,0.0,2.8075,0.0,2.8192,2.8384,2.8504,2.8504,2.8504,2.8554,2.8646,2.8892,2.9071,2.9163,2.9351,2.9532,2.968,2.957,2.9589,2.968,2.968,2.9716,2.9769,3.0071,3.0209,3.0285,3.0439,3.0549,3.0634,3.0634,3.0652,3.0711,3.1662,3.1662,3.1696,3.1714,3.1748,3.1765,3.18,3.18,3.2021,3.2664,3.275,0.0,0.0,0.0,0.0,0.0,0.0,3.3339,3.3372,0.0,3.3389,0.0,0.0,3.3406,0.0,3.3406,3.3406,3.3406,3.3406,3.3761,3.4455,3.4455,3.4834,3.5458,3.5881,3.5881,3.5622,3.6037,3.6147,3.6071,3.5844,3.5711,3.5577,0.0,3.5622,3.5622,3.5622,0.0,0.0,3.5622,3.5684,0.0,0.0,0.0,0.0,0.0,0.0,0.0,0.0,0.0,0.0,3.3246,0.0,0.0,0.0,0.0,3.2232,0.0,0.0,0.0,0.0,0.0,3.2142,3.137,3.1897,0.0,0.0,0.0,0.0,0.0,0.0,0.0,0.0,0.0,0.0,0.0,2.835,0.0,2.8504,2.8504,2.8504,2.8504,2.8504,2.8646,2.898,2.9003,2.9206,2.9589,2.9589,2.9697,2.9896,2.9902,2.9883,2.9896,2.9883,2.9886,2.9902,3.0052,3.0131,3.0228,3.0417,3.0567,3.0691,3.0691,3.0697,3.0691,3.3317,3.3317,3.299,3.1972,3.18,3.1955,3.2455,3.2972,3.3404,0.0,0.0,0.0,0.0,3.368,3.3615,0.0,0.0,3.3609,3.41,3.4134,0.0,0.0,0.0,3.4878,0.0,0.0,3.4878,3.4878,3.4878,3.4996,3.5233,3.5233,3.5313,3.5537,3.6002,3.6114,0.0,0.0,0.0,0.0,0.0,3.6088,3.6045,0.0,0.0,3.5622,3.5622,3.5622,0.0,3.5622,3.5684,3.5817,3.5817,3.5993,3.6225,3.6225,3.6251,0.0,0.0,0.0,3.4864,3.3346,0.0,0.0,0.0,0.0,0.0,0.0,0.0,0.0,0.0,3.2798,3.2645,3.2599,3.262,3.258,0.0,0.0,0.0,0.0,0.0,0.0,0.0,0.0,0.0,2.8386,2.8646,2.8827,0.0,2.9007,2.9097,2.9097,2.9097,2.916,2.9262,2.9262,2.9372,2.9608,2.9644,2.9817,3.0095,3.0007,3.0007,3.0095,3.0099,3.0066,3.0052,3.0271,3.0402,3.0482,3.0599,3.0652,3.0706,3.0703,3.0735,3.0754,3.4093,3.4093,3.3783,3.2783,3.261,3.2766,3.3248,3.3766,0.0,0.0,3.4433,0.0,3.459,0.0,3.4397,0.0,3.4201,3.4387,3.4861,3.4895,0.0,3.5605,3.5739,0.0,0.0,0.0,0.0,0.0,3.5667,3.5711,3.5827,3.5827,3.5844,3.5817,3.6284,3.6451,3.6308,3.6724,3.6978,0.0,0.0,3.6574,0.0,0.0,3.5854,3.5622,0.0,3.5739,3.5622,3.5622,3.5667,3.5756,3.5958,3.6174,3.6385,3.6533,3.6557,3.6452,3.6125,3.591,0.0,3.4049,3.3688,0.0,3.251,0.0,0.0,0.0,0.0,0.0,0.0,0.0,3.3001,3.3232,3.3093,3.3001,0.0,3.3001,0.0,0.0,0.0,0.0,0.0,0.0,2.9465,2.9125,2.9127,2.9156,0.0,0.0,2.9407,2.9407,2.9407,2.9407,2.9407,2.945,2.9551,2.9716,2.9801,2.9992,3.0279,3.0177,3.0209,3.0304,3.0321,3.0321,3.029,3.0472,3.0587,3.0637,3.0671,3.0721,3.0751,3.0735,3.073,3.0704,3.4197,3.4197,3.4197,3.4197,3.4162,0.0,0.0,0.0,3.4456,0.0,3.515,3.5341,3.6139,3.5949,3.5817,3.5817,3.5667,3.5622,3.5622,3.5622,0.0,0.0,3.6045,3.6301,3.6301,0.0,0.0,0.0,0.0,3.5827,3.6259,3.6259,3.6259,3.6301,3.6678,3.6759,3.6655,3.7034,3.7394,3.7631,3.7319,3.7094,3.6939,3.6939,0.0,3.5739,3.6174,3.6045,3.565,3.565,3.565,3.5739,3.6266,3.6498,3.6701,3.7155,3.7135,3.7017,3.7395,3.6714,3.5804,3.5349,0.0,0.0,0.0,0.0,3.3006,0.0,0.0,0.0,0.0,0.0,0.0,3.325,3.3291,3.3321,3.3321,3.3321,0.0,0.0,0.0,0.0,0.0,3.1075,3.0307,3.0276,2.9761,2.9463,0.0,0.0,0.0,2.9407,2.9427,2.9409,2.9409,2.9551,2.9697,2.9918,3.0052,3.0203,3.0398,3.0398,3.0439,3.0519,3.0576,3.0602,3.0593,3.0594,3.065,3.0709,3.0706,3.0747,3.0804,3.0804,3.0717,3.0581,3.5797,3.5732,3.5732,0.0,3.5266,3.4921,0.0,0.0,0.0,0.0,3.5966,3.601,3.6191,3.614,3.5993,3.5817,3.5844,0.0,0.0,0.0,0.0,3.5622,3.6045,3.6301,3.6301,3.6301,0.0,3.6301,0.0,3.5667,3.5783,3.5783,3.5783,3.5783,3.6241,3.6597,3.686,3.7246,3.765,3.8003,3.7596,3.7395,0.0,0.0,3.6999,3.658,3.6701,3.6661,3.658,3.658,3.6374,3.6266,3.6661,3.6724,3.6746,3.7135,3.7303,3.7395,3.7469,3.7506,3.7289,3.6326,3.5672,3.4993,0.0,0.0,0.0,0.0,0.0,0.0,0.0,0.0,0.0,3.3823,3.3762,3.3578,3.335,0.0,0.0,3.368,0.0,0.0,0.0,3.2177,3.1808,3.1413,3.0702,0.0,0.0,0.0,0.0,2.9551,2.9681,2.9769,2.9769,2.9803,2.9899,3.0052,3.0122,3.0248,3.0398,3.0501,3.0567,3.0576,3.0644,3.0652,3.0601,3.0643,3.0669,3.07,3.0801,3.0853,3.0859,3.0756,3.0672,3.0591,3.6326,3.6301,0.0,3.6301,0.0,0.0,3.568,0.0,0.0,3.6301,3.6259,0.0,3.6208,3.6122,3.6036,3.5817,3.5861,0.0,3.5915,0.0,0.0,3.6182,3.658,3.6821,3.6821,3.6821,0.0,3.6821,0.0,3.6249,3.644,3.644,3.644,3.644,3.6701,3.6939,3.7208,3.7632,3.7967,3.8192,3.7915,0.0,0.0,3.781,3.765,3.7468,3.7468,3.7226,3.69,3.69,3.6781,3.6701,3.7111,3.7208,3.7228,3.7632,3.7756,3.7774,3.7966,3.8068,3.7902,3.7091,3.6658,3.6115,3.4769,3.4142,3.3814,0.0,0.0,0.0,0.0,0.0,0.0,3.4074,3.4023,0.0,0.0,0.0,0.0,0.0,0.0,0.0,0.0,0.0,0.0,0.0,0.0,0.0,0.0,0.0,0.0,2.9734,2.9836,2.9902,2.9902,2.9965,3.0022,3.0109,3.0228,3.0323,3.0394,3.054,3.0602,3.061,3.0689,3.0711,3.0696,3.0757,3.0788,3.079,3.0877,3.0858,3.0804,3.0735,3.0656,3.0583,3.6343,3.6301,0.0,0.0,0.0,0.0,0.0,3.6301,0.0,3.6301,0.0,3.6208,3.6208,3.6122,3.5975,3.5861,0.0,3.5975,3.6259,3.6301,3.6492,3.6821,3.7266,3.7505,3.7505,3.7505,3.7505,0.0,0.0,3.7094,3.7432,3.7432,3.7432,3.7432,3.7469,3.7542,0.0,3.802,3.8192,3.8192,3.8192,3.8192,3.8192,3.8192,3.8192,3.8192,3.8192,3.7703,3.7055,3.7055,3.7017,3.7055,3.7613,3.7739,3.7827,3.8332,3.8318,3.8171,3.8596,3.8433,3.8089,3.7747,3.7599,3.711,3.5679,3.5155,3.4789,3.41,3.3862,0.0,0.0,0.0,0.0,3.4074,0.0,0.0,0.0,0.0,0.0,0.0,0.0,0.0,0.0,0.0,0.0,0.0,0.0,0.0,0.0,0.0,0.0,0.0,3.0007,0.0,2.9965,0.0,3.0136,3.0136,3.0311,3.0398,3.041,3.053,3.0602,3.0614,3.0743,3.0819,3.0821,3.0877,3.0898,3.0897,3.0898,3.0829,3.0715,3.0706,3.0661,3.0581,3.6409,0.0,0.0,0.0,0.0,3.6301,3.6301,3.6301,3.6301,3.6301,3.6301,3.6259,3.6259,3.6259,3.6233,3.6122,3.6191,0.0,0.0,0.0,0.0,3.6498,3.7152,3.7505,3.7505,3.7505,3.7505,0.0,0.0,3.6939,3.7017,3.7017,3.7017,3.7017,3.7358,3.7721,3.8088,3.8192,0.0,3.8192,3.8192,3.8192,3.8192,3.8192,3.8192,3.8192,3.8192,3.8106,3.7985,3.7985,3.7721,3.7505,3.8036,3.8018,3.7861,3.8364,3.8528,3.8596,3.8676,3.8658,3.859,3.8493,3.7973,3.7404,3.711,3.5991,3.4954,3.4807,3.4266,3.3807,3.3807,0.0,0.0,0.0,0.0,0.0,0.0,0.0,0.0,0.0,0.0,0.0,0.0,0.0,0.0,0.0,0.0,0.0,0.0,0.0,0.0,0.0,0.0,0.0,0.0,0.0,0.0,3.0355,3.0379,3.0398,3.039,3.0546,3.06,3.0613,3.0794,3.0875,3.0878,3.0898,3.0898,3.0898,3.0898,3.0855,3.0774,3.0771,3.0701,3.0583,0.0,0.0,0.0,0.0,0.0,0.0,0.0,3.6301,0.0,3.6301,3.6301,3.6301,3.6301,3.6301,3.6259,3.6225,3.6251,3.6276,3.6301,3.6678,3.6978,3.7114,3.7685,0.0,3.7915,3.7897,3.7897,3.7897,0.0,3.7577,3.765,3.7577,3.7577,3.7577,3.7774,3.7967,0.0,0.0,0.0,3.8192,3.8192,3.8192,3.8192,3.8192,3.8192,3.8192,3.8192,3.8192,3.8192,3.8192,3.8054,3.7915,3.8189,3.8171,3.8119,3.8396,3.8559,3.8609,3.8658,3.8707,3.8707,3.8707,3.8414,3.801,3.7588,3.6541,3.5569,3.5082,3.4376,3.3807,3.3807,3.3947,0.0,0.0,0.0,0.0,0.0,0.0,0.0,0.0,0.0,0.0,0.0,0.0,0.0,0.0,0.0,0.0,0.0,0.0,0.0,0.0,0.0,0.0,0.0,0.0,0.0,3.0398,3.0398,3.0414,3.046,3.056,3.0613,3.0652,3.0825,3.0897,3.0898,3.0898,3.0898,3.0898,3.0857,3.0804,3.0735,3.0711,3.0633,3.0548,0.0,3.6669,0.0,0.0,3.6492,0.0,3.6409,3.6326,3.6301,3.6301,3.6301,3.6301,3.6301,3.6301,3.6259,3.6208,3.6208,3.6318,3.6492,3.6978,3.7377,3.7703,3.8135,3.8368,3.8322,3.8322,3.8322,0.0,0.0,0.0,3.8307,3.8259,3.8225,0.0,0.0,0.0,0.0,0.0,3.8192,3.8192,3.8192,3.8192,3.8192,3.8192,3.8192,3.8192,3.8192,3.8225,3.8225,3.8225,3.8225,3.8225,3.8274,3.8307,3.8354,3.8478,3.851,3.8559,3.8658,3.8707,3.8707,3.8707,3.8707,3.8524,3.79,3.7129,3.6303,3.5459,3.4504,3.3788,3.3815,3.3895,0.0,0.0,0.0,0.0,0.0,0.0,0.0,0.0,0.0,0.0,0.0,0.0,0.0,0.0,0.0,3.4008,3.4178,3.3394,0.0,0.0,0.0,0.0,3.1429,0.0,3.0595,0.0,3.0425,3.0471,3.0518,3.0586,3.0642,3.0703,3.0849,3.0897,3.0898,3.0898,3.0898,3.0878,3.0827,3.0758,3.0667,3.0614,3.0571,3.053,0.0,0.0,0.0,0.0,0.0,0.0,0.0,3.6516,3.6301,3.6301,3.6301,3.6301,3.6301,3.6301,3.6301,3.6301,3.6301,3.6301,3.6343,3.6995,3.7413,3.7431,3.8068,3.8382,3.8382,3.8382,3.8382,0.0,0.0,0.0,0.0,3.8307,0.0,0.0,0.0,0.0,0.0,3.8192,3.8192,3.8192,3.8192,3.8192,3.8192,3.8192,3.8192,3.8192,3.8192,3.8241,3.8307,3.8307,3.8241,3.8225,3.8274,3.8354,3.8433,3.8478,3.8609,3.8689,3.8707,3.8707,3.8707,3.8707,3.8707,3.8689,3.8597,3.7955,3.7147,3.634,3.4908,3.3815,3.3868,3.4049,3.4124,0.0,0.0,0.0,0.0,0.0,0.0,0.0,0.0,0.0,0.0,0.0,0.0,0.0,0.0,3.5059,3.5076,3.4254,3.3508,3.2929,0.0,3.2064,3.0533,3.1218,0.0,3.0482,3.0482,3.0537,3.0586,3.0656,3.0696,3.0703,3.0849,3.0897,3.0898,3.0898,3.0857,3.0804,3.0801,3.072,3.0607,3.06,3.0599,3.0569,0.0,0.0,0.0,0.0,0.0,0.0,0.0,3.7947,3.768,3.768,3.687,3.6301,3.6301,3.6533,3.6678,3.6678,3.686,3.7017,3.7017,3.7505,3.7809,3.7809,3.8303,3.8528,3.8478,3.8478,3.8478,0.0,0.0,0.0,0.0,0.0,0.0,0.0,0.0,3.8274,3.8192,3.8192,3.8192,3.8192,3.8192,3.8192,3.8192,3.8192,3.8192,3.8225,3.8259,3.8274,3.8307,3.8354,3.8336,3.8336,3.8401,3.8446,3.8478,3.8609,3.8658,3.8707,3.8707,3.8707,3.8707,3.8707,3.8707,3.8707,3.8707,3.8065,3.7404,3.7074,3.5697,3.4376,3.3907,3.4049,3.4203,0.0,0.0,0.0,0.0,0.0,0.0,0.0,0.0,0.0,0.0,0.0,0.0,0.0,0.0,3.5369,3.5369,3.5043,3.4726,3.4468,0.0,3.3353,3.2699,3.2506,3.2047,3.1275,3.1275,3.1064,3.0656,3.0687,3.0742,3.0829,3.0876,3.0898,3.0898,3.0898,3.0857,3.0799,3.0762,3.0672,3.0605,3.0599,3.0595,3.0588,4.0274,0.0,4.0149,0.0,3.9562,3.9269,3.9269,3.8886,3.8594,3.8594,3.7646,3.7016,3.7186,3.7458,3.7664,3.7764,3.8033,3.822,3.822,3.8347,3.8445,3.8445,3.8611,0.0,3.8559,3.8559,3.8559,3.8559,3.8496,0.0,0.0,0.0,0.0,0.0,3.8354,3.8289,3.8225,3.8241,3.8241,3.8192,3.8225,3.8225,3.8192,3.8192,3.8225,3.8259,3.8274,3.834,3.8387,3.8415,3.8465,3.8496,3.8478,3.8478,3.851,3.8609,3.8658,3.8707,3.8707,3.8707,3.8707,3.8707,3.8707,3.8707,3.8707,3.8267,3.7801,3.7632,3.6297,3.4926,3.4381,3.4297,3.4321,0.0,0.0,0.0,0.0,0.0,0.0,0.0,3.5493,3.5493,3.5493,0.0,0.0,0.0,0.0,0.0,3.5493,3.5493,0.0,0.0,0.0,0.0,0.0,0.0,3.2932,3.2212,3.1967,3.1605,3.1102,3.0859,3.0804,3.0897,3.0898,3.0898,3.0898,3.0898,3.0855,3.0768,3.072,3.0664,3.0595,3.0606,3.0598,3.0588,4.1163,4.1002,4.0731,3.9925,3.9464,3.9193,3.9193,3.8868,3.8594,3.8594,3.8577,3.8737,3.9193,3.9294,3.9423,3.9807,3.9846,3.9884,3.9884,3.95,3.9295,0.0,0.0,3.8707,3.8707,3.8707,3.8707,3.8707,0.0,0.0,3.851,0.0,3.8478,3.8382,3.8478,3.8433,3.8307,3.8368,3.8322,3.8225,3.8274,3.8241,3.8192,3.8192,3.8241,3.8307,3.8307,3.8387,3.851,3.851,3.8609,3.8658,3.8465,3.8446,3.851,3.851,3.8609,3.8707,3.8707,3.8707,3.8707,3.8707,3.8707,3.8707,3.8707,3.8689,3.8541,3.8006,3.6556,3.5386,3.5374,3.4895,3.442,3.4245,0.0,0.0,0.0,0.0,0.0,0.0,3.546,3.5493,3.5493,0.0,0.0,0.0,0.0,0.0,0.0,0.0,0.0,3.4237,3.5045,0.0,3.2929,3.3812,3.3916,3.3177,3.2375,3.2023,3.2057,3.1266,3.0897,3.0897,3.0898,3.0898,3.0898,3.0898,3.0829,3.0691,3.0711,3.0652,3.0598,3.0598,3.0598,3.0588,4.2741,4.2705,4.2614,4.2377,4.1973,4.1704,4.1704,4.1078,4.0595,4.0595,4.036,4.0433,4.118,4.0286,3.9825,0.0,4.0563,4.0721,0.0,4.0604,4.0525,4.0525,4.0404,4.0341,4.0341,4.0341,4.0341,4.0341,0.0,0.0,0.0,3.8658,3.8578,3.8478,3.851,3.8446,3.8368,3.8382,3.8368,3.8336,3.8289,3.8274,3.8274,3.8225,3.8241,3.8307,3.8336,3.8415,3.851,3.8609,3.8658,3.8707,3.8627,3.8627,3.8658,3.8658,3.8658,3.8707,3.8707,3.8707,3.8707,3.8707,3.8707,3.875,3.8921,3.8979,3.8766,3.8034,3.7466,3.6794,3.5834,3.5628,3.5395,3.4766,0.0,0.0,0.0,0.0,0.0,0.0,0.0,3.5493,0.0,3.5493,0.0,0.0,0.0,0.0,0.0,0.0,0.0,0.0,3.5372,0.0,3.4739,3.5044,3.4845,3.414,3.3891,3.3193,3.2082,3.1833,3.1425,3.0898,3.0898,3.0898,3.0898,3.0855,3.0774,3.0706,3.0645,3.063,3.0598,3.0598,3.0598,3.0588,4.3304,4.325,4.3214,4.305,4.2808,4.2634,4.2634,4.2115,4.1778,4.1778,4.1534,4.1666,4.2378,4.1561,0.0,4.1594,4.1839,4.2011,4.2011,4.1735,4.1552,4.1552,4.1277,4.1111,4.1111,0.0,0.0,4.1111,4.0598,4.0084,3.9606,3.9294,3.9263,3.9456,3.9177,3.915,3.9378,3.941,3.936,3.9294,3.9246,3.9231,3.9213,3.9164,3.9216,3.9298,3.9345,3.941,3.9507,3.9557,3.9405,3.9148,3.9148,3.9019,3.8822,3.8738,3.8707,3.8707,3.8707,3.8707,3.8707,3.8707,3.8707,3.878,3.9045,3.9183,3.9122,3.8746,3.839,3.7802,3.6632,3.6309,3.5951,3.5059,0.0,3.5209,0.0,0.0,0.0,0.0,0.0,0.0,0.0,3.5493,0.0,0.0,0.0,0.0,0.0,0.0,0.0,3.5493,3.5493,0.0,3.5607,3.563,3.5452,3.5085,3.4783,3.3916,3.2593,3.2596,3.2148,3.1387,3.1387,3.1191,3.0856,3.0825,3.0755,3.0656,3.0614,3.0607,3.0598,3.0598,3.0598,3.0588,4.3013,4.292,0.0,0.0,4.2279,0.0,4.2279,4.2297,4.2257,4.2257,4.2198,4.2378,4.2844,4.2882,4.3069,4.3444,0.0,0.0,0.0,4.28,4.2378,4.2378,4.168,0.0,4.1277,4.1277,4.1258,4.1185,4.1185,4.1167,4.1093,4.0322,4.0377,4.1075,4.0322,4.0364,4.1031,4.1079,4.0994,4.0823,4.0808,4.0789,4.0823,4.0739,4.0826,4.1013,4.1013,4.1079,4.1158,4.1158,4.0662,4.0068,4.0068,3.9697,3.9222,3.8817,3.8689,3.8719,3.8707,3.8707,3.8707,3.8719,3.875,3.8851,3.9073,3.935,3.9599,3.9848,3.9248,3.8452,3.7658,3.7013,3.623,3.5192,3.511,3.5209,3.5209,0.0,0.0,0.0,0.0,0.0,0.0,3.5493,3.5493,0.0,0.0,0.0,0.0,0.0,3.5493,3.5493,3.5493,3.5534,3.5618,3.5678,3.5767,3.5899,3.5157,3.4331,3.3491,3.3496,3.3047,3.2285,3.2285,3.1755,3.0899,3.0897,3.0778,3.0593,3.0605,3.0599,3.0598,3.0598,3.0598,3.0588,0.0,0.0,4.3339,4.3214,4.3196,4.3196,4.3196,4.2939,4.2711,4.2711,4.2418,4.2378,4.2844,4.2882,4.3069,4.3444,4.3497,4.3497,4.3497,4.3314,4.3222,4.3222,4.302,4.2928,4.2928,4.2928,4.2635,4.2029,4.2029,4.1699,4.1111,4.0928,4.0928,4.1111,4.091,4.0895,4.1079,4.1079,4.1079,4.1027,4.0979,4.0946,4.0928,4.0842,4.1005,4.1305,4.1305,4.1497,4.1773,4.1773,4.1669,4.1501,4.1501,4.1416,4.0977,3.922,3.8851,3.895,3.875,3.8707,3.875,3.895,3.9324,3.9599,3.9452,3.9623,3.9807,3.9892,3.974,3.9406,3.8747,3.7944,3.7122,3.6249,3.5596,3.5209,3.5209,0.0,0.0,0.0,3.5412,3.5493,3.5493,3.5493,3.5493,0.0,0.0,0.0,0.0,0.0,3.5493,3.5493,3.5493,3.5565,3.5687,3.5685,3.5795,3.5974,3.5773,3.523,3.4392,3.4394,3.3926,3.3125,3.3125,3.2614,3.1797,3.1734,3.1276,3.0605,3.0602,3.0597,3.0598,3.0598,3.0598,3.0598,4.3497,4.3497,4.3497,4.3497,4.3497,4.3497,4.3497,4.3304,4.3178,4.3178,4.2939,4.2884,4.3142,4.3178,4.3268,4.3479,4.3497,4.3497,4.3497,4.3497,4.3497,4.3497,4.3497,4.3497,4.3497,4.3497,4.3277,4.2837,4.2837,4.2635,4.2194,4.1827,4.1846,4.2176,4.1809,4.1864,4.2194,4.2194,4.2194,4.2194,4.2111,4.2213,4.2359,4.2239,4.2408,4.2752,4.2752,4.2913,4.3096,4.3096,4.2852,4.2551,4.2551,4.2391,4.192,4.0617,4.0021,3.9712,3.9194,3.9073,3.9101,3.9245,3.958,3.9851,3.9717,3.9892,4.0077,4.0077,4.0077,3.9851,3.9127,3.861,3.7903,3.67,3.6105,3.5646,3.5267,3.5254,0.0,3.5315,3.5379,3.546,3.5493,3.5493,3.5493,3.5493,0.0,0.0,3.554,3.557,3.5558,3.5507,3.5522,3.5596,3.5693,3.5801,3.5884,3.6005,3.5991,3.576,3.5292,3.5293,3.4824,3.3984,3.3962,3.3441,3.2611,3.2157,3.1644,3.1114,3.0732,3.0598,3.0598,3.0598,3.0598,3.0598,4.3497,4.3497,4.3497,4.3497,4.3497,4.3497,4.3497,4.3497,4.3497,4.3497,4.3497,4.3497,4.3497,4.3497,4.3497,4.3497,4.3497,4.3497,4.3497,4.3497,4.3497,4.3497,4.3497,4.3497,4.3497,4.3497,4.3497,4.3497,4.3497,4.3497,4.3479,4.28,4.2837,4.3461,4.2782,4.2855,4.3479,4.3548,4.3582,4.3582,4.3566,4.3749,4.4048,4.3949,4.4125,4.4465,4.4465,4.4493,4.4538,4.4538,4.4067,4.3528,4.3528,4.3207,4.2758,4.2416,4.1776,4.0979,3.9958,3.9626,3.9575,3.9575,3.9762,3.9956,3.9956,4.0137,4.031,4.031,4.031,4.0081,3.9336,3.9088,3.8534,3.712,3.6673,3.6249,3.5512,0.0,3.5315,3.5315,3.5364,3.5446,3.5493,3.5493,3.5507,3.5515,3.557,0.0,0.0,3.5678,3.5641,3.5534,3.5593,3.565,3.5718,3.5912,3.6005,3.6007,3.5993,3.5995,3.5995,3.5996,3.5605,3.4883,3.4832,3.4296,3.3434,3.2622,3.2169,3.1932,3.1101,3.0772,3.0772,3.0636,3.0598,3.0598,4.3497,4.3497,4.3497,4.3497,4.3497,4.3497,4.3497,4.3497,4.3497,4.3497,4.3497,4.3497,4.3497,4.3497,4.3497,4.3497,4.3497,4.3497,4.3497,4.3497,4.3497,4.3497,4.3497,4.3497,4.3497,4.3497,4.3497,4.3497,4.3497,4.3497,4.3497,4.3369,4.3369,4.3479,4.3369,4.3369,4.3513,4.3814,4.3942,4.3923,4.4162,4.4289,4.4346,4.4299,4.4493,4.4726,4.4726,4.491,4.5151,4.5151,4.5074,4.4982,4.4982,4.4927,4.4701,4.3933,4.3588,4.3045,4.106,4.0179,3.9848,3.9848,4.0038,4.0234,4.0234,4.0272,4.031,4.031,4.031,4.0272,4.0119,3.9508,3.8934,3.872,3.7455,3.6476,3.6393,0.0,3.5379,3.5379,3.5446,3.5493,3.5493,3.5493,3.5509,3.5574,3.5596,3.563,3.5676,3.5693,3.5685,3.5678,3.5687,3.5745,3.5875,3.5968,3.6009,3.5994,3.5995,3.5995,3.5996,3.5996,3.5937,3.5781,3.573,3.5194,3.4374,3.4185,3.3632,3.2812,3.1952,3.1623,3.1526,3.0849,3.0598,3.0598,4.3497,4.3497,4.3497,4.3497,4.3497,4.3497,4.3497,4.3497,4.3497,4.3497,4.3497,4.3497,4.3497,4.3497,4.3497,4.3497,4.3497,4.3497,4.3497,4.3497,4.3497,4.3497,4.3497,4.3497,4.3497,4.3497,4.3497,4.3497,4.3497,4.3497,4.3497,4.3497,4.3497,4.3497,4.3497,4.3582,4.3781,4.3942,4.4079,4.4221,4.4346,4.4493,4.4624,4.4624,4.4795,4.5087,4.5087,4.5173,4.5297,4.5297,4.5297,4.5297,4.5297,4.5297,4.522,4.4819,4.4055,4.304,4.1535,4.0948,4.0651,4.0232,4.0215,4.031,4.031,4.031,4.031,4.031,4.031,4.031,4.031,3.9966,3.9546,3.9123,3.8393,0.0,0.0,3.6289,3.5931,3.547,3.5427,3.546,3.5493,3.5493,3.5522,3.5596,3.5621,3.5696,3.5801,3.5839,3.586,3.5866,3.5827,3.5844,3.5946,3.5982,3.5991,3.5995,3.5996,3.5996,3.5996,3.5996,3.5996,3.5996,3.589,3.5622,3.5201,3.4664,3.4187,3.3712,3.2841,3.2502,3.2386,3.1565,3.1255,3.1168,4.3497,4.3497,4.3497,4.3497,4.3497,4.3497,4.3497,4.3497,4.3497,4.3497,4.3497,4.3532,4.3513,4.3513,4.3513,4.3513,4.3566,4.3566,4.3532,4.3566,4.3532,4.3497,4.3497,4.3497,4.3497,4.3497,4.3497,4.3497,4.3497,4.3497,4.3497,4.3497,4.3497,4.3479,4.3582,4.3749,4.4005,4.4121,4.4289,4.4493,4.4591,4.472,4.4934,4.4934,4.5087,4.5297,4.5297,4.5297,4.5297,4.5297,4.5297,4.5297,4.5297,4.5297,4.5297,4.5297,4.438,4.3157,4.2087,4.1648,4.1342,4.0731,4.0444,4.031,4.031,4.031,4.031,4.031,4.031,4.031,4.031,4.031,4.0081,3.9411,0.0,0.0,0.0,3.6865,3.6449,3.5777,3.5528,3.5446,3.5493,3.5493,3.5534,3.562,3.5678,3.576,3.5924,3.5962,3.5999,3.6005,3.5958,3.5955,3.6007,3.601,3.5993,3.5995,3.5996,3.5996,3.5996,3.5996,3.5996,3.5974,3.5849,3.5786,3.5723,3.4991,3.4698,3.4621,3.375,3.3402,3.3305,3.2416,3.2106,3.197,4.3497,4.3497,4.3497,4.3497,4.3497,4.3497,4.3497,4.3497,4.3497,4.3497,4.3497,4.3513,4.3582,4.3582,4.3582,4.3582,4.3719,4.3719,4.3582,4.3719,4.3686,4.3532,4.3497,4.3497,4.3497,4.3497,4.3497,4.3497,4.3497,4.3497,4.3497,4.3497,4.3497,4.3513,4.3814,4.3974,4.4017,4.4538,4.4751,4.4819,4.5109,4.5235,4.5256,4.5256,4.5297,4.5297,4.5297,4.5297,4.5297,4.5297,4.5297,4.5297,4.5297,4.5297,4.5297,4.5297,4.5201,4.4762,4.3138,4.2106,4.1495,4.1418,4.0845,4.031,4.031,4.031,4.031,4.031,4.031,4.031,4.031,4.031,4.0291,4.0212,0.0,0.0,3.901,3.7679,3.6675,3.6608,3.5955,3.5493,3.5493,3.5493,3.5553,3.5676,3.5693,3.5781,3.5985,3.5999,3.6005,3.5991,3.6005,3.6007,3.5995,3.5992,3.5994,3.5996,3.5996,3.5996,3.5996,3.5996,3.5973,3.5896,3.5836,3.5756,3.5702,3.564,3.5607,3.551,3.464,3.4292,3.4195,3.3325,3.3005,3.2859,4.3548,4.3513,4.3497,4.3497,4.3497,4.3497,4.3497,4.3497,4.3513,4.3548,4.3548,4.36,4.3719,4.3719,4.3719,4.3719,4.3771,4.3771,4.3719,4.3771,4.3771,4.3686,4.3686,4.3686,4.3686,4.3686,4.3686,4.3686,4.36,4.3548,4.3548,4.3513,4.3615,4.3814,4.3942,4.4162,4.4511,4.4701,4.4934,4.5109,4.5256,4.5297,4.5297,4.5297,4.5297,4.5297,4.5297,4.5297,4.5297,4.5297,4.5297,4.5297,4.5297,4.5297,4.5297,4.5297,4.5297,4.5163,4.4513,4.3711,4.2794,4.1762,4.1266,4.0903,4.0425,4.031,4.031,4.031,4.031,4.031,4.031,4.031,4.0291,4.0291,0.0,3.9674,3.9205,3.8642,3.7867,3.682,3.6511,3.6156,3.5616,3.5607,3.5688,3.5807,3.5814,3.5889,3.5991,3.6003,3.5991,3.5994,3.5993,3.5993,3.5995,3.5994,3.5995,3.5996,3.5996,3.5996,3.5996,3.5996,3.5954,3.5893,3.5836,3.5756,3.5713,3.5688,3.5704,3.5665,3.5336,3.5201,3.5104,3.4234,3.3905,3.3749,4.3667,4.3634,4.36,4.36,4.36,4.36,4.36,4.36,4.36,4.3667,4.3667,4.3719,4.3818,4.3818,4.3818,4.3818,4.3851,4.3851,4.3818,4.3851,4.3851,4.3804,4.3804,4.3804,4.3804,4.3804,4.3804,4.3804,4.3719,4.3667,4.3667,4.3697,4.386,4.4079,4.4221,4.4484,4.4843,4.4915,4.5087,4.5297,4.5297,4.5297,4.5297,4.5297,4.5297,4.5297,4.5297,4.5297,4.5297,4.5297,4.5297,4.5297,4.5297,4.5297,4.5297,4.5297,4.5297,4.5297,4.5297,4.4857,4.4074,4.2641,4.2106,4.1686,4.0864,4.0692,4.0616,4.0348,4.031,4.031,4.031,4.031,4.031,4.031,4.0291,4.0116,3.9574,3.9301,3.877,3.7679,3.7153,3.6663,3.6105,3.5833,3.5753,3.5883,3.5908,3.5934,3.5994,3.6007,3.5993,3.5995,3.5995,3.5995,3.5995,3.5995,3.5995,3.5996,3.5996,3.5996,3.5996,3.5975,3.5927,3.5857,3.5805,3.5741,3.5708,3.5697,3.5704,3.5704,3.5704,3.5704,3.5626,3.5027,3.4814,3.4668,4.3804,4.3804,4.3804,4.3804,4.3804,4.3804,4.3804,4.3804,4.3804,4.3804,4.3804,4.3837,4.3897,4.3897,4.3897,4.3897,4.3942,4.3974,4.3915,4.3942,4.3961,4.3804,4.3804,4.3804,4.3804,4.3804,4.3804,4.3804,4.3804,4.3804,4.3804,4.4079,4.4192,4.4221,4.4701,4.4896,4.4938,4.5194,4.5297,4.5297,4.5297,4.5297,4.5297,4.5297,4.5297,4.5297,4.5297,4.5297,4.5297,4.5297,4.5297,4.5297,4.5297,4.5297,4.5297,4.5297,4.5297,4.5297,4.5297,4.5297,4.5086,4.4227,4.3405,4.2584,4.1705,4.1495,4.1266,4.0482,4.031,4.031,4.031,4.031,4.031,4.031,4.031,4.031,4.0398,3.9668,3.9169,3.9386,3.7928,3.6957,3.7003,3.6226,3.5772,3.5903,3.5889,3.5938,3.6003,3.6009,3.5993,3.5995,3.5996,3.5996,3.5996,3.5995,3.5995,3.5996,3.5996,3.5996,3.5996,3.5927,3.5857,3.5805,3.5733,3.5708,3.5704,3.5704,3.5704,3.5704,3.5704,3.5704,3.5704,3.5704,3.5704,3.5557,4.3851,4.3818,4.3804,4.3804,4.3804,4.3804,4.3804,4.3804,4.3837,4.3851,4.3883,4.3915,4.3942,4.3974,4.3974,4.3974,4.3974,4.4005,4.3974,4.4005,4.3974,4.3961,4.3961,4.3961,4.3961,4.3961,4.4017,4.4221,4.4162,4.425,4.443,4.4484,4.4572,4.4776,4.4896,4.5074,4.5262,4.5341,4.538,4.5359,4.5359,4.5338,4.5297,4.5297,4.5297,4.5297,4.5297,4.5297,4.5297,4.5297,4.5297,4.5297,4.5297,4.5297,4.5297,4.5297,4.5297,4.5338,4.54,4.538,4.5086,4.4227,4.3825,4.3443,4.2603,4.1934,4.1418,4.1189,4.0692,4.031,4.031,4.031,4.031,4.031,4.031,4.0346,4.0444,4.0254,3.9932,3.9533,3.912,3.8622,3.8046,3.7283,3.6844,3.6875,3.6329,3.5988,3.6009,3.5991,3.5993,3.5996,3.5996,3.5996,3.5996,3.5996,3.5996,3.5996,3.5996,3.5996,3.5996,3.5976,3.5918,3.5791,3.5774,3.5749,3.5704,3.5704,3.5704,3.5704,3.5704,3.5704,3.5704,3.5704,3.5704,3.5635,4.4911,4.4638,4.4494,4.4809,4.4587,4.4494,4.4809,4.4587,4.4416,4.4429,4.4165,4.3942,4.4005,4.4005,4.4135,4.4488,4.4804,4.4989,4.4989,4.5078,4.5151,4.5151,4.5252,4.4934,4.4181,4.4048,4.4162,4.4546,4.443,4.4484,4.4726,4.48,4.4919,4.5074,4.5161,4.5302,4.5438,4.5419,4.54,4.54,4.54,4.538,4.5339,4.5339,4.5339,4.5339,4.5339,4.5339,4.5339,4.5338,4.5317,4.5297,4.5338,4.5317,4.5298,4.5362,4.5381,4.54,4.5594,4.5558,4.5374,4.4802,4.4633,4.4403,4.3616,4.304,4.2464,4.1792,4.1222,4.0764,4.0471,4.0345,4.0328,4.0396,4.0379,4.0394,4.0559,4.059,4.0467,4.013,3.9863,3.9505,3.9004,3.8268,3.7672,3.7321,3.6482,3.5999,3.6009,3.5991,3.5993,3.5996,3.5996,3.5996,3.5996,3.5996,3.5996,3.5996,3.5996,3.5996,3.5996,3.5974,3.5896,3.5791,3.5762,3.5741,3.5704,3.5704,3.5704,3.5704,3.5704,3.5704,3.5704,3.5673,3.5673,3.5631,4.6494,4.59,4.5639,4.6364,4.5881,4.5639,4.6382,4.5881,4.5398,4.5398,4.4711,4.4228,4.4228,4.4228,4.4544,4.5342,4.6099,4.6559,4.6559,4.6799,4.6938,4.6938,4.7159,4.6467,4.4737,4.4445,4.4543,4.5052,4.4806,4.4832,4.51,4.5347,4.5472,4.5472,4.5649,4.5743,4.5725,4.5668,4.5649,4.5649,4.5649,4.563,4.563,4.563,4.5573,4.5515,4.5515,4.5458,4.54,4.5419,4.5359,4.5319,4.538,4.5379,4.5341,4.5486,4.5533,4.558,4.5764,4.582,4.5776,4.5757,4.5638,4.5353,4.4662,4.4446,4.3964,4.244,4.1902,4.1524,4.0839,4.0502,4.0398,4.0559,4.05,4.0481,4.068,4.0715,4.0791,4.0981,4.0318,3.9853,3.9914,3.9175,3.8355,3.7477,3.6618,3.6113,3.6122,3.6048,3.5993,3.5995,3.5996,3.5996,3.5996,3.5996,3.5996,3.5996,3.5996,3.5996,3.5996,3.5925,3.5857,3.5805,3.5733,3.5708,3.5704,3.5704,3.5704,3.5704,3.5704,3.5704,3.5684,3.5612,3.5601,3.5546,4.6494,4.6364,4.629,4.6475,4.6364,4.629,4.6475,4.6345,4.6234,4.6234,4.6085,4.5955,4.5955,4.5955,4.603,4.6215,4.6582,4.681,4.681,4.707,4.7212,4.7212,4.7264,4.7194,4.6995,4.6714,4.674,4.7064,4.7018,4.7128,4.7395,4.7434,4.7473,4.7473,4.7511,4.7529,4.7529,4.7511,4.7511,4.7511,4.7511,4.7472,4.7432,4.7432,4.7011,4.6416,4.6416,4.5975,4.54,4.54,4.5381,4.54,4.5526,4.5558,4.5555,4.5698,4.5738,4.5764,4.5928,4.5886,4.5844,4.6046,4.5978,4.5808,4.5476,4.489,4.4292,4.3925,4.2791,4.1803,4.1654,4.1026,4.0545,4.0597,4.0582,4.061,4.0759,4.0811,4.0902,4.1056,4.091,4.0808,4.0815,4.0034,3.9195,3.8375,3.7516,3.7014,3.7024,3.6362,3.5993,3.5996,3.5996,3.5996,3.5996,3.5996,3.5996,3.5996,3.5996,3.5996,3.5996,3.5925,3.5857,3.5805,3.5733,3.5708,3.5704,3.5704,3.5704,3.5704,3.5704,3.5704,3.5684,3.5612,3.5502,3.5311,4.7646,4.7348,4.7181,4.7571,4.733,4.72,4.759,4.7311,4.707,4.707,4.6735,4.6494,4.6494,4.6494,4.6708,4.7204,4.7897,4.8277,4.8277,4.851,4.8686,4.8686,4.8842,4.8993,4.912,4.8974,4.8573,4.7893,4.7769,4.7851,4.8105,4.8105,4.8105,4.8105,4.8105,4.8105,4.8105,4.8105,4.8106,4.8106,4.8106,4.8087,4.8049,4.8049,4.7761,4.7377,4.7377,4.682,4.609,4.6142,4.5871,4.5524,4.5694,4.5717,4.5711,4.5859,4.5901,4.592,4.6111,4.6091,4.6057,4.6177,4.6144,4.6052,4.5922,4.5537,4.5091,4.4684,4.3872,4.3136,4.2782,4.1912,4.1292,4.1401,4.105,4.0779,4.0885,4.0953,4.1019,4.109,4.1101,4.1108,4.1108,4.0307,3.9624,3.9195,3.8394,3.7912,3.7922,3.7084,3.6618,3.6621,3.6211,3.5996,3.5996,3.5996,3.5996,3.5996,3.5996,3.5976,3.5951,3.5921,3.5845,3.5742,3.5718,3.5708,3.5704,3.5704,3.5704,3.5704,3.5654,3.5643,3.5643,3.5577,3.5364,3.5064,4.8909,4.837,4.8129,4.8779,4.8351,4.8129,4.8797,4.8333,4.7906,4.7906,4.7311,4.6936,4.7001,4.7047,4.7417,4.8311,4.9305,4.9884,4.9884,5.0135,5.0294,5.0294,5.0544,5.0702,5.0702,5.0702,4.999,4.8548,4.8313,4.8334,4.8548,4.8548,4.8548,4.8548,4.8548,4.8548,4.8548,4.8548,4.8548,4.8548,4.8548,4.8548,4.8548,4.8548,4.8452,4.8317,4.8317,4.7778,4.7046,4.7017,4.6506,4.5882,4.5933,4.5897,4.5889,4.601,4.6059,4.6092,4.6249,4.63,4.6296,4.624,4.6216,4.6201,4.6135,4.6111,4.5916,4.5196,4.488,4.4559,4.3936,4.2972,4.2277,4.2315,4.1646,4.1101,4.1033,4.1061,4.1105,4.1108,4.1108,4.1108,4.1108,4.0444,4.0015,4.0015,3.9276,3.8812,3.8822,3.8002,3.7517,3.7519,3.668,3.6211,3.621,3.6054,3.5975,3.5974,3.5974,3.595,3.5893,3.5884,3.5811,3.5693,3.5704,3.5708,3.5704,3.5704,3.5704,3.5684,3.5643,3.5601,3.5534,3.5411,3.5136,3.4831,4.8909,4.8816,4.8779,4.889,4.8816,4.8779,4.889,4.8816,4.8742,4.8742,4.8649,4.8677,4.8984,4.92,4.9418,4.9559,4.9936,5.0159,5.0159,5.0442,5.0624,5.0624,5.0683,5.0702,5.0702,5.0702,5.0567,5.0337,5.0317,5.0317,5.0337,5.0337,5.0337,5.0337,5.0337,5.0337,5.0337,5.0337,5.0337,5.0337,5.0337,5.0337,5.0337,5.0337,4.9875,4.9221,4.9221,4.8733,4.7975,4.7255,4.6991,4.6879,4.6266,4.6076,4.6091,4.6216,4.6249,4.6273,4.63,4.63,4.63,4.6296,4.6296,4.6273,4.6201,4.6196,4.615,4.6033,4.5402,4.4851,4.4752,4.3988,4.315,4.2504,4.2234,4.1877,4.1184,4.1091,4.1105,4.1108,4.1108,4.1108,4.1108,4.0991,4.0912,4.0912,4.0179,3.9715,3.972,3.8903,3.8417,3.8418,3.7578,3.7108,3.7033,3.6292,3.5887,3.5831,3.5831,3.5849,3.5893,3.5788,3.5718,3.5693,3.5708,3.5695,3.5704,3.5704,3.5704,3.5704,3.5684,3.5546,3.5297,3.4869,3.4693,3.4604,4.8909,4.8909,4.8909,4.8909,4.8909,4.8909,4.8909,4.8909,4.8909,4.8909,4.8909,4.9027,4.9365,4.9776,5.0019,5.0019,5.0313,5.0483,5.0483,5.0624,5.0702,5.0702,5.0702,5.0702,5.0702,5.0702,5.0702,5.0702,5.0702,5.0702,5.0702,5.0702,5.0702,5.0702,5.0702,5.0702,5.0702,5.0702,5.0702,5.0702,5.0702,5.0702,5.0702,5.0702,5.0452,5.0144,5.0216,4.9721,4.8982,4.8713,4.8361,4.7918,4.717,4.6933,4.686,4.6433,4.63,4.63,4.63,4.63,4.63,4.63,4.63,4.63,4.6269,4.626,4.6245,4.6209,4.5897,4.563,4.5675,4.4972,4.4241,4.3865,4.2993,4.2232,4.1876,4.1421,4.1097,4.1108,4.1108,4.1108,4.1108,4.1108,4.1091,4.1094,4.0765,4.0576,4.0563,3.9783,3.9316,3.927,3.843,3.7948,3.7869,3.7011,3.6553,3.6526,3.5989,3.5768,3.5794,3.5733,3.5706,3.5699,3.5706,3.5704,3.5704,3.5704,3.5704,3.5704,3.5673,3.5477,3.5212,3.4888,3.4693,3.4561]}]]